[[{"header":{"parameterUnit":"m.s-1","parameterCategory":1,"la1":31.0,"la2":29.5877,"lo1":-88.7671,"lo2":-86.6584,"dy":0.0162,"dx":0.0185,"nx":115,"ny":88,"refTime":"2023-04-08T12:00:00:Z","depth":0,"parameterNumber":2,"parameterNumberName":"U-component_of_WINDS"},"data":[0.0,0.0,0.0,0.0,0.0,0.0,0.0,0.0,0.0,0.0,0.0,0.0,0.0,0.0,0.0,0.0,0.0,0.0,0.0,0.0,0.0,0.0,0.0,0.0,0.0,0.0,0.0,0.0,0.0,0.0,0.0,0.0,0.0,0.0,0.0,0.0,0.0,0.0,0.0,0.0,0.0,0.0,0.0,0.0,0.0,0.0,0.0,0.0,0.0,0.0,0.0,0.0,0.0,0.0,0.0,0.0,0.0,0.0,0.0,0.0,0.0,0.0,0.0,0.0,0.0,0.0,0.0,0.0,0.0,0.0,0.0,0.0,0.0,0.0,0.0,0.0,0.0,0.0,0.0,0.0,0.0,0.0,0.0,0.0,0.0,0.0,0.0,0.0,0.0,0.0,0.0,0.0,0.0,0.0,0.0,0.0,0.0,0.0,0.0,0.0,0.0,0.0,0.0,0.0,0.0,0.0,0.0,0.0,0.0,0.0,0.0,0.0,0.0,0.0,0.0,0.0,0.0,0.0,0.0,0.0,0.0,0.0,0.0,0.0,0.0,0.0,0.0,0.0,0.0,0.0,0.0,0.0,0.0,0.0,0.0,0.0,0.0,0.0,0.0,0.0,0.0,0.0,0.0,0.0,0.0,0.0,0.0,0.0,0.0,0.0,0.0,0.0,0.0,0.0,0.0,0.0,0.0,0.0,0.0,0.0,0.0,0.0,0.0,0.0,0.0,0.0,0.0,0.0,0.0,0.0,0.0,0.0,0.0,0.0,0.0,0.0,0.0,0.0,0.0,0.0,0.0,0.0,0.0,0.0,0.0,0.0,0.0,0.0,0.0,0.0,0.0,0.0,0.0,0.0,0.0,0.0,0.0,0.0,0.0,0.0,0.0,0.0,0.0,0.0,0.0,0.0,0.0,0.0,0.0,0.0,0.0,0.0,0.0,0.0,0.0,0.0,0.0,0.0,0.0,0.0,0.0,0.0,0.0,0.0,0.0,0.0,0.0,0.0,0.0,0.0,0.0,0.0,0.0,0.0,0.0,0.0,0.0,0.0,0.0,0.0,0.0,0.0,0.0,0.0,0.0,0.0,0.0,0.0,0.0,0.0,0.0,0.0,0.0,0.0,0.0,0.0,0.0,0.0,0.0,0.0,0.0,0.0,0.0,0.0,0.0,0.0,0.0,0.0,0.0,0.0,0.0,0.0,0.0,0.0,0.0,0.0,0.0,0.0,0.0,0.0,0.0,0.0,0.0,0.0,0.0,0.0,0.0,0.0,0.0,0.0,0.0,0.0,0.0,0.0,0.0,0.0,0.0,0.0,0.0,0.0,0.0,0.0,0.0,0.0,0.0,0.0,0.0,0.0,0.0,0.0,0.0,0.0,0.0,0.0,0.0,0.0,0.0,0.0,0.0,0.0,0.0,0.0,0.0,0.0,0.0,0.0,0.0,0.0,0.0,0.0,0.0,0.0,0.0,0.0,0.0,0.0,0.0,0.0,0.0,0.0,0.0,0.0,0.0,0.0,0.0,0.0,0.0,0.0,0.0,0.0,0.0,0.0,0.0,0.0,0.0,0.0,0.0,0.0,0.0,0.0,0.0,0.0,0.0,0.0,0.0,0.0,0.0,0.0,0.0,0.0,0.0,0.0,0.0,0.0,0.0,0.0,0.0,0.0,0.0,0.0,0.0,0.0,0.0,0.0,0.0,0.0,0.0,0.0,0.0,0.0,0.0,0.0,0.0,0.0,0.0,0.0,0.0,0.0,0.0,0.0,0.0,0.0,0.0,0.0,0.0,0.0,0.0,0.0,0.0,0.0,0.0,0.0,0.0,0.0,0.0,0.0,0.0,0.0,0.0,0.0,0.0,0.0,0.0,0.0,0.0,0.0,0.0,0.0,0.0,0.0,0.0,0.0,0.0,0.0,0.0,0.0,0.0,0.0,0.0,0.0,0.0,0.0,0.0,0.0,0.0,0.0,0.0,0.0,0.0,0.0,0.0,0.0,0.0,0.0,0.0,0.0,0.0,0.0,0.0,0.0,0.0,0.0,0.0,0.0,0.0,0.0,0.0,0.0,0.0,0.0,0.0,0.0,0.0,0.0,0.0,0.0,0.0,0.0,0.0,0.0,0.0,0.0,0.0,0.0,0.0,0.0,0.0,0.0,0.0,0.0,0.0,0.0,0.0,0.0,0.0,0.0,0.0,0.0,0.0,0.0,0.0,0.0,0.0,0.0,0.0,0.0,0.0,0.0,0.0,0.0,0.0,0.0,0.0,0.0,0.0,0.0,0.0,0.0,0.0,0.0,0.0,0.0,0.0,0.0,0.0,0.0,0.0,0.0,0.0,0.0,0.0,0.0,0.0,0.0,0.0,0.0,0.0,0.0,0.0,0.0,0.0,0.0,0.0,0.0,0.0,0.0,0.0,0.0,0.0,0.0,0.0,0.0,0.0,0.0,0.0,0.0,0.0,0.0,0.0,0.0,0.0,0.0,0.0,0.0,0.0,0.0,0.0,0.0,0.0,0.0,0.0,0.0,0.0,0.0,0.0,0.0,0.0,0.0,0.0,0.0,0.0,0.0,0.0,0.0,0.0,0.0,0.0,0.0,0.0,0.0,0.0,0.0,0.0,0.0,0.0,0.0,0.0,0.0,0.0,0.0,0.0,0.0,0.0,0.0,0.0,0.0,0.0,0.0,0.0,0.0,0.0,0.0,0.0,0.0,0.0,0.0,0.0,0.0,0.0,0.0,0.0,0.0,0.0,0.0,0.0,0.0,0.0,0.0,0.0,0.0,0.0,0.0,0.0,0.0,0.0,0.0,0.0,0.0,0.0,0.0,0.0,0.0,0.0,0.0,0.0,0.0,0.0,0.0,0.0,0.0,0.0,0.0,0.0,0.0,0.0,0.0,0.0,0.0,0.0,0.0,0.0,0.0,0.0,0.0,0.0,0.0,0.0,0.0,0.0,0.0,0.0,0.0,0.0,0.0,0.0,0.0,0.0,0.0,0.0,0.0,0.0,0.0,0.0,0.0,0.0,0.0,0.0,0.0,0.0,0.0,0.0,0.0,0.0,0.0,0.0,0.0,0.0,0.0,0.0,0.0,0.0,0.0,0.0,0.0,0.0,0.0,0.0,0.0,0.0,0.0,0.0,0.0,0.0,0.0,0.0,0.0,0.0,0.0,0.0,0.0,0.0,0.0,0.0,0.0,0.0,0.0,0.0,0.0,0.0,0.0,0.0,0.0,0.0,0.0,0.0,0.0,0.0,0.0,0.0,0.0,0.0,0.0,0.0,0.0,0.0,0.0,0.0,0.0,0.0,0.0,0.0,0.0,0.0,0.0,0.0,0.0,0.0,0.0,0.0,0.0,0.0,0.0,0.0,0.0,0.0,0.0,0.0,0.0,0.0,0.0,0.0,0.0,0.0,0.0,0.0,0.0,0.0,0.0,0.0,0.0,0.0,0.0,0.0,0.0,0.0,0.0,0.0,0.0,0.0,0.0,0.0,0.0,0.0,0.0,0.0,0.0,0.0,0.0,0.0,0.0,0.0,0.0,0.0,0.0,0.0,0.0,0.0,0.0,0.0,0.0,0.0,0.0,0.0,0.0,0.0,0.0,0.0,0.0,0.0,0.0,0.0,0.0,0.0,0.0,0.0,0.0,0.0,0.0,0.0,0.0,0.0,0.0,0.0,0.0,0.0,0.0,0.0,0.0,0.0,0.0,0.0,0.0,0.0,0.0,0.0,0.0,0.0,0.0,0.0,0.0,0.0,0.0,0.0,0.0,0.0,0.0,0.0,0.0,0.0,0.0,0.0,0.0,0.0,0.0,0.0,0.0,0.0,0.0,0.0,0.0,0.0,0.0,0.0,0.0,0.0,0.0,0.0,0.0,0.0,0.0,0.0,0.0,0.0,0.0,0.0,0.0,0.0,0.0,0.0,0.0,0.0,0.0,0.0,0.0,0.0,0.0,0.0,0.0,0.0,0.0,0.0,0.0,0.0,0.0,0.0,0.0,0.0,0.0,0.0,0.0,0.0,0.0,0.0,0.0,0.0,0.0,0.0,0.0,0.0,0.0,0.0,0.0,0.0,0.0,0.0,0.0,0.0,0.0,0.0,0.0,0.0,0.0,0.0,0.0,0.0,0.0,0.0,0.0,0.0,0.0,0.0,0.0,0.0,0.0,0.0,0.0,0.0,0.0,0.0,0.0,0.0,0.0,0.0,0.0,0.0,0.0,0.0,0.0,0.0,0.0,0.0,0.0,0.0,0.0,0.0,0.0,3.5935,0.0,0.0,0.0,0.0,0.0,0.0,0.0,0.0,0.0,0.0,0.0,0.0,0.0,0.0,0.0,0.0,0.0,0.0,0.0,0.0,0.0,0.0,0.0,0.0,0.0,0.0,0.0,0.0,0.0,0.0,0.0,0.0,0.0,0.0,0.0,0.0,0.0,0.0,0.0,0.0,0.0,0.0,0.0,0.0,0.0,0.0,0.0,0.0,0.0,0.0,0.0,0.0,0.0,0.0,0.0,0.0,0.0,0.0,0.0,0.0,0.0,0.0,0.0,0.0,0.0,0.0,0.0,0.0,0.0,0.0,0.0,0.0,0.0,0.0,0.0,0.0,0.0,0.0,0.0,0.0,0.0,0.0,0.0,0.0,0.0,0.0,0.0,0.0,0.0,0.0,0.0,0.0,0.0,0.0,0.0,0.0,0.0,0.0,0.0,0.0,0.0,0.0,0.0,0.0,0.0,0.0,0.0,0.0,0.0,0.0,3.6394,3.7559,3.563,3.4942,3.5744,0.0,0.0,0.0,0.0,0.0,0.0,0.0,0.0,0.0,0.0,0.0,0.0,0.0,0.0,0.0,0.0,0.0,0.0,0.0,0.0,0.0,0.0,0.0,0.0,0.0,0.0,0.0,0.0,0.0,0.0,0.0,0.0,0.0,0.0,0.0,0.0,0.0,0.0,0.0,0.0,0.0,0.0,0.0,0.0,0.0,0.0,0.0,0.0,0.0,0.0,0.0,0.0,0.0,0.0,0.0,0.0,0.0,0.0,0.0,0.0,0.0,0.0,0.0,0.0,0.0,0.0,0.0,0.0,0.0,0.0,0.0,0.0,0.0,0.0,0.0,0.0,0.0,0.0,0.0,0.0,0.0,0.0,0.0,0.0,0.0,0.0,0.0,0.0,0.0,0.0,0.0,0.0,0.0,0.0,0.0,0.0,0.0,0.0,0.0,0.0,0.0,0.0,0.0,0.0,0.0,0.0,0.0,0.0,0.0,0.0,0.0,0.0,3.6394,3.5897,3.6317,0.0,0.0,0.0,0.0,0.0,0.0,0.0,0.0,0.0,0.0,0.0,0.0,0.0,0.0,0.0,0.0,0.0,0.0,0.0,0.0,0.0,0.0,0.0,0.0,0.0,0.0,0.0,0.0,0.0,0.0,0.0,0.0,0.0,0.0,0.0,0.0,0.0,0.0,0.0,0.0,0.0,0.0,0.0,0.0,0.0,0.0,0.0,0.0,0.0,0.0,0.0,0.0,0.0,0.0,0.0,0.0,0.0,0.0,0.0,0.0,0.0,0.0,0.0,0.0,0.0,0.0,0.0,0.0,0.0,0.0,0.0,0.0,0.0,0.0,0.0,0.0,0.0,0.0,0.0,0.0,0.0,0.0,0.0,0.0,0.0,0.0,0.0,0.0,0.0,0.0,0.0,0.0,0.0,0.0,0.0,0.0,0.0,0.0,0.0,0.0,0.0,0.0,0.0,0.0,0.0,0.0,0.0,0.0,0.0,0.0,3.9412,4.0979,4.0864,0.0,3.9775,0.0,0.0,0.0,0.0,0.0,0.0,0.0,0.0,0.0,0.0,0.0,0.0,0.0,0.0,0.0,0.0,0.0,0.0,0.0,0.0,0.0,0.0,0.0,0.0,0.0,0.0,0.0,0.0,0.0,0.0,0.0,0.0,0.0,0.0,0.0,0.0,0.0,0.0,0.0,0.0,0.0,0.0,0.0,0.0,0.0,0.0,0.0,0.0,0.0,0.0,0.0,0.0,0.0,0.0,0.0,0.0,0.0,0.0,0.0,0.0,0.0,0.0,0.0,0.0,0.0,0.0,0.0,0.0,0.0,0.0,0.0,0.0,0.0,0.0,0.0,0.0,0.0,0.0,0.0,0.0,0.0,0.0,0.0,0.0,0.0,0.0,0.0,0.0,0.0,0.0,0.0,0.0,0.0,0.0,0.0,0.0,0.0,0.0,0.0,0.0,0.0,0.0,0.0,0.0,0.0,0.0,0.0,0.0,0.0,0.0,3.8553,4.075,4.0787,3.9927,0.0,0.0,0.0,0.0,0.0,0.0,0.0,0.0,0.0,0.0,0.0,0.0,0.0,0.0,0.0,0.0,0.0,0.0,0.0,0.0,0.0,0.0,0.0,0.0,0.0,0.0,0.0,0.0,0.0,0.0,0.0,0.0,0.0,0.0,0.0,0.0,0.0,0.0,0.0,0.0,0.0,0.0,0.0,0.0,0.0,0.0,0.0,0.0,0.0,0.0,0.0,0.0,0.0,0.0,0.0,0.0,0.0,0.0,0.0,0.0,0.0,0.0,0.0,0.0,0.0,0.0,0.0,0.0,0.0,0.0,0.0,0.0,0.0,0.0,0.0,0.0,0.0,0.0,0.0,0.0,0.0,0.0,0.0,0.0,0.0,0.0,0.0,0.0,0.0,0.0,0.0,0.0,0.0,0.0,0.0,0.0,0.0,0.0,0.0,0.0,0.0,0.0,0.0,0.0,0.0,0.0,0.0,0.0,0.0,0.0,3.7922,3.9088,4.1437,4.0327,3.895,3.7613,0.0,0.0,0.0,0.0,0.0,0.0,0.0,0.0,0.0,0.0,0.0,0.0,0.0,0.0,0.0,0.0,0.0,0.0,0.0,0.0,0.0,0.0,0.0,0.0,0.0,0.0,0.0,0.0,0.0,0.0,0.0,0.0,0.0,0.0,0.0,0.0,0.0,0.0,0.0,0.0,0.0,0.0,0.0,0.0,0.0,0.0,0.0,0.0,0.0,0.0,0.0,0.0,0.0,0.0,0.0,0.0,0.0,0.0,0.0,0.0,0.0,0.0,0.0,0.0,0.0,0.0,0.0,0.0,0.0,0.0,0.0,0.0,0.0,0.0,0.0,0.0,0.0,0.0,0.0,0.0,0.0,0.0,0.0,0.0,0.0,0.0,0.0,0.0,0.0,0.0,0.0,0.0,0.0,0.0,0.0,0.0,0.0,0.0,0.0,0.0,0.0,0.0,0.0,0.0,0.0,0.0,0.0,0.0,4.4322,4.2374,4.245,4.4746,4.0441,3.8621,0.0,0.0,0.0,0.0,0.0,0.0,0.0,0.0,0.0,0.0,0.0,0.0,0.0,0.0,0.0,0.0,0.0,0.0,0.0,0.0,0.0,0.0,0.0,0.0,0.0,0.0,0.0,0.0,0.0,0.0,0.0,0.0,0.0,0.0,0.0,0.0,0.0,0.0,0.0,0.0,0.0,0.0,0.0,0.0,0.0,0.0,0.0,0.0,0.0,0.0,0.0,0.0,0.0,0.0,0.0,0.0,0.0,0.0,0.0,0.0,0.0,0.0,0.0,0.0,0.0,0.0,0.0,0.0,0.0,0.0,0.0,0.0,0.0,0.0,0.0,0.0,0.0,0.0,0.0,0.0,0.0,0.0,0.0,0.0,0.0,0.0,0.0,0.0,0.0,0.0,0.0,0.0,0.0,0.0,0.0,0.0,0.0,0.0,0.0,0.0,0.0,0.0,0.0,0.0,0.0,0.0,0.0,0.0,0.0,3.8744,4.0043,4.1399,4.2699,4.0613,3.9749,0.0,0.0,0.0,0.0,0.0,0.0,0.0,0.0,0.0,0.0,0.0,0.0,0.0,0.0,0.0,0.0,0.0,0.0,0.0,0.0,0.0,0.0,0.0,0.0,0.0,0.0,0.0,0.0,0.0,0.0,0.0,0.0,0.0,0.0,0.0,0.0,0.0,0.0,0.0,0.0,0.0,0.0,0.0,0.0,0.0,0.0,0.0,0.0,0.0,0.0,0.0,0.0,0.0,0.0,0.0,0.0,0.0,0.0,0.0,0.0,0.0,0.0,0.0,0.0,0.0,0.0,0.0,0.0,0.0,0.0,0.0,0.0,0.0,0.0,0.0,0.0,0.0,0.0,0.0,0.0,0.0,0.0,0.0,0.0,0.0,0.0,0.0,0.0,0.0,0.0,0.0,0.0,0.0,0.0,0.0,0.0,0.0,0.0,0.0,0.0,0.0,0.0,0.0,0.0,0.0,0.0,0.0,0.0,0.0,3.691,0.0,4.1686,4.1112,4.0382,3.9576,0.0,0.0,0.0,0.0,0.0,0.0,0.0,0.0,0.0,0.0,0.0,0.0,0.0,0.0,0.0,0.0,0.0,0.0,0.0,0.0,0.0,0.0,0.0,0.0,0.0,0.0,0.0,0.0,0.0,0.0,0.0,0.0,0.0,0.0,0.0,0.0,0.0,0.0,0.0,0.0,0.0,0.0,0.0,0.0,0.0,0.0,0.0,0.0,0.0,0.0,0.0,0.0,0.0,0.0,0.0,0.0,0.0,0.0,0.0,0.0,0.0,0.0,0.0,0.0,0.0,0.0,0.0,0.0,0.0,0.0,0.0,0.0,0.0,0.0,0.0,0.0,0.0,0.0,0.0,0.0,0.0,0.0,0.0,0.0,0.0,0.0,0.0,0.0,0.0,0.0,0.0,0.0,0.0,0.0,0.0,0.0,0.0,0.0,0.0,0.0,0.0,0.0,0.0,0.0,0.0,0.0,0.0,0.0,3.6871,4.01,4.3291,4.3406,4.0479,3.9503,3.7948,0.0,0.0,0.0,0.0,0.0,0.0,0.0,0.0,0.0,0.0,0.0,0.0,0.0,0.0,0.0,0.0,0.0,0.0,0.0,0.0,0.0,0.0,0.0,0.0,0.0,0.0,0.0,0.0,0.0,0.0,0.0,0.0,0.0,0.0,0.0,0.0,0.0,0.0,0.0,0.0,0.0,0.0,0.0,0.0,0.0,0.0,0.0,0.0,0.0,0.0,0.0,0.0,0.0,0.0,0.0,0.0,0.0,0.0,0.0,0.0,0.0,0.0,0.0,0.0,0.0,0.0,0.0,0.0,0.0,0.0,0.0,0.0,0.0,0.0,0.0,0.0,0.0,0.0,0.0,0.0,0.0,0.0,0.0,0.0,0.0,0.0,0.0,0.0,0.0,0.0,0.0,0.0,0.0,0.0,0.0,0.0,0.0,0.0,0.0,0.0,0.0,0.0,0.0,0.0,0.0,0.0,0.0,0.0,0.0,3.6924,3.9545,4.1571,4.2642,3.872,3.8029,0.0,0.0,0.0,0.0,0.0,0.0,0.0,0.0,0.0,0.0,0.0,0.0,0.0,0.0,0.0,0.0,0.0,0.0,0.0,0.0,0.0,0.0,0.0,0.0,0.0,0.0,0.0,0.0,0.0,0.0,0.0,0.0,0.0,0.0,0.0,0.0,0.0,0.0,0.0,0.0,0.0,0.0,0.0,0.0,0.0,0.0,0.0,0.0,0.0,0.0,0.0,0.0,0.0,0.0,0.0,0.0,0.0,0.0,0.0,0.0,0.0,0.0,0.0,0.0,0.0,0.0,0.0,0.0,0.0,0.0,0.0,0.0,0.0,0.0,0.0,0.0,0.0,0.0,0.0,0.0,0.0,0.0,0.0,0.0,0.0,0.0,0.0,0.0,0.0,0.0,0.0,0.0,0.0,0.0,0.0,0.0,0.0,0.0,0.0,0.0,0.0,0.0,0.0,0.0,0.0,0.0,0.0,0.0,0.0,3.9256,4.1476,4.3138,4.3918,4.0138,3.9066,4.1017,0.0,0.0,0.0,0.0,0.0,0.0,0.0,0.0,0.0,0.0,0.0,0.0,0.0,0.0,0.0,0.0,0.0,0.0,0.0,0.0,0.0,0.0,0.0,0.0,0.0,0.0,0.0,0.0,0.0,0.0,0.0,0.0,0.0,0.0,0.0,0.0,0.0,0.0,0.0,0.0,0.0,0.0,0.0,0.0,0.0,0.0,0.0,0.0,0.0,0.0,0.0,0.0,0.0,0.0,0.0,0.0,0.0,0.0,0.0,0.0,0.0,0.0,0.0,0.0,0.0,0.0,0.0,0.0,0.0,0.0,0.0,0.0,0.0,0.0,0.0,0.0,0.0,0.0,0.0,0.0,0.0,0.0,0.0,0.0,0.0,0.0,0.0,0.0,0.0,0.0,0.0,0.0,0.0,0.0,0.0,0.0,0.0,0.0,0.0,0.0,0.0,0.0,0.0,0.0,0.0,0.0,0.0,0.0,4.5799,4.8414,4.8082,4.4582,4.3326,4.0921,0.0,0.0,0.0,0.0,0.0,0.0,0.0,0.0,0.0,0.0,0.0,0.0,0.0,0.0,0.0,0.0,0.0,0.0,0.0,0.0,0.0,0.0,0.0,0.0,0.0,0.0,0.0,0.0,0.0,0.0,0.0,0.0,0.0,0.0,0.0,0.0,0.0,0.0,0.0,0.0,0.0,0.0,0.0,0.0,0.0,0.0,0.0,0.0,0.0,0.0,0.0,0.0,0.0,0.0,0.0,0.0,0.0,0.0,0.0,0.0,0.0,0.0,0.0,0.0,0.0,0.0,0.0,0.0,0.0,0.0,0.0,0.0,0.0,0.0,0.0,0.0,0.0,0.0,0.0,0.0,0.0,0.0,0.0,0.0,0.0,0.0,0.0,0.0,0.0,0.0,0.0,0.0,0.0,0.0,0.0,0.0,0.0,0.0,0.0,0.0,0.0,0.0,0.0,0.0,0.0,0.0,0.0,0.0,0.0,5.0964,5.5772,5.579,5.0437,4.5401,4.2465,0.0,0.0,0.0,0.0,0.0,0.0,0.0,0.0,0.0,0.0,0.0,0.0,0.0,0.0,0.0,0.0,0.0,0.0,0.0,0.0,0.0,0.0,0.0,0.0,0.0,0.0,0.0,0.0,0.0,0.0,0.0,0.0,0.0,0.0,0.0,0.0,0.0,0.0,0.0,0.0,0.0,0.0,0.0,0.0,0.0,0.0,0.0,0.0,0.0,0.0,0.0,0.0,0.0,0.0,0.0,0.0,0.0,0.0,0.0,0.0,0.0,0.0,0.0,0.0,0.0,0.0,0.0,0.0,0.0,0.0,0.0,0.0,0.0,0.0,0.0,0.0,0.0,0.0,0.0,0.0,0.0,0.0,0.0,0.0,0.0,0.0,0.0,0.0,0.0,0.0,0.0,0.0,0.0,0.0,0.0,0.0,0.0,0.0,0.0,0.0,0.0,0.0,0.0,0.0,0.0,0.0,0.0,0.0,5.0386,5.4956,6.0733,6.183,5.7859,5.1091,4.6081,0.0,0.0,0.0,0.0,0.0,0.0,0.0,0.0,0.0,0.0,0.0,0.0,0.0,0.0,0.0,0.0,0.0,0.0,0.0,0.0,0.0,0.0,0.0,0.0,0.0,0.0,0.0,0.0,0.0,0.0,0.0,0.0,0.0,0.0,0.0,0.0,0.0,0.0,0.0,0.0,0.0,0.0,0.0,0.0,0.0,0.0,0.0,0.0,0.0,0.0,0.0,0.0,0.0,0.0,0.0,0.0,0.0,0.0,0.0,0.0,0.0,0.0,0.0,0.0,0.0,0.0,0.0,0.0,0.0,0.0,0.0,0.0,0.0,0.0,0.0,0.0,0.0,0.0,0.0,0.0,0.0,0.0,0.0,0.0,0.0,0.0,0.0,0.0,0.0,0.0,0.0,0.0,0.0,0.0,0.0,0.0,0.0,0.0,0.0,0.0,0.0,0.0,0.0,0.0,0.0,0.0,0.0,0.0,5.3339,5.8459,6.4199,6.6573,6.511,5.7891,5.0399,0.0,0.0,0.0,0.0,0.0,0.0,0.0,0.0,0.0,0.0,0.0,0.0,0.0,0.0,0.0,0.0,0.0,0.0,0.0,0.0,0.0,0.0,0.0,0.0,0.0,0.0,0.0,0.0,0.0,0.0,0.0,0.0,0.0,0.0,0.0,0.0,0.0,0.0,0.0,0.0,0.0,0.0,0.0,0.0,0.0,0.0,0.0,0.0,0.0,0.0,0.0,0.0,0.0,0.0,0.0,0.0,0.0,0.0,0.0,0.0,0.0,0.0,0.0,0.0,0.0,0.0,0.0,0.0,0.0,0.0,0.0,0.0,0.0,0.0,0.0,0.0,0.0,0.0,0.0,0.0,0.0,0.0,0.0,0.0,0.0,0.0,0.0,0.0,0.0,0.0,0.0,0.0,0.0,0.0,0.0,0.0,0.0,0.0,0.0,0.0,0.0,0.0,0.0,0.0,0.0,0.0,0.0,0.0,5.7098,6.2777,6.7788,6.9579,6.7842,5.8185,5.0577,0.0,0.0,0.0,0.0,0.0,0.0,0.0,0.0,0.0,0.0,0.0,0.0,0.0,0.0,0.0,0.0,0.0,0.0,0.0,0.0,0.0,0.0,0.0,0.0,0.0,0.0,0.0,0.0,0.0,0.0,0.0,0.0,0.0,0.0,0.0,0.0,0.0,0.0,0.0,0.0,0.0,0.0,0.0,0.0,0.0,0.0,0.0,0.0,2.6698,0.0,0.0,0.0,0.0,0.0,0.0,0.0,0.0,0.0,0.0,0.0,0.0,0.0,0.0,0.0,0.0,0.0,0.0,0.0,0.0,0.0,0.0,0.0,0.0,0.0,0.0,0.0,0.0,0.0,0.0,0.0,0.0,0.0,0.0,0.0,0.0,0.0,0.0,0.0,0.0,0.0,0.0,0.0,0.0,0.0,0.0,0.0,0.0,0.0,0.0,0.0,0.0,0.0,0.0,0.0,0.0,0.0,0.0,0.0,5.8265,6.4048,6.8136,6.9714,6.8318,5.9298,5.184,0.0,0.0,0.0,0.0,0.0,0.0,0.0,0.0,0.0,0.0,0.0,0.0,0.0,0.0,0.0,0.0,0.0,0.0,0.0,0.0,0.0,0.0,0.0,0.0,0.0,0.0,0.0,0.0,0.0,0.0,0.0,0.0,0.0,0.0,0.0,0.0,0.0,0.0,0.0,0.0,0.0,0.0,0.0,0.0,0.0,0.0,0.0,0.0,0.0,0.0,0.0,0.0,0.0,0.0,0.0,0.0,0.0,0.0,0.0,0.0,0.0,0.0,0.0,0.0,0.0,0.0,0.0,0.0,0.0,0.0,0.0,0.0,0.0,0.0,0.0,0.0,0.0,0.0,0.0,0.0,0.0,0.0,0.0,0.0,0.0,0.0,0.0,0.0,0.0,0.0,0.0,0.0,0.0,0.0,0.0,0.0,0.0,0.0,0.0,0.0,0.0,0.0,0.0,0.0,0.0,0.0,0.0,5.246,5.8437,6.4554,6.755,6.8842,6.8318,6.0448,5.3395,4.7626,0.0,0.0,0.0,0.0,0.0,0.0,0.0,0.0,0.0,0.0,0.0,0.0,0.0,0.0,0.0,0.0,0.0,0.0,0.0,0.0,0.0,0.0,0.0,0.0,0.0,0.0,0.0,0.0,0.0,0.0,0.0,0.0,0.0,0.0,0.0,0.0,0.0,0.0,2.711,2.7123,0.0,0.0,0.0,0.0,0.0,0.0,0.0,0.0,2.6202,0.0,0.0,0.0,0.0,0.0,0.0,0.0,0.0,0.0,0.0,0.0,0.0,0.0,0.0,0.0,0.0,0.0,0.0,0.0,0.0,0.0,0.0,0.0,0.0,0.0,0.0,0.0,0.0,0.0,0.0,0.0,0.0,0.0,0.0,0.0,0.0,0.0,0.0,0.0,0.0,0.0,0.0,0.0,0.0,0.0,0.0,0.0,0.0,0.0,0.0,0.0,0.0,0.0,0.0,0.0,0.0,5.2756,5.4489,5.9205,6.7056,6.8894,6.9075,6.7483,6.0594,5.4137,4.8334,0.0,0.0,0.0,0.0,0.0,0.0,0.0,0.0,0.0,0.0,0.0,0.0,0.0,0.0,0.0,0.0,0.0,0.0,0.0,0.0,0.0,0.0,0.0,0.0,0.0,0.0,0.0,0.0,0.0,0.0,0.0,0.0,0.0,0.0,0.0,0.0,0.0,0.0,0.0,2.9361,2.9591,0.0,0.0,0.0,0.0,0.0,0.0,0.0,0.0,2.6542,0.0,0.0,0.0,0.0,0.0,0.0,0.0,0.0,0.0,0.0,0.0,0.0,0.0,0.0,0.0,0.0,0.0,0.0,0.0,0.0,0.0,0.0,0.0,0.0,0.0,0.0,0.0,0.0,0.0,0.0,0.0,0.0,0.0,0.0,0.0,0.0,0.0,0.0,0.0,0.0,0.0,0.0,0.0,0.0,0.0,0.0,0.0,0.0,0.0,0.0,0.0,0.0,0.0,0.0,0.0,5.2105,5.5667,6.0495,6.6853,6.7664,6.7277,6.5841,5.7601,5.1638,0.0,0.0,0.0,0.0,0.0,0.0,0.0,0.0,0.0,0.0,0.0,0.0,0.0,0.0,0.0,0.0,0.0,0.0,0.0,0.0,0.0,0.0,0.0,0.0,0.0,0.0,0.0,0.0,0.0,0.0,0.0,0.0,0.0,0.0,0.0,0.0,0.0,0.0,0.0,0.0,3.0279,3.0736,2.9806,0.0,0.0,0.0,0.0,0.0,0.0,2.7003,2.6636,0.0,0.0,0.0,0.0,0.0,0.0,0.0,0.0,0.0,0.0,0.0,0.0,0.0,0.0,0.0,0.0,0.0,0.0,0.0,0.0,0.0,0.0,0.0,0.0,0.0,0.0,0.0,0.0,0.0,0.0,0.0,0.0,0.0,0.0,0.0,0.0,0.0,0.0,0.0,0.0,0.0,0.0,0.0,0.0,0.0,0.0,0.0,0.0,0.0,0.0,0.0,0.0,0.0,0.0,0.0,5.0567,5.5768,6.0953,6.5846,6.6113,6.5461,6.3992,5.4966,4.9464,0.0,0.0,0.0,0.0,0.0,0.0,0.0,0.0,0.0,0.0,0.0,0.0,0.0,0.0,0.0,0.0,0.0,0.0,0.0,0.0,0.0,0.0,0.0,0.0,0.0,0.0,0.0,0.0,0.0,0.0,0.0,0.0,0.0,0.0,0.0,0.0,0.0,0.0,0.0,0.0,0.0,3.16,3.0611,3.0261,0.0,0.0,0.0,0.0,2.6461,2.7494,0.0,0.0,0.0,0.0,0.0,0.0,0.0,0.0,0.0,0.0,0.0,0.0,0.0,0.0,0.0,0.0,0.0,0.0,0.0,0.0,0.0,0.0,0.0,0.0,0.0,0.0,0.0,0.0,0.0,0.0,0.0,0.0,0.0,0.0,0.0,0.0,0.0,0.0,0.0,0.0,0.0,0.0,0.0,0.0,0.0,0.0,0.0,0.0,0.0,0.0,0.0,0.0,0.0,0.0,0.0,0.0,5.0488,5.41,5.8873,6.4894,6.5809,6.4931,6.237,5.5508,5.0417,0.0,0.0,0.0,0.0,0.0,0.0,0.0,0.0,0.0,0.0,0.0,0.0,0.0,0.0,0.0,0.0,0.0,0.0,0.0,0.0,0.0,0.0,0.0,0.0,0.0,0.0,0.0,0.0,0.0,0.0,0.0,0.0,0.0,0.0,0.0,0.0,0.0,0.0,0.0,0.0,0.0,3.2447,3.1552,3.0674,2.9475,0.0,0.0,2.8971,2.8054,3.0757,0.0,0.0,0.0,0.0,0.0,0.0,0.0,0.0,0.0,0.0,0.0,0.0,0.0,0.0,0.0,0.0,0.0,0.0,0.0,0.0,0.0,0.0,0.0,0.0,0.0,0.0,0.0,0.0,0.0,0.0,0.0,0.0,0.0,0.0,0.0,0.0,0.0,0.0,0.0,0.0,0.0,0.0,0.0,0.0,0.0,0.0,0.0,0.0,0.0,0.0,0.0,0.0,0.0,0.0,0.0,4.4662,4.9909,5.4925,5.9493,6.3394,6.3877,6.2889,6.0547,5.1412,4.6296,0.0,0.0,0.0,0.0,0.0,0.0,0.0,0.0,0.0,0.0,0.0,0.0,0.0,0.0,0.0,0.0,0.0,0.0,0.0,0.0,0.0,0.0,0.0,0.0,0.0,0.0,0.0,0.0,0.0,0.0,0.0,0.0,0.0,0.0,0.0,0.0,0.0,0.0,0.0,0.0,0.0,0.0,3.106,3.1546,0.0,0.0,0.0,2.9846,2.8866,0.0,0.0,0.0,0.0,0.0,0.0,0.0,0.0,0.0,0.0,0.0,0.0,0.0,0.0,0.0,0.0,0.0,0.0,0.0,0.0,0.0,0.0,0.0,0.0,0.0,0.0,0.0,0.0,0.0,0.0,0.0,0.0,0.0,0.0,0.0,0.0,0.0,0.0,0.0,0.0,0.0,0.0,0.0,0.0,0.0,0.0,0.0,0.0,0.0,0.0,0.0,0.0,0.0,0.0,0.0,0.0,0.0,4.9425,5.5384,5.9769,6.2288,6.2178,6.0985,5.8632,4.8961,0.0,0.0,0.0,0.0,0.0,0.0,0.0,0.0,0.0,0.0,0.0,0.0,0.0,0.0,0.0,0.0,0.0,0.0,0.0,0.0,0.0,0.0,0.0,0.0,0.0,0.0,0.0,2.5783,0.0,0.0,0.0,0.0,0.0,0.0,0.0,0.0,0.0,0.0,0.0,0.0,0.0,0.0,3.2922,3.0548,3.2038,3.2746,0.0,0.0,3.0371,2.9747,3.1458,3.1476,0.0,0.0,0.0,0.0,0.0,0.0,0.0,0.0,0.0,0.0,0.0,0.0,0.0,0.0,0.0,0.0,0.0,0.0,0.0,0.0,0.0,0.0,0.0,0.0,0.0,0.0,0.0,0.0,0.0,0.0,0.0,0.0,0.0,0.0,0.0,0.0,0.0,0.0,0.0,0.0,0.0,0.0,0.0,0.0,0.0,0.0,0.0,0.0,0.0,0.0,0.0,0.0,0.0,0.0,0.0,4.9406,5.4254,5.8625,6.2212,6.1591,5.987,5.7092,5.1093,4.6139,0.0,0.0,0.0,0.0,0.0,0.0,0.0,0.0,0.0,0.0,0.0,0.0,0.0,0.0,0.0,0.0,0.0,0.0,0.0,0.0,0.0,0.0,0.0,0.0,0.0,0.0,0.0,0.0,0.0,0.0,0.0,0.0,0.0,0.0,0.0,0.0,0.0,0.0,0.0,0.0,0.0,3.2264,3.0535,3.1546,3.2654,0.0,0.0,3.0436,3.1047,3.4196,3.46,2.8584,0.0,0.0,0.0,0.0,0.0,0.0,0.0,0.0,0.0,0.0,0.0,0.0,0.0,0.0,0.0,0.0,0.0,0.0,0.0,0.0,0.0,0.0,0.0,0.0,0.0,0.0,0.0,0.0,0.0,0.0,0.0,0.0,0.0,0.0,0.0,0.0,0.0,0.0,0.0,0.0,0.0,0.0,0.0,0.0,0.0,0.0,0.0,0.0,0.0,0.0,0.0,0.0,0.0,4.4627,4.7885,5.3527,5.7596,5.9904,5.9635,5.837,5.6155,4.957,4.4097,0.0,0.0,0.0,0.0,0.0,0.0,0.0,0.0,0.0,0.0,0.0,0.0,0.0,0.0,0.0,0.0,0.0,0.0,0.0,0.0,0.0,0.0,0.0,0.0,0.0,0.0,0.0,0.0,2.6176,2.6076,2.6111,0.0,0.0,0.0,0.0,0.0,0.0,0.0,0.0,0.0,0.0,3.1827,3.2103,3.2976,0.0,0.0,3.2244,3.1521,3.1287,3.2429,3.191,2.7638,2.7827,0.0,0.0,0.0,0.0,0.0,0.0,0.0,0.0,0.0,0.0,0.0,0.0,0.0,0.0,0.0,0.0,0.0,0.0,0.0,0.0,0.0,0.0,0.0,0.0,0.0,0.0,0.0,0.0,0.0,0.0,0.0,0.0,0.0,0.0,0.0,0.0,0.0,0.0,0.0,0.0,0.0,0.0,0.0,0.0,0.0,0.0,0.0,0.0,0.0,0.0,0.0,0.0,4.4365,4.6885,5.2681,5.6482,5.8218,5.7894,5.6805,5.4784,4.8901,4.3638,0.0,0.0,0.0,0.0,0.0,0.0,0.0,0.0,0.0,0.0,0.0,0.0,0.0,0.0,0.0,0.0,0.0,0.0,0.0,0.0,0.0,0.0,0.0,0.0,0.0,0.0,0.0,0.0,2.6398,2.6272,2.5993,0.0,0.0,0.0,0.0,0.0,0.0,0.0,0.0,0.0,0.0,3.16,3.2165,3.2994,3.3324,3.2669,3.1943,3.1404,3.1243,3.0937,2.9846,2.7281,0.0,0.0,0.0,0.0,0.0,0.0,0.0,0.0,0.0,0.0,0.0,0.0,0.0,0.0,0.0,0.0,0.0,0.0,0.0,0.0,0.0,0.0,0.0,0.0,0.0,0.0,0.0,0.0,0.0,0.0,0.0,0.0,0.0,0.0,0.0,0.0,0.0,0.0,0.0,0.0,0.0,0.0,0.0,0.0,0.0,0.0,0.0,0.0,0.0,0.0,0.0,0.0,0.0,4.4345,4.6885,5.1702,5.5225,5.7308,5.6588,5.5221,5.3297,4.9884,4.5801,4.0911,0.0,0.0,0.0,0.0,0.0,0.0,0.0,0.0,0.0,0.0,0.0,0.0,0.0,0.0,0.0,0.0,0.0,0.0,0.0,0.0,0.0,0.0,0.0,0.0,0.0,0.0,2.5829,2.7128,2.7698,0.0,0.0,0.0,0.0,0.0,0.0,0.0,0.0,0.0,0.0,2.9619,3.1486,3.0019,3.1013,3.1896,3.179,3.0286,2.9599,3.0979,3.0399,2.9323,0.0,0.0,0.0,0.0,0.0,0.0,0.0,0.0,0.0,0.0,0.0,0.0,0.0,0.0,0.0,0.0,0.0,0.0,0.0,0.0,0.0,0.0,0.0,0.0,0.0,0.0,0.0,0.0,4.2011,0.0,0.0,0.0,0.0,0.0,0.0,0.0,0.0,0.0,0.0,0.0,4.1858,4.1342,0.0,0.0,0.0,0.0,0.0,0.0,0.0,0.0,0.0,0.0,0.0,0.0,4.4052,4.6179,5.1133,5.4667,5.6436,5.5516,5.4411,5.3222,4.994,4.5369,3.9406,0.0,0.0,0.0,0.0,0.0,0.0,0.0,0.0,0.0,0.0,0.0,0.0,0.0,0.0,0.0,0.0,0.0,0.0,0.0,0.0,0.0,0.0,0.0,0.0,0.0,2.7013,0.0,0.0,0.0,0.0,0.0,0.0,0.0,0.0,0.0,0.0,0.0,2.5986,2.7334,2.7735,2.8054,2.844,2.9421,3.0243,0.0,0.0,0.0,0.0,0.0,0.0,0.0,0.0,0.0,0.0,0.0,0.0,0.0,0.0,2.6358,2.4598,2.5133,2.593,2.6043,0.0,0.0,0.0,0.0,0.0,0.0,0.0,0.0,0.0,0.0,0.0,0.0,0.0,0.0,0.0,0.0,4.3291,0.0,0.0,0.0,0.0,0.0,0.0,0.0,0.0,4.18,4.2851,4.3577,4.3042,4.308,0.0,4.2469,4.01,0.0,0.0,0.0,0.0,0.0,0.0,0.0,0.0,4.402,4.5226,5.0456,5.4,5.5454,5.4571,5.3649,5.27,4.8945,4.4636,3.9795,3.5518,3.2713,0.0,0.0,0.0,0.0,0.0,0.0,0.0,0.0,0.0,0.0,0.0,0.0,0.0,0.0,0.0,0.0,0.0,0.0,0.0,0.0,0.0,0.0,0.0,2.736,0.0,0.0,0.0,0.0,0.0,0.0,0.0,0.0,0.0,2.6371,2.6128,2.6446,2.8052,2.7513,2.6988,2.7091,0.0,0.0,0.0,0.0,0.0,0.0,0.0,2.5397,2.445,2.557,2.6891,2.7782,2.8101,2.816,2.7809,0.0,0.0,2.5342,2.574,2.6417,2.6463,2.6206,2.5902,2.5624,2.5113,2.4698,0.0,0.0,0.0,0.0,0.0,0.0,0.0,0.0,4.31,4.3539,0.0,4.3329,0.0,0.0,0.0,0.0,0.0,0.0,0.0,0.0,4.4647,4.5277,4.3138,4.3138,4.308,4.3042,4.3061,4.2565,4.1571,3.9202,0.0,0.0,0.0,0.0,0.0,0.0,4.4177,4.4364,4.9727,5.3215,5.4497,5.3748,5.2824,5.1743,4.7143,4.382,4.2036,3.8912,3.6475,3.4787,3.328,0.0,0.0,0.0,0.0,0.0,0.0,0.0,0.0,0.0,0.0,0.0,0.0,0.0,0.0,0.0,0.0,0.0,0.0,0.0,0.0,2.8597,0.0,0.0,0.0,0.0,0.0,0.0,0.0,0.0,0.0,0.0,2.6641,2.6995,2.7538,2.8229,0.0,0.0,0.0,0.0,2.8044,2.524,2.6041,2.6786,2.6042,2.6239,2.6454,2.6423,0.0,0.0,2.9849,2.8242,2.7131,2.7698,2.839,2.8288,2.6798,2.6477,2.6333,2.6224,2.5512,2.4651,2.4442,2.3784,2.2753,4.6092,0.0,0.0,0.0,0.0,4.5239,4.6481,4.8124,4.7551,4.7073,4.6634,4.5201,0.0,0.0,0.0,0.0,0.0,0.0,4.4244,4.48,4.6596,4.7264,4.6978,4.778,4.8143,4.8105,4.694,4.6233,4.5927,4.4055,4.1629,3.8665,0.0,0.0,0.0,0.0,4.3881,4.6856,4.9955,5.2305,5.3857,5.2322,5.1055,5.0203,4.7068,4.459,4.2956,4.0353,3.7924,3.5811,3.4639,0.0,0.0,0.0,0.0,0.0,0.0,0.0,0.0,0.0,0.0,0.0,0.0,0.0,0.0,0.0,0.0,0.0,0.0,0.0,2.9261,2.9071,2.857,0.0,0.0,0.0,0.0,0.0,0.0,0.0,0.0,0.0,2.8107,2.7256,2.6707,0.0,0.0,2.4998,2.4817,2.5894,2.6747,2.6851,0.0,0.0,0.0,2.7116,2.6307,2.574,2.782,2.9864,3.0717,3.1174,3.112,3.0212,3.0008,2.9493,2.8101,2.8595,2.8738,2.769,2.7518,2.7469,2.676,2.619,2.5836,5.133,4.8666,4.6795,4.6363,4.7073,4.7723,4.8869,5.0264,4.9786,4.927,4.8716,4.7398,4.5583,4.3443,4.2641,0.0,0.0,0.0,4.5717,4.7035,4.7933,4.8659,4.9328,4.9996,5.0302,5.0245,4.9289,4.8812,4.8754,4.6748,4.4513,4.1972,0.0,0.0,3.9898,4.2371,4.4805,4.7242,4.9789,5.1697,5.2866,5.1475,5.0147,4.9002,4.7181,4.5303,4.3351,4.1581,3.9354,3.6616,3.5735,3.3828,0.0,0.0,0.0,0.0,0.0,0.0,0.0,0.0,0.0,0.0,0.0,3.0023,2.8571,0.0,0.0,0.0,2.9978,2.9648,2.879,2.8454,0.0,0.0,0.0,0.0,0.0,0.0,0.0,2.6072,2.6628,2.7592,2.9181,2.8389,2.7972,2.8877,2.7364,2.6117,2.5931,0.0,2.7633,2.7846,2.8196,2.8522,2.886,2.8356,2.7817,2.7601,2.8791,3.0148,3.1002,3.191,3.2025,3.1099,3.0639,3.0036,2.8541,2.9354,2.9761,2.8005,2.7962,2.8058,2.7425,2.7373,2.7411,5.6276,5.5083,5.0355,4.8386,4.8563,5.013,5.076,5.0703,5.0722,5.0588,5.034,4.948,4.8105,4.6366,4.5698,0.0,0.0,4.6328,4.7169,4.8028,4.8812,4.9576,5.0302,5.0302,5.0302,5.0302,5.0302,5.0302,5.0168,4.7933,4.6748,4.6557,4.5051,4.3809,4.2986,4.5112,4.6268,4.6247,4.9239,5.1115,5.1686,5.0917,4.9734,4.8138,4.7256,4.5622,4.3219,4.2391,4.0452,3.7239,3.6496,3.4623,3.1259,0.0,0.0,0.0,0.0,0.0,0.0,0.0,0.0,0.0,0.0,0.0,0.0,0.0,0.0,0.0,2.9822,0.0,2.8268,2.7532,0.0,0.0,0.0,2.7183,2.7932,2.7234,2.7285,2.8727,0.0,0.0,0.0,0.0,3.0598,3.2185,3.1201,2.9802,2.8405,2.9455,2.9954,2.8614,2.9074,2.9507,2.9453,2.9496,2.9787,3.035,3.0278,3.0142,3.0831,3.1039,3.0892,3.0467,3.0368,2.9935,2.8641,2.901,2.9117,2.7546,2.7299,2.7255,2.7272,2.7289,2.7624,5.934,5.8929,5.6458,5.4728,5.3702,5.4677,5.4753,5.4199,5.4199,5.311,5.12,4.9748,4.7799,4.5602,4.6023,4.6577,4.7245,4.8086,4.8926,4.971,4.992,5.013,5.0302,5.0302,5.0302,5.0302,5.0302,5.0302,5.0283,4.971,4.8754,4.7494,4.6485,4.4939,4.291,4.3407,4.4914,4.7272,4.7934,4.8853,4.9978,4.9227,4.8307,4.7312,4.5951,4.406,4.1492,4.0696,3.9029,3.6424,3.6234,3.4696,3.1497,3.1092,0.0,0.0,0.0,0.0,0.0,0.0,0.0,0.0,0.0,3.0152,2.8772,0.0,2.9129,0.0,2.9686,3.0494,3.0828,3.0215,0.0,0.0,2.8477,2.8509,2.8066,2.8245,2.8319,2.8083,2.897,3.0016,3.1054,3.1518,3.2334,3.3707,3.1408,2.9613,2.9776,3.0674,3.1204,3.0909,3.1759,3.2192,3.0826,2.9653,2.9243,2.9961,2.9942,3.0106,3.0858,3.1003,3.0703,2.9812,2.9408,2.8838,2.783,2.7644,2.7599,2.7287,2.7646,2.8077,2.8094,2.8077,2.8334,6.0923,6.0313,5.9376,5.8249,5.7065,5.7141,5.6912,5.6492,5.6091,5.4925,5.3168,5.1123,4.9213,4.757,4.799,4.8468,4.8945,4.9404,4.9882,5.0321,5.0703,5.0665,5.0321,5.0703,5.0684,5.0302,5.0302,5.0302,5.0302,5.0302,4.9824,4.8926,4.8471,4.7176,4.513,4.4286,4.4798,4.6504,4.7062,4.8051,4.9396,4.8645,4.7473,4.6017,4.4414,4.207,3.8863,3.8048,3.667,3.4624,3.4651,3.3563,3.1,3.0271,2.8944,0.0,0.0,0.0,0.0,0.0,0.0,0.0,0.0,0.0,0.0,0.0,3.0217,0.0,2.9965,0.0,3.0727,2.9732,2.8935,2.874,2.9032,2.9197,2.9072,2.967,3.0021,2.9997,3.1092,3.2201,3.3028,3.3342,3.3734,3.4417,3.2754,3.1561,3.1869,3.2311,3.2562,3.2592,3.2918,3.272,3.1291,3.0005,2.9282,2.9644,2.9481,2.9427,2.9862,2.9934,2.962,2.8831,2.8511,2.818,2.7376,2.7276,2.7293,2.7421,2.7836,2.8132,2.795,2.8178,2.8627,6.1666,6.0561,6.0446,5.9892,5.9052,5.8459,5.8039,5.7676,5.6912,5.6091,5.5097,5.2766,5.1334,5.0627,5.0627,5.0627,5.0627,5.0627,5.0627,5.0665,5.141,5.1391,5.0779,5.1334,5.1314,5.0741,5.0436,5.0359,5.0474,5.0359,5.0187,4.9977,4.9996,4.9178,4.7578,4.6137,4.5328,4.5106,4.6486,4.7871,4.9145,4.8066,4.6384,4.4159,4.2365,3.9656,3.5894,3.4996,3.3887,3.2397,3.2478,3.1962,3.0606,2.9151,2.8107,0.0,2.6912,0.0,0.0,0.0,0.0,0.0,0.0,0.0,0.0,3.1745,3.1717,3.1903,3.0477,2.9629,2.9816,2.8338,2.7982,2.9383,2.9539,2.9815,3.0499,3.1181,3.1919,3.2783,3.3528,3.4292,3.4983,3.5018,3.4793,3.451,3.4195,3.3747,3.3621,3.3605,3.3615,3.3588,3.2711,3.1682,3.0921,3.0142,2.9572,2.9518,2.9119,2.8605,2.8659,2.8703,2.8476,2.8035,2.794,2.776,2.7307,2.7444,2.7654,2.7742,2.7961,2.8032,2.7818,2.81,2.8693,6.2241,6.1325,6.0676,5.9892,5.9166,5.9682,5.8727,5.6836,5.6664,5.5747,5.4295,5.3091,5.248,5.2327,5.2327,5.2327,5.2327,5.2327,5.2327,5.2327,5.2499,5.2772,5.2982,5.204,5.2098,5.2886,5.1181,5.0665,5.1353,5.0646,4.9614,4.8315,4.834,4.752,0.0,0.0,0.0,0.0,4.6426,4.7335,4.7514,4.4921,4.2631,4.0829,3.8609,0.0,3.3276,3.2393,3.155,3.0586,3.0746,0.0,0.0,0.0,0.0,0.0,0.0,0.0,0.0,0.0,0.0,0.0,3.1748,3.1651,3.1805,3.1258,3.1212,3.1889,3.1041,3.075,3.1436,3.06,3.0114,3.0418,3.0998,3.142,3.1482,3.2141,3.2919,3.3658,3.391,3.4292,3.5021,3.5037,3.4793,3.4435,3.4325,3.3821,3.2934,3.3313,3.3469,3.2783,3.1435,3.0384,3.014,2.9399,2.892,2.8793,2.8739,2.8587,2.8612,2.8662,2.8569,2.8174,2.8166,2.8129,2.7869,2.7869,2.7954,2.802,2.8075,2.8271,2.8787,2.881,2.912,6.2147,0.0,6.0561,5.9892,0.0,5.9587,5.8555,5.6606,5.7046,5.6071,5.4085,5.3645,5.3206,5.2785,5.2785,5.2575,5.2212,5.2212,5.1983,5.1601,5.2002,5.2447,5.2815,5.2007,5.1754,5.1969,5.0837,5.055,5.0913,5.0512,4.9882,4.906,4.9064,4.8665,4.784,4.7976,4.7567,4.6588,4.6986,4.7372,4.7598,4.5776,4.3567,4.1108,0.0,0.0,0.0,0.0,0.0,0.0,0.0,0.0,0.0,0.0,0.0,3.2018,3.2025,3.2166,3.2543,3.2986,3.3386,3.3749,3.3779,3.3401,3.2578,3.2951,3.3208,3.323,3.2472,3.198,3.1972,3.1215,3.069,3.0729,3.1413,3.1865,3.183,3.2769,3.3604,3.3961,3.435,3.4636,3.4598,3.4808,3.4415,3.3535,3.3486,3.321,3.2298,3.268,3.2719,3.1495,3.0563,2.9715,2.9315,2.8946,2.8587,2.8612,2.8619,2.8662,2.8644,2.8712,2.8644,2.8404,2.8378,2.8308,2.8102,2.8174,2.8299,2.8334,2.8438,2.8641,2.9086,2.9068,2.9248,6.2128,6.0618,6.0599,6.0026,5.9128,5.9262,5.8364,5.6855,0.0,0.0,0.0,5.4333,5.3932,5.3263,5.3263,5.29,5.2289,5.227,5.1811,5.1009,5.1716,5.2084,5.2107,5.1778,5.1295,5.0741,5.0608,5.0531,5.0531,5.0531,5.0455,5.0321,5.0302,5.0302,5.0255,5.0031,4.9475,4.8549,4.7504,4.7231,4.7765,4.6713,4.4688,4.1676,4.0063,3.7908,3.51,3.3429,3.2618,3.2717,3.2201,3.1988,3.2198,3.2302,3.182,3.0676,3.12,3.1891,3.2563,3.3293,3.433,3.5721,3.5791,3.518,3.3766,3.485,3.5197,3.4342,3.3526,3.271,3.1856,3.1137,3.069,3.071,3.1441,3.1922,3.2025,3.3063,3.3934,3.424,3.4652,3.4827,3.435,3.445,3.4112,3.2763,3.2601,3.2371,3.155,3.1689,3.1602,3.0378,2.9802,2.9344,2.883,2.863,2.8612,2.8637,2.8669,2.8718,2.8737,2.8785,2.8737,2.8518,2.8536,2.8474,2.8281,2.8456,2.8651,2.8651,2.8815,2.8975,2.9007,2.9127,2.9277,6.2987,6.1421,6.1421,6.0542,5.9166,5.9892,5.9262,5.7638,5.632,5.5556,5.5231,5.5231,5.5154,5.504,5.5021,5.4963,5.4887,5.4868,5.439,0.0,5.3683,5.3378,5.2676,5.1945,5.1907,5.2346,5.1754,5.1429,5.141,5.141,5.1066,5.0378,5.0302,5.0255,5.0133,4.9978,4.9787,4.9466,4.725,4.6137,4.6166,4.3472,4.1165,3.9332,3.7757,3.602,3.4228,3.3355,3.25,3.1864,3.255,3.3006,3.3044,3.3757,3.4356,3.4839,3.5014,3.513,3.5227,3.5391,3.5546,3.5779,3.5791,3.5674,3.546,3.4964,3.4342,3.3526,3.2749,3.1836,3.1001,3.0787,3.069,3.0749,3.1479,3.2197,3.2726,3.301,3.3667,3.4827,3.4546,3.4426,3.462,3.4093,3.3462,3.2983,3.2028,3.1305,3.0638,3.04,3.0325,2.9908,2.9294,2.8844,2.8705,2.8662,2.8694,2.8694,2.8761,2.8767,2.8785,2.8815,2.8791,2.8543,2.8718,2.8767,2.8583,2.8749,2.8863,2.8905,2.897,2.8975,2.8975,2.9028,2.9162,6.265,6.1593,6.1134,6.0504,5.9778,5.9262,5.8631,5.7753,5.6129,5.5403,5.5403,5.5403,5.5403,5.5403,5.5403,5.5154,5.4696,5.4696,5.4237,5.3416,5.3378,5.3168,5.2785,5.2422,5.2442,5.2747,5.1983,5.1601,5.1563,5.1123,5.0932,5.1009,5.1009,5.0708,5.0146,5.0057,4.9879,4.9673,4.8022,4.693,4.6478,4.47,4.2986,4.1404,4.0201,3.9107,3.8002,3.6752,3.6002,3.579,3.5789,3.5637,3.5301,3.5688,3.587,3.5801,3.581,3.5791,3.5791,3.5791,3.5791,3.5791,3.5791,3.5791,3.5791,3.5449,3.4672,3.3448,3.2924,3.2166,3.0865,3.069,3.069,3.069,3.146,3.2042,3.2377,3.2759,3.3217,3.3882,3.401,3.3777,3.3203,3.3204,3.2651,3.1595,3.055,2.9934,2.9622,2.9623,2.9628,2.9517,2.9182,2.8984,2.9016,2.8966,2.892,2.892,2.8887,2.8839,2.8839,2.8905,2.8881,2.881,2.8905,2.8947,2.8815,2.8905,2.8994,2.8975,2.8975,2.8975,2.8975,2.8975,2.9075,6.2494,6.1822,6.1019,6.0533,6.018,5.8519,5.7832,5.766,5.6038,5.5358,5.5403,5.5358,5.5377,5.5403,5.5358,5.4995,5.4448,5.439,5.3836,5.2862,5.2785,5.2709,5.2537,5.2537,5.2633,5.269,5.2174,5.1868,5.1792,5.12,5.12,5.1811,5.1868,5.14,5.0462,5.0393,5.0195,4.9769,4.8616,4.7701,4.7051,4.6156,4.5016,4.3642,4.3046,4.2419,4.1666,4.0288,3.958,3.9595,3.9007,3.8172,3.7143,3.725,3.691,3.5948,3.581,3.5791,3.5791,3.5791,3.5791,3.5791,3.5791,3.5791,3.5791,3.5791,3.5189,3.3818,3.3196,3.2477,3.1545,3.1118,3.1059,3.1273,3.1802,3.2333,3.2445,3.2566,3.2916,3.3281,3.3623,3.3203,3.247,3.2597,3.2127,3.0149,2.9206,2.8998,2.8998,2.9181,2.9272,2.9275,2.9233,2.9235,2.9359,2.9235,2.9126,2.9126,2.9007,2.8952,2.8929,2.8952,2.8947,2.8905,2.8947,2.8947,2.8929,2.897,2.8994,2.8975,2.8975,2.9017,2.9089,2.9021,2.8994,6.3371,6.2671,6.1803,6.0952,5.9977,5.8377,5.7673,5.7425,5.5807,5.5183,5.5358,5.5195,5.526,5.5377,5.5214,5.5183,5.5231,5.5288,5.4409,5.2977,5.2785,5.2442,5.1926,5.1811,5.2117,5.2766,5.2728,5.269,5.269,5.2556,5.2575,5.2671,5.269,5.2251,5.1539,5.1326,5.0888,5.0038,4.8351,4.7367,4.7127,4.576,4.4602,4.3824,4.3884,4.3597,4.2859,4.2182,4.142,4.0761,4.0621,3.9529,3.7511,3.7783,3.7462,3.5946,3.5791,3.5791,3.5791,3.5791,3.5829,3.5791,3.5829,3.5829,3.581,3.5793,3.5424,3.4412,3.3041,3.2509,3.2905,3.2322,3.2159,3.273,3.2881,3.3386,3.3688,3.2773,3.2682,3.5039,3.3681,3.3012,3.3264,3.2778,3.1563,2.9656,2.916,2.8975,2.8998,2.9185,2.9395,2.9494,2.9495,2.9457,2.9456,2.9295,2.9233,2.9209,2.9093,2.9017,2.8975,2.8975,2.8929,2.8858,2.8881,2.8929,2.8834,2.8834,2.8994,2.9044,2.9067,2.9089,2.9203,2.916,2.9067,6.2953,6.2777,6.144,6.0609,5.9965,5.8862,5.8081,5.7511,5.6464,5.5731,5.5271,5.5236,5.5309,5.5403,5.5313,5.5313,5.5403,5.5403,5.504,5.4352,5.4333,5.4161,5.3874,5.3855,5.4046,5.4256,5.3817,5.3569,5.3473,5.3053,5.2785,5.2785,5.2785,5.2384,5.1677,5.1553,5.104,5.0108,4.899,4.8313,4.7903,4.6013,4.4848,4.4668,4.4308,4.407,4.3801,4.2763,4.192,4.1528,4.113,3.9966,3.7938,3.8161,3.7588,3.5996,3.5791,3.5791,3.5791,3.6265,3.6362,3.5849,3.6284,3.6382,3.5849,3.5793,3.5629,3.5211,3.4173,3.3466,3.3292,3.2912,3.2862,3.3114,3.2784,3.2629,3.2862,3.226,3.2228,3.3094,3.2952,3.2611,3.239,3.1493,3.0415,2.9427,2.9138,2.8998,2.8998,2.9251,2.9494,2.9589,2.9769,2.9902,2.9853,2.9607,2.9475,2.9395,2.9203,2.9017,2.8975,2.8975,2.8952,2.8858,2.8952,2.8975,2.8881,2.8905,2.9021,2.9134,2.9312,2.9395,2.9474,2.9415,2.9355,6.2547,6.2614,6.1096,6.0256,5.9962,5.8946,5.8147,5.7433,5.6568,5.5826,5.5225,5.5225,5.5298,5.5377,5.5332,5.5332,5.5403,5.5403,5.5269,5.5078,5.5059,5.504,5.504,5.504,5.5174,5.5231,5.4486,5.4104,5.4085,5.3798,5.3397,5.3206,5.3148,5.2633,5.1716,5.1601,5.1133,5.0201,4.9472,4.9041,4.8671,4.6866,4.5772,4.5649,4.4989,4.4712,4.4867,4.3613,4.2722,4.2438,4.1675,4.0471,3.8821,3.85,3.7635,3.6045,3.5801,3.5791,3.5791,3.6401,3.6479,3.5954,3.642,3.6595,3.6257,3.6133,3.6124,3.6085,3.5544,3.4807,3.4041,3.3682,3.3632,3.3796,3.3292,3.2904,3.2729,3.2492,3.2447,3.2428,3.2996,3.2745,3.1859,3.0667,2.9608,2.9434,2.9163,2.8975,2.9044,2.9314,2.9589,2.9626,2.9937,3.0176,3.0171,2.9905,2.9698,2.9532,2.9312,2.9089,2.9021,2.8975,2.9048,2.9026,2.9048,2.9138,2.9185,2.9206,2.9185,2.9334,2.9513,2.9626,2.9662,2.9644,2.9662,6.2547,6.2614,6.1077,6.0197,5.9804,5.8403,5.7574,5.7213,5.5769,5.5168,5.5294,5.5065,5.511,5.5377,5.5214,5.5214,5.5377,5.5403,5.5002,5.4371,5.4276,5.4199,5.4161,5.4161,5.4619,5.5307,5.4639,5.4199,5.4199,5.483,5.4849,5.4046,5.3913,5.3148,5.183,5.1601,5.1181,5.0298,4.9557,4.9209,4.9163,4.8414,4.7452,4.6775,4.6189,4.5897,4.5783,4.5151,4.4359,4.3556,4.2585,4.1323,3.9742,3.8771,3.7528,3.6082,3.581,3.5829,3.5888,3.6051,3.6012,3.5907,3.6129,3.6265,3.6984,3.692,3.6842,3.6901,3.6695,3.6297,3.5476,3.4768,3.472,3.5282,3.5398,3.4951,3.4348,3.3942,3.4082,3.3942,3.3834,3.3372,3.2615,3.0856,2.9851,2.9551,2.9228,2.8975,2.9044,2.9334,2.957,2.9681,2.9921,3.0204,3.019,2.9988,2.9805,2.9608,2.9415,2.9206,2.9071,2.9021,2.9115,2.9209,2.9251,2.9355,2.9513,2.957,2.9551,2.9589,2.9644,2.9716,2.9886,2.9734,2.9784,6.1901,6.1268,6.0656,6.0197,5.9861,5.9391,5.8444,5.7168,5.6664,5.5833,5.4988,5.4905,5.4952,5.5095,5.5085,5.5214,5.5377,5.5403,5.5231,5.4944,5.4925,5.4925,5.4925,5.4925,5.5059,5.5307,5.5078,5.4925,5.4868,5.4734,5.4428,5.4046,5.3511,5.269,5.1792,5.1601,5.1181,5.0359,4.9996,4.9956,4.999,4.8887,4.8099,4.7887,4.7156,4.6562,4.6149,4.5348,4.4483,4.3642,4.2691,4.1187,3.9032,3.7508,3.677,3.6595,3.611,3.6284,3.7275,3.7469,3.745,3.7469,3.7469,3.7508,3.7752,3.7443,3.7065,3.7027,3.6996,3.6598,3.591,3.5436,3.5379,3.5573,3.5262,3.4872,3.4553,3.4341,3.4217,3.4186,3.4079,3.3471,3.2206,3.1046,3.0246,2.9683,2.9249,2.9044,2.9067,2.9334,2.9608,2.9662,2.9921,3.0171,3.0132,3.0022,2.9839,2.9626,2.9435,2.9249,2.9112,2.916,2.9249,2.9334,2.9415,2.9532,2.9662,2.9751,2.9769,2.982,2.9836,2.9946,3.0147,3.0003,3.0103,6.1343,6.0361,6.0055,5.9998,5.9868,5.9182,5.8273,5.7149,5.6715,5.5825,5.4855,5.4727,5.4836,5.4952,5.5066,5.5214,5.5377,5.5403,5.5403,5.5403,5.5403,5.5403,5.5403,5.5403,5.5403,5.5403,5.5403,5.5403,5.5288,5.4524,5.397,5.3626,5.2824,5.2002,5.1314,5.1181,5.0856,5.0378,5.0352,5.0466,5.0488,4.944,4.871,4.8496,4.7738,4.6939,4.6235,4.5624,4.4764,4.3708,4.2977,4.1361,3.8646,3.7544,3.7042,3.7061,3.6828,3.712,3.8169,3.8382,3.8266,3.8013,3.8246,3.8382,3.8363,3.8092,3.7802,3.755,3.7404,3.7015,3.6026,3.5707,3.5708,3.566,3.5223,3.4803,3.4559,3.4592,3.4603,3.4474,3.3887,3.3066,3.2046,3.1118,3.0374,2.9736,2.9353,2.9134,2.9138,2.9355,2.9589,2.9608,2.9937,3.0098,3.0102,3.0007,2.9948,2.9774,2.9551,2.9332,2.9228,2.9312,2.9375,2.9474,2.9589,2.9698,2.9822,2.9905,2.9969,3.0015,3.0071,3.0169,3.026,3.0302,3.0359,6.0879,6.0091,5.9388,5.9474,5.9661,5.7758,5.6909,5.6974,5.5799,5.5212,5.4822,5.4587,5.4733,5.5028,5.5094,5.5214,5.5377,5.5403,5.5403,5.5403,5.5403,5.5403,5.5403,5.5403,5.5403,5.5403,5.5403,5.5403,5.5345,5.46,5.3817,5.2862,5.2212,5.141,5.0359,5.0417,5.0359,5.0371,5.0504,5.0662,5.0693,5.0048,4.937,4.8764,4.7942,4.7065,4.6254,4.6157,4.5324,4.3841,4.3559,4.1939,3.9182,3.8906,3.8818,3.7653,3.7905,3.8324,3.8499,3.8538,3.8227,3.7877,3.8033,3.8488,3.879,3.9005,3.8937,3.8307,3.8113,3.7559,3.6086,3.5708,3.5718,3.5698,3.5621,3.5338,3.4912,3.5104,3.5399,3.5002,3.3987,3.2863,3.2336,3.1371,3.0345,2.9937,2.9532,2.9291,2.9349,2.9606,2.9645,2.9645,3.0042,3.0403,3.0224,3.0029,3.0002,2.9937,2.9701,2.9474,2.9455,2.9475,2.9589,2.9681,2.9822,2.9921,3.0045,3.0118,3.0147,3.0202,3.0279,3.034,3.0398,3.0432,3.0482,6.0254,6.0023,5.9301,5.9092,5.9109,5.7796,5.6945,5.6431,5.6463,5.5914,5.4862,5.4749,5.4901,5.5066,5.5094,5.5214,5.5403,5.5403,5.5403,5.5403,5.5403,5.5403,5.5403,5.5403,5.5403,5.5403,5.5403,5.5403,5.5345,5.5097,5.4295,5.2996,5.2556,5.1658,5.0455,5.0302,5.0352,5.0506,5.0567,5.0733,5.0901,5.0227,4.9488,4.8799,4.7969,4.7092,4.6254,4.6196,4.5345,4.3721,4.3602,4.231,3.995,3.8998,3.8825,3.8877,3.8533,3.9004,3.9897,3.9606,3.9431,3.9431,3.8946,3.9062,3.9781,3.9267,3.8753,3.8355,3.8268,3.7589,3.6154,3.5737,3.5757,3.5718,3.5766,3.5688,3.534,3.5353,3.5355,3.5219,3.4732,3.3987,3.2943,3.1822,3.1116,3.0116,2.9626,2.9411,2.9569,2.9964,3.0208,2.9888,3.0411,3.0769,3.0652,3.0604,3.0663,3.05,3.0207,2.9982,2.9888,2.9644,2.9751,2.9886,3.0034,3.0138,3.0234,3.0286,3.0292,3.0328,3.0364,3.043,3.0521,3.0567,3.0602,5.9885,5.9931,5.9212,5.891,5.8835,5.7711,5.6747,5.6128,5.6192,5.5668,5.4862,5.4988,5.5072,5.5104,5.5075,5.5214,5.5377,5.5403,5.5403,5.5403,5.5403,5.5403,5.5403,5.5403,5.5403,5.5403,5.5403,5.5403,5.5384,5.504,5.4352,5.3397,5.2671,5.2059,5.1162,5.0608,5.0492,5.0932,5.0817,5.0832,5.0894,5.0295,4.9527,4.8799,4.7949,4.7086,4.6281,4.6209,4.5552,4.4217,4.3504,4.2041,4.0027,3.952,3.948,3.9526,3.9568,3.9839,4.0733,4.0383,4.0169,4.0247,3.9742,3.9567,4.0199,3.951,3.9151,3.8384,3.8237,3.7519,3.6066,3.5718,3.5757,3.5737,3.5784,3.5766,3.5707,3.5565,3.5422,3.5243,3.4917,3.4235,3.3478,3.2686,3.2015,3.075,3.0133,2.9698,2.9833,3.0001,2.9945,2.9961,3.0243,3.0617,3.1044,3.1178,3.1345,3.1105,3.0808,3.0653,3.0553,3.0028,2.9872,3.0037,3.0196,3.026,3.0344,3.0344,3.0337,3.0389,3.0471,3.0743,3.0903,3.0707,3.0746,5.9734,5.9823,5.9182,5.8988,5.8844,5.7301,5.654,5.6188,5.5121,5.4758,5.492,5.5215,5.5284,5.5151,5.5121,5.526,5.5358,5.5403,5.5403,5.5403,5.5403,5.5441,5.5594,5.5613,5.5613,5.5575,5.5556,5.5498,5.5365,5.4798,5.4142,5.3874,5.2752,5.2098,5.2212,5.1162,5.0936,5.1549,5.1114,5.0918,5.1078,5.0509,4.9734,4.8962,4.8125,4.7268,4.6548,4.6288,4.58,4.482,4.3297,4.1753,4.0487,4.0649,4.051,3.997,4.0529,4.071,4.0887,4.082,4.0586,4.011,4.0314,4.0597,4.0063,4.0149,3.9669,3.8391,3.8168,3.7436,3.6071,3.5678,3.5718,3.5775,3.5784,3.5766,3.5698,3.5581,3.5438,3.5264,3.4638,3.4025,3.3929,3.3264,3.2539,3.1714,3.1049,3.0471,3.0188,3.0095,2.9738,2.9982,3.0528,3.1244,3.1912,3.2122,3.231,3.2646,3.2103,3.1514,3.1255,3.0722,3.0632,3.0739,3.0429,3.0447,3.0509,3.0586,3.0549,3.0521,3.0752,3.1133,3.1196,3.1018,3.119,5.9918,5.9981,5.9212,5.8988,5.8929,5.7758,5.694,5.6302,5.5321,5.4941,5.5104,5.5285,5.5369,5.5305,5.5313,5.5358,5.5358,5.5403,5.5403,5.5403,5.5403,5.5785,5.6186,5.6262,5.6243,5.6269,5.6155,5.5976,5.5441,5.5246,5.4805,5.4104,5.3756,5.3253,5.2733,5.1888,5.1636,5.187,5.1358,5.1081,5.1181,5.107,5.0541,4.9703,4.8884,4.8035,4.7182,4.6573,4.5858,4.4941,4.3319,4.2218,4.1709,4.1347,4.1016,4.0865,4.0833,4.0968,4.0972,4.0926,4.0788,4.0641,4.0321,4.0189,4.0577,4.0089,3.9378,3.8407,3.8124,3.7443,3.6082,3.5707,3.5737,3.5793,3.5814,3.5776,3.5678,3.5553,3.5422,3.534,3.5059,3.4652,3.4159,3.3834,3.3318,3.2489,3.1661,3.0921,3.0691,3.0508,3.0302,3.0883,3.1474,3.2248,3.2836,3.3029,3.3425,3.4099,3.3587,3.249,3.2149,3.1694,3.196,3.2351,3.1202,3.0887,3.1004,3.1071,3.0924,3.0632,3.075,3.0974,3.1343,3.1397,3.1796,5.9982,6.008,5.9604,5.9273,5.9043,5.8491,5.7749,5.6891,5.5693,5.5389,5.5614,5.547,5.5382,5.5403,5.5403,5.5403,5.5403,5.5403,5.5434,5.5495,5.5547,5.5796,5.6089,5.616,5.6351,5.6638,5.6351,5.6121,5.5954,5.581,5.5333,5.4885,5.4547,5.4259,5.4098,5.259,5.2222,5.243,5.1735,5.1156,5.1273,5.13,5.0813,5.0112,4.9469,4.8802,4.7572,4.6367,4.5343,4.454,4.3791,4.3333,4.2887,4.2125,4.166,4.1641,4.1283,4.0988,4.0996,4.0974,4.0972,4.0928,4.0454,4.0489,4.0694,4.0261,3.956,3.8361,3.8348,3.7473,3.6125,3.5936,3.6028,3.589,3.6075,3.6125,3.5815,3.5604,3.5496,3.543,3.5326,3.5124,3.4557,3.4483,3.4063,3.329,3.2252,3.165,3.1193,3.1054,3.1073,3.1558,3.2079,3.2737,3.3304,3.3591,3.3634,3.4365,3.4464,3.3424,3.286,3.2445,3.2391,3.2428,3.1758,3.1303,3.1291,3.1172,3.0878,3.0668,3.0704,3.0963,3.1411,3.1507,3.1971,6.0026,6.0129,6.0129,5.9769,5.9292,5.9224,5.8661,5.7676,5.6401,5.5962,5.6122,5.567,5.5396,5.5403,5.5403,5.5403,5.5403,5.5403,5.5605,5.5846,5.6094,5.6347,5.6359,5.6371,5.6637,5.6963,5.6214,5.6348,5.6489,5.6115,5.5827,5.5538,5.5036,5.5152,5.494,5.3417,5.2889,5.3039,5.1897,5.1228,5.1284,5.1281,5.095,5.0385,4.9751,4.8655,4.7217,4.5914,4.4839,4.3785,4.4387,4.4094,4.3473,4.2809,4.2226,4.2012,4.1401,4.0999,4.0996,4.1003,4.0994,4.0955,4.091,4.0888,4.084,4.0607,3.994,3.8562,3.8757,3.7916,3.6598,3.6617,3.6775,3.6559,3.6897,3.677,3.6151,3.5795,3.5657,3.5507,3.5443,3.535,3.5258,3.5133,3.4904,3.4181,3.3177,3.2534,3.2024,3.1711,3.1748,3.1986,3.2528,3.3075,3.362,3.411,3.4082,3.431,3.4553,3.4064,3.3427,3.2954,3.2517,3.224,3.2309,3.187,3.1251,3.1052,3.0775,3.0704,3.072,3.1208,3.1685,3.1488,3.1691,6.0304,6.0361,6.0342,6.0246,6.0141,6.0102,5.9262,5.7886,5.7542,5.6683,5.5842,5.5479,5.5403,5.5403,5.5403,5.5403,5.5403,5.5486,5.5815,5.6698,5.7622,5.7925,5.7891,5.7757,5.7832,5.7928,5.787,5.7504,5.7004,5.6347,5.5919,5.5769,5.5743,5.5724,5.5479,5.4237,5.3333,5.3307,5.2055,5.1356,5.1284,5.13,5.1164,5.0762,4.9752,4.7868,4.6127,4.5815,4.5249,4.4016,4.3313,4.3294,4.3434,4.2424,4.1804,4.1691,4.1405,4.1113,4.1074,4.1072,4.0998,4.0983,4.094,4.0888,4.0898,4.0796,4.0273,3.9398,3.9162,3.865,3.7706,3.7818,3.786,3.7752,3.7877,3.778,3.6936,3.6164,3.5753,3.5546,3.5443,3.5354,3.5226,3.519,3.5002,3.4773,3.4208,3.3477,3.2914,3.2406,3.2479,3.2661,3.3227,3.383,3.4206,3.4585,3.4568,3.4549,3.4715,3.4534,3.3909,3.3749,3.3409,3.3287,3.3275,3.2559,3.1345,3.0969,3.0695,3.0721,3.0763,3.1172,3.1457,3.135,3.1772,6.0389,6.0389,6.0389,6.0389,6.0389,6.037,5.9644,5.8536,5.8039,5.7179,5.6071,5.5594,5.5403,5.5403,5.5403,5.5403,5.5549,5.6007,5.6742,5.7641,5.8419,5.8886,5.9138,5.8823,5.8562,5.845,5.8007,5.7581,5.7114,5.654,5.6121,5.604,5.6102,5.6083,5.5924,5.4827,5.4051,5.3545,5.2553,5.1752,5.137,5.13,5.1043,5.0621,4.9462,4.7844,4.6464,4.5304,4.4878,4.4133,4.3157,4.3021,4.4016,4.3469,4.2962,4.2848,4.2036,4.1767,4.1673,4.1284,4.0988,4.1007,4.0928,4.0896,4.0888,4.0846,4.0386,3.9809,3.9625,3.9543,3.8878,3.8825,3.8811,3.8538,3.879,3.8615,3.7791,3.6862,3.6005,3.5681,3.5443,3.535,3.5258,3.519,3.5171,3.4964,3.4304,3.3627,3.3608,3.3177,3.327,3.353,3.4096,3.4587,3.4907,3.5059,3.5021,3.5047,3.5115,3.4743,3.4167,3.4248,3.4429,3.3788,3.2904,3.2278,3.1261,3.0945,3.072,3.0742,3.0855,3.1122,3.1423,3.1738,3.2339,6.0389,6.0389,6.0389,6.0389,6.0389,6.037,5.9797,5.8822,5.8211,5.7275,5.6396,5.567,5.5409,5.5434,5.5415,5.5434,5.5792,5.6804,5.7795,5.8385,5.9192,5.974,6.0007,5.9512,5.8881,5.8571,5.7854,5.7408,5.7207,5.6684,5.6265,5.6278,5.6291,5.6265,5.6084,5.5437,5.4517,5.3758,5.2913,5.2085,5.1456,5.1277,5.0875,4.9859,4.9244,4.8201,4.6855,4.5555,4.4504,4.4875,4.3704,4.384,4.4504,4.4816,4.4797,4.4621,4.3219,4.2692,4.2502,4.1992,4.1546,4.1267,4.1182,4.1148,4.117,4.0994,4.0652,4.0436,4.0331,4.041,3.9948,3.9799,3.9481,3.9189,3.9528,3.9392,3.8684,3.7793,3.7041,3.597,3.579,3.5714,3.5372,3.519,3.519,3.5078,3.4418,3.3965,3.3965,3.4004,3.4077,3.4154,3.4645,3.4833,3.5098,3.5226,3.5209,3.53,3.5383,3.4944,3.4492,3.4807,3.463,3.2934,3.1981,3.1573,3.1246,3.0891,3.0762,3.0782,3.0877,3.1053,3.1555,3.2172,3.2697,6.0389,6.0389,6.0389,6.0389,6.037,6.037,5.9491,5.8249,5.7905,5.7008,5.5708,5.5479,5.5465,5.5523,5.557,5.5618,5.6056,5.7235,5.823,5.8819,5.9784,6.072,6.0526,5.9807,5.9288,5.8711,5.7876,5.7416,5.7255,5.6777,5.635,5.6311,5.6311,5.6311,5.609,5.5442,5.4611,5.3807,5.3001,5.2191,5.1515,5.1226,5.0542,4.9361,4.8904,4.8027,4.6872,4.6139,4.5636,4.5129,4.5421,4.5304,4.4992,4.4445,4.425,4.4133,4.3821,4.3489,4.3417,4.3279,4.277,4.2321,4.2075,4.2023,4.1848,4.1442,4.1305,4.1383,4.114,4.1003,4.1548,4.0945,4.0636,4.0519,4.0383,4.0305,3.9616,3.8995,3.8202,3.6883,3.6496,3.6117,3.5717,3.54,3.5343,3.5324,3.4986,3.4664,3.4645,3.4737,3.4833,3.4909,3.5059,3.5117,3.519,3.5226,3.5242,3.5345,3.5347,3.5094,3.4911,3.5301,3.4686,3.2815,3.1926,3.1741,3.1359,3.0891,3.0769,3.0781,3.087,3.096,3.1383,3.1824,3.2143,6.0389,6.0389,6.0389,6.0122,5.9759,5.972,5.8765,5.7371,5.7199,5.6549,5.5696,5.5465,5.5523,5.5596,5.5686,5.5769,5.6267,5.7207,5.7947,5.8416,5.9391,6.0079,6.0021,5.9244,5.8661,5.802,5.736,5.6965,5.6894,5.6544,5.6311,5.6311,5.6311,5.6311,5.611,5.5454,5.4602,5.3807,5.3001,5.2172,5.1386,5.1283,5.0387,4.9256,4.8691,4.7906,4.6569,4.5763,4.5441,4.5168,4.5382,4.5324,4.5129,4.507,4.5012,4.4933,4.4621,4.4367,4.4257,4.4018,4.3418,4.312,4.2963,4.2903,4.2813,4.2538,4.2248,4.2053,4.1976,4.15,4.1382,4.1471,4.1374,4.0985,4.0888,4.0694,4.0306,3.9829,3.8825,3.7653,3.6999,3.6473,3.6064,3.5783,3.5592,3.5477,3.54,3.5305,3.5207,3.5207,3.5207,3.519,3.519,3.5226,3.5242,3.5273,3.5335,3.5416,3.5419,3.5168,3.4991,3.5251,3.419,3.2462,3.1994,3.2238,3.1285,3.0772,3.0762,3.0747,3.0771,3.0842,3.1115,3.1409,3.1708,6.0045,5.9892,5.9928,5.9527,5.8953,5.8896,5.8054,5.683,5.6652,5.6193,5.5517,5.5547,5.564,5.5707,5.5846,5.599,5.613,5.7017,5.7504,5.7799,5.8545,5.8894,5.8622,5.8059,5.7706,5.7692,5.6864,5.6321,5.6421,5.633,5.6311,5.6311,5.6311,5.6311,5.6129,5.5458,5.4633,5.3798,5.2998,5.2173,5.1511,5.1074,5.0361,4.8924,4.8648,4.7801,4.6404,4.5812,4.5519,4.5382,4.5363,4.5324,4.5402,4.5909,4.628,4.6183,4.5617,4.5343,4.5116,4.4774,4.4354,4.3965,4.3844,4.3787,4.3739,4.3605,4.3374,4.2675,4.2189,4.1937,4.1558,4.1607,4.149,4.114,4.0888,4.0849,4.0684,4.0198,3.9362,3.8365,3.7488,3.6867,3.6454,3.6289,3.6108,3.5863,3.5801,3.5377,3.53,3.5289,3.5273,3.5207,3.519,3.5226,3.5273,3.5335,3.5407,3.5509,3.5531,3.5416,3.5156,3.5008,3.3802,3.299,3.3145,3.3169,3.1923,3.0762,3.0733,3.07,3.0645,3.0853,3.13,3.1235,3.1216,5.8842,5.8219,5.8361,5.8294,5.8218,5.8218,5.7661,5.6793,5.6594,5.6192,5.5573,5.5618,5.5749,5.5937,5.6141,5.6232,5.6498,5.6983,5.7405,5.7535,5.8169,5.8542,5.8647,5.7994,5.7552,5.7368,5.6725,5.6405,5.6317,5.6309,5.6311,5.6304,5.6311,5.6304,5.6212,5.5326,5.4665,5.3808,5.2994,5.2189,5.1424,5.0742,4.9881,4.8931,4.822,4.7419,4.6495,4.6066,4.6027,4.6046,4.6085,4.6124,4.6183,4.6222,4.63,4.628,4.6202,4.6144,4.6027,4.5779,4.5419,4.492,4.4745,4.4708,4.4643,4.4489,4.4132,4.3433,4.2733,4.2092,4.1723,4.1451,4.1121,4.0966,4.0888,4.0888,4.0801,4.0354,3.9539,3.8791,3.7843,3.7313,3.6845,3.6755,3.6646,3.6415,3.6119,3.5661,3.5374,3.5364,3.5345,3.5281,3.5254,3.5289,3.536,3.5422,3.5502,3.5601,3.5629,3.5641,3.5475,3.5219,3.4983,3.4399,3.4418,3.3545,3.1926,3.1015,3.0799,3.0658,3.0586,3.1057,3.1681,3.1381,3.079,5.787,5.801,5.8064,5.7851,5.7555,5.7536,5.7035,5.6342,5.6143,5.5992,5.5767,5.5808,5.5973,5.6112,5.6259,5.6291,5.6369,5.6719,5.6855,5.6912,5.7278,5.7449,5.7301,5.7095,5.6957,5.6914,5.6641,5.643,5.6363,5.632,5.6297,5.6304,5.6304,5.6302,5.6163,5.5013,5.4332,5.3565,5.2667,5.1792,5.1386,5.0954,5.0168,4.888,4.8447,4.7549,4.6651,4.63,4.63,4.63,4.63,4.63,4.63,4.63,4.63,4.63,4.628,4.628,4.6261,4.63,4.6036,4.585,4.5643,4.5595,4.5462,4.5053,4.4462,4.3569,4.318,4.2597,4.1917,4.1626,4.1335,4.1121,4.0966,4.0888,4.0771,4.0266,3.9665,3.8928,3.8229,3.7665,3.7022,3.6474,3.6458,3.66,3.6183,3.5656,3.5457,3.5402,3.5416,3.5411,3.5369,3.5345,3.5457,3.5534,3.5589,3.5667,3.5728,3.5745,3.5754,3.5585,3.5317,3.4977,3.4612,3.3434,3.1851,3.1356,3.1247,3.0898,3.0516,3.0868,3.1139,3.0841,3.0472,5.6953,5.7574,5.7593,5.7291,5.6831,5.683,5.6483,5.5903,5.5847,5.5711,5.561,5.5652,5.5816,5.6026,5.6155,5.6311,5.6311,5.6311,5.6311,5.6302,5.631,5.6394,5.6537,5.646,5.649,5.6434,5.652,5.6454,5.6419,5.6391,5.6359,5.6319,5.632,5.632,5.5942,5.5073,5.417,5.3395,5.2184,5.1523,5.1343,5.1105,5.0298,4.9391,4.8642,4.792,4.6846,4.6358,4.63,4.63,4.63,4.63,4.63,4.63,4.63,4.63,4.63,4.63,4.63,4.63,4.63,4.627,4.6246,4.6051,4.5996,4.5414,4.4754,4.4005,4.3889,4.3034,4.2092,4.2073,4.1762,4.1412,4.1082,4.0985,4.083,4.0461,3.9975,3.9286,3.8578,3.7849,3.7124,3.6192,3.611,3.6571,3.6288,3.5689,3.5526,3.5483,3.5656,3.5701,3.5502,3.5572,3.5893,3.5916,3.5882,3.5728,3.5773,3.581,3.5799,3.5772,3.5587,3.5232,3.4872,3.394,3.2733,3.219,3.1642,3.1014,3.0472,3.0314,3.0286,3.0123,3.0525,5.598,5.6142,5.6181,5.6201,5.612,5.6082,5.6062,5.5965,5.5825,5.5415,5.4905,5.5022,5.517,5.5357,5.5974,5.6311,5.6311,5.6311,5.6304,5.6314,5.63,5.6335,5.6406,5.646,5.6503,5.6568,5.6551,5.6539,5.6523,5.6483,5.6432,5.6387,5.638,5.6391,5.6044,5.5243,5.4023,5.3099,5.189,5.1441,5.1193,5.0836,5.0227,4.9735,4.8603,4.7608,4.7471,4.6729,4.63,4.63,4.63,4.63,4.63,4.63,4.63,4.63,4.63,4.63,4.63,4.63,4.63,4.627,4.625,4.6211,4.6152,4.6074,4.5501,4.4569,4.4219,4.3899,4.3122,4.2714,4.2131,4.1781,4.1335,4.0966,4.0888,4.0869,4.0344,3.9664,3.8887,3.8052,3.7197,3.627,3.596,3.6386,3.627,3.5689,3.5637,3.5651,3.5963,3.6021,3.57,3.5879,3.648,3.6386,3.5883,3.5765,3.5807,3.5815,3.5815,3.5774,3.5734,3.5639,3.5272,3.445,3.3584,3.2674,3.1777,3.0933,3.0404,3.0234,3.0316,3.0449,3.1107,5.5971,5.6001,5.6136,5.6185,5.6185,5.6185,5.6165,5.6068,5.5569,5.4899,5.4206,5.4735,5.4999,5.5202,5.5857,5.6311,5.6311,5.6311,5.6263,5.631,5.6347,5.6387,5.646,5.6522,5.6582,5.6606,5.6606,5.661,5.6566,5.6551,5.6534,5.6503,5.6454,5.6432,5.6089,5.5194,5.3891,5.2869,5.1913,5.1402,5.132,5.1121,5.0653,4.9989,4.9072,4.8096,4.7569,4.6749,4.6417,4.63,4.63,4.63,4.63,4.63,4.63,4.63,4.63,4.6319,4.6358,4.6339,4.63,4.6267,4.623,4.6191,4.6113,4.5683,4.4929,4.4304,4.4042,4.3744,4.286,4.2422,4.2131,4.1956,4.1587,4.1082,4.1024,4.1082,4.1005,4.0461,3.9217,3.8071,3.7197,3.6334,3.6198,3.616,3.5946,3.5782,3.5737,3.5737,3.6046,3.6198,3.5889,3.5843,3.6387,3.6153,3.5784,3.5795,3.5833,3.5833,3.5819,3.5806,3.5776,3.5781,3.5542,3.4664,3.3746,3.2797,3.185,3.086,3.0369,3.014,3.034,3.0714,3.1357,5.6087,5.6102,5.6246,5.6311,5.6311,5.6311,5.6142,5.5855,5.5291,5.438,5.3506,5.406,5.4285,5.4518,5.5116,5.548,5.5413,5.5443,5.5677,5.5801,5.5923,5.6204,5.6426,5.6571,5.661,5.6606,5.6606,5.6606,5.6591,5.6606,5.6591,5.6568,5.6522,5.6504,5.6131,5.4886,5.3561,5.2702,5.1902,5.1414,5.1394,5.1336,5.1199,5.0457,4.9677,4.8818,4.8076,4.7295,4.6632,4.6417,4.63,4.63,4.63,4.63,4.63,4.63,4.6319,4.6397,4.6612,4.669,4.6554,4.6362,4.6641,4.6367,4.582,4.518,4.4614,4.3778,4.3559,4.3276,4.2674,4.2703,4.2588,4.2442,4.1432,4.0946,4.1354,4.1529,4.149,4.1257,4.015,3.9362,3.7786,3.695,3.6091,3.5998,3.5915,3.5791,3.5782,3.5833,3.6018,3.6086,3.6009,3.6054,3.6173,3.5981,3.5827,3.5816,3.5841,3.5838,3.5821,3.5762,3.56,3.5432,3.5108,3.4665,3.3729,3.252,3.1597,3.0705,3.0288,2.9876,3.0632,3.1016,3.1184,5.6291,5.6311,5.6272,5.6253,5.6207,5.6272,5.5866,5.5239,5.4918,5.4003,5.2726,5.2736,5.282,5.3038,5.3885,5.4253,5.4268,5.4195,5.445,5.5025,5.5402,5.5781,5.6209,5.6468,5.6606,5.6606,5.6606,5.6606,5.6606,5.6606,5.6606,5.6528,5.6426,5.637,5.6376,5.4849,5.36,5.2702,5.1843,5.1472,5.1394,5.1394,5.1277,5.1023,5.0321,4.9403,4.8564,4.7764,4.7042,4.6417,4.63,4.63,4.63,4.63,4.63,4.63,4.6378,4.6749,4.7412,4.751,4.712,4.628,4.627,4.6114,4.5297,4.4743,4.4314,4.3329,4.3339,4.3734,4.3607,4.3294,4.2947,4.2481,4.1471,4.0985,4.1374,4.1859,4.182,4.1684,4.1743,4.1305,3.933,3.7661,3.634,3.584,3.5815,3.5807,3.5811,3.5877,3.6001,3.6015,3.6002,3.6053,3.608,3.5982,3.588,3.5871,3.5831,3.578,3.5634,3.5466,3.529,3.5059,3.4567,3.4017,3.3144,3.2152,3.1233,3.035,2.9871,2.9727,3.0578,3.1067,3.1032,5.6311,5.6253,5.5675,5.5458,5.5501,5.5512,5.5337,5.4963,5.4086,5.2947,5.1986,5.1806,5.2157,5.2665,5.3278,5.3702,5.3723,5.3801,5.4142,5.4292,5.4785,5.5309,5.5768,5.6188,5.6508,5.6606,5.6606,5.6547,5.6606,5.6606,5.6606,5.6547,5.6098,5.5767,5.5454,5.4517,5.3561,5.2702,5.1902,5.1394,5.1394,5.1394,5.1394,5.1355,5.0575,4.9755,4.8857,4.8057,4.7276,4.6456,4.63,4.63,4.6319,4.6319,4.6358,4.6495,4.669,4.7256,4.7725,4.7803,4.7373,4.6222,4.5441,4.5265,4.4195,4.3531,4.3125,4.2908,4.2737,4.2941,4.2727,4.2594,4.2354,4.2228,4.1548,4.1082,4.1238,4.184,4.2073,4.184,4.1801,4.0307,3.852,3.7355,3.6163,3.5767,3.574,3.5791,3.581,3.5845,3.5942,3.5935,3.5926,3.5977,3.5984,3.5834,3.5722,3.5679,3.5681,3.5678,3.5489,3.5134,3.4787,3.4473,3.3926,3.3316,3.2353,3.1426,3.0695,2.9992,2.9188,2.8995,2.9658,3.0067,3.0224,5.5454,5.5357,5.4819,5.4616,5.4652,5.4652,5.4512,5.406,5.2986,5.2025,5.1513,5.1411,5.1648,5.2214,5.2677,5.2978,5.298,5.2956,5.3316,5.3474,5.4001,5.4655,5.5248,5.5571,5.5689,5.602,5.6157,5.6118,5.6118,5.645,5.6586,5.6391,5.5708,5.524,5.4732,5.3932,5.3053,5.2253,5.157,5.1394,5.1394,5.1394,5.1394,5.1258,5.0789,5.0067,4.9013,4.8174,4.7471,4.671,4.63,4.63,4.6339,4.6573,4.669,4.6983,4.749,4.7822,4.7861,4.7471,4.6573,4.4836,4.468,4.4563,4.3941,4.3388,4.263,4.2246,4.1967,4.2095,4.2226,4.2108,4.1868,4.1723,4.1567,4.1081,4.1431,4.2033,4.2157,4.1935,4.1451,3.9688,3.7894,3.6813,3.5797,3.571,3.5678,3.5738,3.5781,3.5799,3.5819,3.5819,3.5801,3.5817,3.5769,3.5653,3.5548,3.5494,3.5422,3.534,3.4969,3.4573,3.4222,3.3832,3.3177,3.2478,3.1515,3.0617,2.9542,2.8655,2.7874,2.803,2.8682,2.8894,2.8994,5.3827,5.3808,5.3775,5.3759,5.3767,5.3689,5.3269,5.2563,5.1777,5.1445,5.1402,5.1403,5.1484,5.1445,5.1502,5.1601,5.1689,5.1637,5.2062,5.256,5.3006,5.3877,5.4404,5.4537,5.4849,5.5123,5.5396,5.5611,5.5454,5.5962,5.6352,5.6098,5.5181,5.4556,5.3834,5.3093,5.2331,5.1746,5.1499,5.1362,5.1338,5.1182,5.1079,5.0986,5.0835,5.0078,4.9224,4.8564,4.7764,4.7002,4.6358,4.6319,4.6554,4.7139,4.7432,4.7842,4.8408,4.8174,4.7686,4.7139,4.5968,4.4816,4.5851,4.55,4.4214,4.2949,4.2307,4.1675,4.1365,4.1726,4.196,4.1649,4.1369,4.133,4.131,4.1399,4.1788,4.2077,4.2101,4.1916,4.1563,4.0164,3.8144,3.6807,3.586,3.5632,3.5585,3.5527,3.5572,3.5603,3.5627,3.5695,3.5662,3.5626,3.5541,3.541,3.5164,3.5032,3.4913,3.4773,3.4374,3.3956,3.3504,3.298,3.2403,3.1617,3.0656,2.9358,2.8036,2.7257,2.6962,2.7042,2.7706,2.7457,2.7459,5.3808,5.3736,5.3182,5.2943,5.2861,5.2344,5.193,5.1711,5.1469,5.1391,5.1396,5.1396,5.1396,5.1389,5.1394,5.1389,5.1385,5.1421,5.1538,5.1886,5.2351,5.2936,5.3385,5.3756,5.4088,5.4478,5.4849,5.5083,5.5259,5.563,5.5259,5.4654,5.4127,5.3483,5.2975,5.2234,5.1781,5.146,5.1316,5.1265,5.105,5.0774,5.0626,5.0563,5.0635,4.9873,4.9118,4.8814,4.8092,4.7412,4.6612,4.6339,4.6358,4.712,4.7725,4.8408,4.8623,4.8447,4.7744,4.7354,4.6397,4.4933,4.55,4.4075,4.2747,4.2045,4.1849,4.1377,4.1094,4.1426,4.1543,4.1328,4.1148,4.1117,4.1117,4.1273,4.1623,4.1816,4.1798,4.1155,4.0835,3.9684,3.7766,3.6936,3.6084,3.5725,3.5523,3.5492,3.5419,3.5466,3.5413,3.5477,3.5424,3.5359,3.5249,3.5119,3.4814,3.4567,3.4389,3.4113,3.3679,3.3204,3.2732,3.2071,3.1285,3.0533,2.9713,2.8482,2.7236,2.6911,2.6629,2.6583,2.6488,2.6153,2.5977,5.2812,5.2753,5.2333,5.2138,5.2048,5.16,5.1394,5.1394,5.1394,5.1394,5.1394,5.1394,5.1394,5.1394,5.1398,5.1394,5.1394,5.1394,5.1453,5.159,5.196,5.2409,5.28,5.2917,5.3093,5.3561,5.3912,5.4049,5.44,5.4654,5.4439,5.4088,5.3132,5.2747,5.2425,5.1901,5.1401,5.1264,5.1203,5.1159,5.086,5.0537,5.0413,5.0257,5.0315,4.9761,4.8937,4.8806,4.8367,4.7623,4.6768,4.6749,4.7139,4.8135,4.8681,4.9247,4.8896,4.8427,4.7705,4.7178,4.628,4.546,4.4992,4.4094,4.3021,4.2259,4.1732,4.123,4.1152,4.1133,4.1094,4.1047,4.1019,4.0987,4.0987,4.0987,4.1228,4.1468,4.0976,4.0262,3.9423,3.8436,3.7452,3.682,3.6491,3.6469,3.6209,3.5871,3.5656,3.5441,3.5295,3.5218,3.5168,3.5082,3.494,3.4718,3.4323,3.3995,3.3721,3.3396,3.2973,3.2503,3.2021,3.1096,3.0077,2.9419,2.8873,2.7834,2.6836,2.6491,2.5802,2.5222,2.4852,2.4626,2.4517,5.1284,5.1386,5.1355,5.1464,5.1398,5.1394,5.1394,5.1394,5.1394,5.1394,5.1394,5.1394,5.1394,5.1394,5.1394,5.1394,5.1394,5.1394,5.1394,5.1394,5.1511,5.1882,5.2058,5.1941,5.2214,5.2487,5.2839,5.3225,5.3084,5.3391,5.3757,5.3767,5.2874,5.2305,5.2041,5.1546,5.1161,5.1061,5.1083,5.1063,5.0969,5.0906,5.0868,5.0771,5.0581,5.0206,4.9175,4.867,4.8445,4.7723,4.7217,4.7334,4.8525,4.915,4.9618,4.9481,4.8915,4.8115,4.7393,4.6827,4.6027,4.5363,4.4972,4.4348,4.345,4.2786,4.2279,4.2028,4.2031,4.1758,4.168,4.1523,4.1444,4.1208,4.1033,4.1015,4.1113,4.1008,4.034,3.9643,3.8916,3.8031,3.7827,3.7269,3.7159,3.7274,3.7113,3.6602,3.6099,3.5734,3.5262,3.5056,3.4718,3.4601,3.4457,3.4199,3.3776,3.3424,3.3146,3.2719,3.2313,3.1827,3.1308,3.0402,2.9492,2.8701,2.7981,2.7093,2.6254,2.5563,2.4818,2.3771,2.3345,2.3371,2.3367,5.0781,5.1374,5.1385,5.1385,5.1394,5.1394,5.1394,5.1394,5.1394,5.1394,5.1394,5.1394,5.1394,5.1394,5.1394,5.1394,5.1394,5.1394,5.1394,5.1394,5.1394,5.1492,5.1707,5.159,5.159,5.1843,5.221,5.2523,5.2513,5.2648,5.245,5.1862,5.1522,5.1561,5.1511,5.1072,5.1035,5.0923,5.0937,5.0959,5.0903,5.0201,4.9804,4.9958,4.9921,5.0009,4.929,4.8922,4.9111,4.9029,4.7923,4.8346,4.9657,4.9364,4.915,4.8954,4.8408,4.7647,4.6963,4.6456,4.5948,4.5382,4.4953,4.4426,4.3938,4.3567,4.3297,4.3121,4.2851,4.2524,4.2195,4.2005,4.1753,4.1401,4.1068,4.1038,4.1003,4.0422,3.9781,3.9204,3.855,3.8296,3.8151,3.8024,3.789,3.7851,3.7813,3.7463,3.6825,3.6292,3.538,3.4996,3.4274,3.403,3.3926,3.3676,3.3263,3.2893,3.2598,3.2144,3.1657,3.1206,3.0737,2.9913,2.9057,2.8306,2.7535,2.6587,2.5728,2.5092,2.4326,2.3485,2.3032,2.2988,2.2796,5.0145,5.0308,5.0674,5.1043,5.1355,5.1394,5.1394,5.1394,5.1394,5.1394,5.1394,5.1394,5.1394,5.1394,5.1394,5.1394,5.1394,5.1394,5.1394,5.1394,5.1394,5.1394,5.1394,5.139,5.1372,5.1523,5.1674,5.1869,5.1911,5.1804,5.1452,5.1035,5.0996,5.0972,5.0953,5.0945,5.0908,5.0827,5.0827,5.0827,5.0808,5.0276,5.0009,5.0098,5.0074,5.002,4.9445,4.9054,4.9176,4.9711,4.9347,4.8913,4.9571,4.9462,4.8974,4.8427,4.7803,4.7237,4.6593,4.6222,4.6066,4.5656,4.5539,4.5246,4.5265,4.4914,4.4231,4.398,4.3473,4.3124,4.25,4.2192,4.1743,4.1333,4.1113,4.0983,4.0855,4.0519,4.0159,3.9909,3.948,3.9375,3.9287,3.9306,3.9172,3.9087,3.8965,3.8369,3.7719,3.6804,3.5885,3.5021,3.4367,3.3634,3.3367,3.3064,3.2713,3.2385,3.2144,3.1565,3.1067,3.0666,3.0123,2.939,2.8748,2.8161,2.7282,2.6269,2.5577,2.5007,2.4213,2.3436,2.3045,2.2812,2.2756,4.9453,4.91,4.9673,5.0438,5.118,5.1219,5.1199,5.1238,5.1355,5.1394,5.1394,5.1394,5.1394,5.1394,5.1394,5.1394,5.1394,5.1394,5.1394,5.1394,5.1394,5.1394,5.1371,5.1367,5.1284,5.1187,5.124,5.1186,5.1159,5.1139,5.1127,5.0979,5.0953,5.0932,5.0883,5.0855,5.0808,5.0758,5.074,5.0702,5.0702,5.0683,5.0625,5.0645,5.0645,5.0334,4.9685,4.9204,4.916,4.9637,5.0295,4.9887,4.9382,4.922,4.8623,4.7978,4.7432,4.6924,4.6475,4.628,4.6261,4.6222,4.63,4.6261,4.6202,4.5851,4.5168,4.4777,4.427,4.3782,4.3177,4.2685,4.2217,4.1671,4.1461,4.1182,4.0992,4.081,4.0669,4.0528,4.0342,4.0232,4.0252,4.0289,4.0248,4.0187,3.9886,3.9319,3.8552,3.7431,3.6403,3.5465,3.4604,3.3924,3.3082,3.2654,3.2354,3.2109,3.1821,3.1106,3.0518,3.0123,2.9689,2.9088,2.8432,2.7834,2.696,2.5946,2.5398,2.4908,2.4332,2.3631,2.3495,2.3238,2.3039,4.873,4.9807,4.929,4.956,5.0301,5.036,5.036,5.0477,5.1141,5.1394,5.1355,5.1375,5.1394,5.1394,5.1394,5.1394,5.1394,5.1394,5.1394,5.1394,5.1394,5.1394,5.1362,5.1291,5.1159,5.1063,5.1004,5.0966,5.0923,5.0894,5.0851,5.0771,5.0773,5.0757,5.0739,5.074,5.074,5.0683,5.0683,5.0683,5.0683,5.0683,5.0683,5.0683,5.0683,5.0606,5.0297,4.9743,5.0001,5.0325,5.0323,4.9952,4.9393,4.8703,4.7977,4.7509,4.6947,4.6644,4.6312,4.6296,4.63,4.63,4.63,4.63,4.6261,4.6241,4.5831,4.5831,4.5402,4.507,4.4563,4.4282,4.3849,4.3065,4.2645,4.2177,4.1835,4.1542,4.1325,4.0991,4.0631,4.0595,4.0596,4.0558,4.0479,4.0364,4.0176,3.9623,3.9161,3.8064,3.6909,3.593,3.495,3.3766,3.2788,3.2441,3.2138,3.1852,3.1524,3.0925,3.0293,2.9645,2.915,2.8732,2.8094,2.7449,2.6505,2.5797,2.5245,2.4751,2.4408,2.3968,2.3806,2.3612,2.3406]},{"header":{"parameterUnit":"m.s-1","parameterCategory":1,"la1":31.0,"la2":29.5877,"lo1":-88.7671,"lo2":-86.6584,"dy":0.0162,"dx":0.0185,"nx":115,"ny":88,"refTime":"2023-04-08T12:00:00:Z","depth":0,"parameterNumber":3,"parameterNumberName":"V-component_of_WINDS"},"data":[0.0,0.0,0.0,0.0,0.0,0.0,0.0,0.0,0.0,0.0,0.0,0.0,0.0,0.0,0.0,0.0,0.0,0.0,0.0,0.0,0.0,0.0,0.0,0.0,0.0,0.0,0.0,0.0,0.0,0.0,0.0,0.0,0.0,0.0,0.0,0.0,0.0,0.0,0.0,0.0,0.0,0.0,0.0,0.0,0.0,0.0,0.0,0.0,0.0,0.0,0.0,0.0,0.0,0.0,0.0,0.0,0.0,0.0,0.0,0.0,0.0,0.0,0.0,0.0,0.0,0.0,0.0,0.0,0.0,0.0,0.0,0.0,0.0,0.0,0.0,0.0,0.0,0.0,0.0,0.0,0.0,0.0,0.0,0.0,0.0,0.0,0.0,0.0,0.0,0.0,0.0,0.0,0.0,0.0,0.0,0.0,0.0,0.0,0.0,0.0,0.0,0.0,0.0,0.0,0.0,0.0,0.0,0.0,0.0,0.0,0.0,0.0,0.0,0.0,0.0,0.0,0.0,0.0,0.0,0.0,0.0,0.0,0.0,0.0,0.0,0.0,0.0,0.0,0.0,0.0,0.0,0.0,0.0,0.0,0.0,0.0,0.0,0.0,0.0,0.0,0.0,0.0,0.0,0.0,0.0,0.0,0.0,0.0,0.0,0.0,0.0,0.0,0.0,0.0,0.0,0.0,0.0,0.0,0.0,0.0,0.0,0.0,0.0,0.0,0.0,0.0,0.0,0.0,0.0,0.0,0.0,0.0,0.0,0.0,0.0,0.0,0.0,0.0,0.0,0.0,0.0,0.0,0.0,0.0,0.0,0.0,0.0,0.0,0.0,0.0,0.0,0.0,0.0,0.0,0.0,0.0,0.0,0.0,0.0,0.0,0.0,0.0,0.0,0.0,0.0,0.0,0.0,0.0,0.0,0.0,0.0,0.0,0.0,0.0,0.0,0.0,0.0,0.0,0.0,0.0,0.0,0.0,0.0,0.0,0.0,0.0,0.0,0.0,0.0,0.0,0.0,0.0,0.0,0.0,0.0,0.0,0.0,0.0,0.0,0.0,0.0,0.0,0.0,0.0,0.0,0.0,0.0,0.0,0.0,0.0,0.0,0.0,0.0,0.0,0.0,0.0,0.0,0.0,0.0,0.0,0.0,0.0,0.0,0.0,0.0,0.0,0.0,0.0,0.0,0.0,0.0,0.0,0.0,0.0,0.0,0.0,0.0,0.0,0.0,0.0,0.0,0.0,0.0,0.0,0.0,0.0,0.0,0.0,0.0,0.0,0.0,0.0,0.0,0.0,0.0,0.0,0.0,0.0,0.0,0.0,0.0,0.0,0.0,0.0,0.0,0.0,0.0,0.0,0.0,0.0,0.0,0.0,0.0,0.0,0.0,0.0,0.0,0.0,0.0,0.0,0.0,0.0,0.0,0.0,0.0,0.0,0.0,0.0,0.0,0.0,0.0,0.0,0.0,0.0,0.0,0.0,0.0,0.0,0.0,0.0,0.0,0.0,0.0,0.0,0.0,0.0,0.0,0.0,0.0,0.0,0.0,0.0,0.0,0.0,0.0,0.0,0.0,0.0,0.0,0.0,0.0,0.0,0.0,0.0,0.0,0.0,0.0,0.0,0.0,0.0,0.0,0.0,0.0,0.0,0.0,0.0,0.0,0.0,0.0,0.0,0.0,0.0,0.0,0.0,0.0,0.0,0.0,0.0,0.0,0.0,0.0,0.0,0.0,0.0,0.0,0.0,0.0,0.0,0.0,0.0,0.0,0.0,0.0,0.0,0.0,0.0,0.0,0.0,0.0,0.0,0.0,0.0,0.0,0.0,0.0,0.0,0.0,0.0,0.0,0.0,0.0,0.0,0.0,0.0,0.0,0.0,0.0,0.0,0.0,0.0,0.0,0.0,0.0,0.0,0.0,0.0,0.0,0.0,0.0,0.0,0.0,0.0,0.0,0.0,0.0,0.0,0.0,0.0,0.0,0.0,0.0,0.0,0.0,0.0,0.0,0.0,0.0,0.0,0.0,0.0,0.0,0.0,0.0,0.0,0.0,0.0,0.0,0.0,0.0,0.0,0.0,0.0,0.0,0.0,0.0,0.0,0.0,0.0,0.0,0.0,0.0,0.0,0.0,0.0,0.0,0.0,0.0,0.0,0.0,0.0,0.0,0.0,0.0,0.0,0.0,0.0,0.0,0.0,0.0,0.0,0.0,0.0,0.0,0.0,0.0,0.0,0.0,0.0,0.0,0.0,0.0,0.0,0.0,0.0,0.0,0.0,0.0,0.0,0.0,0.0,0.0,0.0,0.0,0.0,0.0,0.0,0.0,0.0,0.0,0.0,0.0,0.0,0.0,0.0,0.0,0.0,0.0,0.0,0.0,0.0,0.0,0.0,0.0,0.0,0.0,0.0,0.0,0.0,0.0,0.0,0.0,0.0,0.0,0.0,0.0,0.0,0.0,0.0,0.0,0.0,0.0,0.0,0.0,0.0,0.0,0.0,0.0,0.0,0.0,0.0,0.0,0.0,0.0,0.0,0.0,0.0,0.0,0.0,0.0,0.0,0.0,0.0,0.0,0.0,0.0,0.0,0.0,0.0,0.0,0.0,0.0,0.0,0.0,0.0,0.0,0.0,0.0,0.0,0.0,0.0,0.0,0.0,0.0,0.0,0.0,0.0,0.0,0.0,0.0,0.0,0.0,0.0,0.0,0.0,0.0,0.0,0.0,0.0,0.0,0.0,0.0,0.0,0.0,0.0,0.0,0.0,0.0,0.0,0.0,0.0,0.0,0.0,0.0,0.0,0.0,0.0,0.0,0.0,0.0,0.0,0.0,0.0,0.0,0.0,0.0,0.0,0.0,0.0,0.0,0.0,0.0,0.0,0.0,0.0,0.0,0.0,0.0,0.0,0.0,0.0,0.0,0.0,0.0,0.0,0.0,0.0,0.0,0.0,0.0,0.0,0.0,0.0,0.0,0.0,0.0,0.0,0.0,0.0,0.0,0.0,0.0,0.0,0.0,0.0,0.0,0.0,0.0,0.0,0.0,0.0,0.0,0.0,0.0,0.0,0.0,0.0,0.0,0.0,0.0,0.0,0.0,0.0,0.0,0.0,0.0,0.0,0.0,0.0,0.0,0.0,0.0,0.0,0.0,0.0,0.0,0.0,0.0,0.0,0.0,0.0,0.0,0.0,0.0,0.0,0.0,0.0,0.0,0.0,0.0,0.0,0.0,0.0,0.0,0.0,0.0,0.0,0.0,0.0,0.0,0.0,0.0,0.0,0.0,0.0,0.0,0.0,0.0,0.0,0.0,0.0,0.0,0.0,0.0,0.0,0.0,0.0,0.0,0.0,0.0,0.0,0.0,0.0,0.0,0.0,0.0,0.0,0.0,0.0,0.0,0.0,0.0,0.0,0.0,0.0,0.0,0.0,0.0,0.0,0.0,0.0,0.0,0.0,0.0,0.0,0.0,0.0,0.0,0.0,0.0,0.0,0.0,0.0,0.0,0.0,0.0,0.0,0.0,0.0,0.0,0.0,0.0,0.0,0.0,0.0,0.0,0.0,0.0,0.0,0.0,0.0,0.0,0.0,0.0,0.0,0.0,0.0,0.0,0.0,0.0,0.0,0.0,0.0,0.0,0.0,0.0,0.0,0.0,0.0,0.0,0.0,0.0,0.0,0.0,0.0,0.0,0.0,0.0,0.0,0.0,0.0,0.0,0.0,0.0,0.0,0.0,0.0,0.0,0.0,0.0,0.0,0.0,0.0,0.0,0.0,0.0,0.0,0.0,0.0,0.0,0.0,0.0,0.0,0.0,0.0,0.0,0.0,0.0,0.0,0.0,0.0,0.0,0.0,0.0,0.0,0.0,0.0,0.0,0.0,0.0,0.0,0.0,0.0,0.0,0.0,0.0,0.0,0.0,0.0,0.0,0.0,0.0,0.0,0.0,0.0,0.0,0.0,0.0,0.0,0.0,0.0,0.0,0.0,0.0,0.0,0.0,0.0,0.0,0.0,0.0,0.0,0.0,0.0,0.0,0.0,0.0,0.0,0.0,0.0,0.0,0.0,0.0,0.0,0.0,0.0,0.0,0.0,0.0,0.0,0.0,0.0,0.0,0.0,0.0,0.0,0.0,0.0,0.0,0.0,0.0,0.0,0.0,0.0,0.0,0.0,0.0,0.0,0.0,0.0,0.0,0.0,0.0,0.0,0.0,0.0,0.0,0.0,0.0,0.0,0.0,0.0,0.0,0.0,0.0,0.0,0.0,0.0,0.7638,0.0,0.0,0.0,0.0,0.0,0.0,0.0,0.0,0.0,0.0,0.0,0.0,0.0,0.0,0.0,0.0,0.0,0.0,0.0,0.0,0.0,0.0,0.0,0.0,0.0,0.0,0.0,0.0,0.0,0.0,0.0,0.0,0.0,0.0,0.0,0.0,0.0,0.0,0.0,0.0,0.0,0.0,0.0,0.0,0.0,0.0,0.0,0.0,0.0,0.0,0.0,0.0,0.0,0.0,0.0,0.0,0.0,0.0,0.0,0.0,0.0,0.0,0.0,0.0,0.0,0.0,0.0,0.0,0.0,0.0,0.0,0.0,0.0,0.0,0.0,0.0,0.0,0.0,0.0,0.0,0.0,0.0,0.0,0.0,0.0,0.0,0.0,0.0,0.0,0.0,0.0,0.0,0.0,0.0,0.0,0.0,0.0,0.0,0.0,0.0,0.0,0.0,0.0,0.0,0.0,0.0,0.0,0.0,0.0,0.0,0.7736,0.7983,0.7573,0.7427,0.7598,0.0,0.0,0.0,0.0,0.0,0.0,0.0,0.0,0.0,0.0,0.0,0.0,0.0,0.0,0.0,0.0,0.0,0.0,0.0,0.0,0.0,0.0,0.0,0.0,0.0,0.0,0.0,0.0,0.0,0.0,0.0,0.0,0.0,0.0,0.0,0.0,0.0,0.0,0.0,0.0,0.0,0.0,0.0,0.0,0.0,0.0,0.0,0.0,0.0,0.0,0.0,0.0,0.0,0.0,0.0,0.0,0.0,0.0,0.0,0.0,0.0,0.0,0.0,0.0,0.0,0.0,0.0,0.0,0.0,0.0,0.0,0.0,0.0,0.0,0.0,0.0,0.0,0.0,0.0,0.0,0.0,0.0,0.0,0.0,0.0,0.0,0.0,0.0,0.0,0.0,0.0,0.0,0.0,0.0,0.0,0.0,0.0,0.0,0.0,0.0,0.0,0.0,0.0,0.0,0.0,0.0,0.0,0.0,0.0,0.0,0.0,0.0,0.7736,0.763,0.772,0.0,0.0,0.0,0.0,0.0,0.0,0.0,0.0,0.0,0.0,0.0,0.0,0.0,0.0,0.0,0.0,0.0,0.0,0.0,0.0,0.0,0.0,0.0,0.0,0.0,0.0,0.0,0.0,0.0,0.0,0.0,0.0,0.0,0.0,0.0,0.0,0.0,0.0,0.0,0.0,0.0,0.0,0.0,0.0,0.0,0.0,0.0,0.0,0.0,0.0,0.0,0.0,0.0,0.0,0.0,0.0,0.0,0.0,0.0,0.0,0.0,0.0,0.0,0.0,0.0,0.0,0.0,0.0,0.0,0.0,0.0,0.0,0.0,0.0,0.0,0.0,0.0,0.0,0.0,0.0,0.0,0.0,0.0,0.0,0.0,0.0,0.0,0.0,0.0,0.0,0.0,0.0,0.0,0.0,0.0,0.0,0.0,0.0,0.0,0.0,0.0,0.0,0.0,0.0,0.0,0.0,0.0,0.0,0.0,0.0,0.8377,0.871,0.8686,0.0,0.8455,0.0,0.0,0.0,0.0,0.0,0.0,0.0,0.0,0.0,0.0,0.0,0.0,0.0,0.0,0.0,0.0,0.0,0.0,0.0,0.0,0.0,0.0,0.0,0.0,0.0,0.0,0.0,0.0,0.0,0.0,0.0,0.0,0.0,0.0,0.0,0.0,0.0,0.0,0.0,0.0,0.0,0.0,0.0,0.0,0.0,0.0,0.0,0.0,0.0,0.0,0.0,0.0,0.0,0.0,0.0,0.0,0.0,0.0,0.0,0.0,0.0,0.0,0.0,0.0,0.0,0.0,0.0,0.0,0.0,0.0,0.0,0.0,0.0,0.0,0.0,0.0,0.0,0.0,0.0,0.0,0.0,0.0,0.0,0.0,0.0,0.0,0.0,0.0,0.0,0.0,0.0,0.0,0.0,0.0,0.0,0.0,0.0,0.0,0.0,0.0,0.0,0.0,0.0,0.0,0.0,0.0,0.0,0.0,0.0,0.0,0.8195,0.8662,0.8484,0.8305,0.0,0.0,0.0,0.0,0.0,0.0,0.0,0.0,0.0,0.0,0.0,0.0,0.0,0.0,0.0,0.0,0.0,0.0,0.0,0.0,0.0,0.0,0.0,0.0,0.0,0.0,0.0,0.0,0.0,0.0,0.0,0.0,0.0,0.0,0.0,0.0,0.0,0.0,0.0,0.0,0.0,0.0,0.0,0.0,0.0,0.0,0.0,0.0,0.0,0.0,0.0,0.0,0.0,0.0,0.0,0.0,0.0,0.0,0.0,0.0,0.0,0.0,0.0,0.0,0.0,0.0,0.0,0.0,0.0,0.0,0.0,0.0,0.0,0.0,0.0,0.0,0.0,0.0,0.0,0.0,0.0,0.0,0.0,0.0,0.0,0.0,0.0,0.0,0.0,0.0,0.0,0.0,0.0,0.0,0.0,0.0,0.0,0.0,0.0,0.0,0.0,0.0,0.0,0.0,0.0,0.0,0.0,0.0,0.0,0.0,0.8061,0.8308,0.8713,0.8296,0.8013,0.7823,0.0,0.0,0.0,0.0,0.0,0.0,0.0,0.0,0.0,0.0,0.0,0.0,0.0,0.0,0.0,0.0,0.0,0.0,0.0,0.0,0.0,0.0,0.0,0.0,0.0,0.0,0.0,0.0,0.0,0.0,0.0,0.0,0.0,0.0,0.0,0.0,0.0,0.0,0.0,0.0,0.0,0.0,0.0,0.0,0.0,0.0,0.0,0.0,0.0,0.0,0.0,0.0,0.0,0.0,0.0,0.0,0.0,0.0,0.0,0.0,0.0,0.0,0.0,0.0,0.0,0.0,0.0,0.0,0.0,0.0,0.0,0.0,0.0,0.0,0.0,0.0,0.0,0.0,0.0,0.0,0.0,0.0,0.0,0.0,0.0,0.0,0.0,0.0,0.0,0.0,0.0,0.0,0.0,0.0,0.0,0.0,0.0,0.0,0.0,0.0,0.0,0.0,0.0,0.0,0.0,0.0,0.0,0.0,0.9421,0.9007,0.8926,0.9205,0.8228,0.777,0.0,0.0,0.0,0.0,0.0,0.0,0.0,0.0,0.0,0.0,0.0,0.0,0.0,0.0,0.0,0.0,0.0,0.0,0.0,0.0,0.0,0.0,0.0,0.0,0.0,0.0,0.0,0.0,0.0,0.0,0.0,0.0,0.0,0.0,0.0,0.0,0.0,0.0,0.0,0.0,0.0,0.0,0.0,0.0,0.0,0.0,0.0,0.0,0.0,0.0,0.0,0.0,0.0,0.0,0.0,0.0,0.0,0.0,0.0,0.0,0.0,0.0,0.0,0.0,0.0,0.0,0.0,0.0,0.0,0.0,0.0,0.0,0.0,0.0,0.0,0.0,0.0,0.0,0.0,0.0,0.0,0.0,0.0,0.0,0.0,0.0,0.0,0.0,0.0,0.0,0.0,0.0,0.0,0.0,0.0,0.0,0.0,0.0,0.0,0.0,0.0,0.0,0.0,0.0,0.0,0.0,0.0,0.0,0.0,0.8235,0.8511,0.88,0.8979,0.8263,0.7906,0.0,0.0,0.0,0.0,0.0,0.0,0.0,0.0,0.0,0.0,0.0,0.0,0.0,0.0,0.0,0.0,0.0,0.0,0.0,0.0,0.0,0.0,0.0,0.0,0.0,0.0,0.0,0.0,0.0,0.0,0.0,0.0,0.0,0.0,0.0,0.0,0.0,0.0,0.0,0.0,0.0,0.0,0.0,0.0,0.0,0.0,0.0,0.0,0.0,0.0,0.0,0.0,0.0,0.0,0.0,0.0,0.0,0.0,0.0,0.0,0.0,0.0,0.0,0.0,0.0,0.0,0.0,0.0,0.0,0.0,0.0,0.0,0.0,0.0,0.0,0.0,0.0,0.0,0.0,0.0,0.0,0.0,0.0,0.0,0.0,0.0,0.0,0.0,0.0,0.0,0.0,0.0,0.0,0.0,0.0,0.0,0.0,0.0,0.0,0.0,0.0,0.0,0.0,0.0,0.0,0.0,0.0,0.0,0.0,0.7845,0.0,0.8861,0.8551,0.8124,0.7872,0.0,0.0,0.0,0.0,0.0,0.0,0.0,0.0,0.0,0.0,0.0,0.0,0.0,0.0,0.0,0.0,0.0,0.0,0.0,0.0,0.0,0.0,0.0,0.0,0.0,0.0,0.0,0.0,0.0,0.0,0.0,0.0,0.0,0.0,0.0,0.0,0.0,0.0,0.0,0.0,0.0,0.0,0.0,0.0,0.0,0.0,0.0,0.0,0.0,0.0,0.0,0.0,0.0,0.0,0.0,0.0,0.0,0.0,0.0,0.0,0.0,0.0,0.0,0.0,0.0,0.0,0.0,0.0,0.0,0.0,0.0,0.0,0.0,0.0,0.0,0.0,0.0,0.0,0.0,0.0,0.0,0.0,0.0,0.0,0.0,0.0,0.0,0.0,0.0,0.0,0.0,0.0,0.0,0.0,0.0,0.0,0.0,0.0,0.0,0.0,0.0,0.0,0.0,0.0,0.0,0.0,0.0,0.0,0.7837,0.8524,0.9202,0.9127,0.8236,0.8037,0.7548,0.0,0.0,0.0,0.0,0.0,0.0,0.0,0.0,0.0,0.0,0.0,0.0,0.0,0.0,0.0,0.0,0.0,0.0,0.0,0.0,0.0,0.0,0.0,0.0,0.0,0.0,0.0,0.0,0.0,0.0,0.0,0.0,0.0,0.0,0.0,0.0,0.0,0.0,0.0,0.0,0.0,0.0,0.0,0.0,0.0,0.0,0.0,0.0,0.0,0.0,0.0,0.0,0.0,0.0,0.0,0.0,0.0,0.0,0.0,0.0,0.0,0.0,0.0,0.0,0.0,0.0,0.0,0.0,0.0,0.0,0.0,0.0,0.0,0.0,0.0,0.0,0.0,0.0,0.0,0.0,0.0,0.0,0.0,0.0,0.0,0.0,0.0,0.0,0.0,0.0,0.0,0.0,0.0,0.0,0.0,0.0,0.0,0.0,0.0,0.0,0.0,0.0,0.0,0.0,0.0,0.0,0.0,0.0,0.0,0.768,0.8315,0.8836,0.8967,0.7966,0.7737,0.0,0.0,0.0,0.0,0.0,0.0,0.0,0.0,0.0,0.0,0.0,0.0,0.0,0.0,0.0,0.0,0.0,0.0,0.0,0.0,0.0,0.0,0.0,0.0,0.0,0.0,0.0,0.0,0.0,0.0,0.0,0.0,0.0,0.0,0.0,0.0,0.0,0.0,0.0,0.0,0.0,0.0,0.0,0.0,0.0,0.0,0.0,0.0,0.0,0.0,0.0,0.0,0.0,0.0,0.0,0.0,0.0,0.0,0.0,0.0,0.0,0.0,0.0,0.0,0.0,0.0,0.0,0.0,0.0,0.0,0.0,0.0,0.0,0.0,0.0,0.0,0.0,0.0,0.0,0.0,0.0,0.0,0.0,0.0,0.0,0.0,0.0,0.0,0.0,0.0,0.0,0.0,0.0,0.0,0.0,0.0,0.0,0.0,0.0,0.0,0.0,0.0,0.0,0.0,0.0,0.0,0.0,0.0,0.0,0.8076,0.8721,0.9169,0.9536,0.844,0.8126,0.8718,0.0,0.0,0.0,0.0,0.0,0.0,0.0,0.0,0.0,0.0,0.0,0.0,0.0,0.0,0.0,0.0,0.0,0.0,0.0,0.0,0.0,0.0,0.0,0.0,0.0,0.0,0.0,0.0,0.0,0.0,0.0,0.0,0.0,0.0,0.0,0.0,0.0,0.0,0.0,0.0,0.0,0.0,0.0,0.0,0.0,0.0,0.0,0.0,0.0,0.0,0.0,0.0,0.0,0.0,0.0,0.0,0.0,0.0,0.0,0.0,0.0,0.0,0.0,0.0,0.0,0.0,0.0,0.0,0.0,0.0,0.0,0.0,0.0,0.0,0.0,0.0,0.0,0.0,0.0,0.0,0.0,0.0,0.0,0.0,0.0,0.0,0.0,0.0,0.0,0.0,0.0,0.0,0.0,0.0,0.0,0.0,0.0,0.0,0.0,0.0,0.0,0.0,0.0,0.0,0.0,0.0,0.0,0.0,0.9422,1.018,1.033,0.9883,0.9407,0.8885,0.0,0.0,0.0,0.0,0.0,0.0,0.0,0.0,0.0,0.0,0.0,0.0,0.0,0.0,0.0,0.0,0.0,0.0,0.0,0.0,0.0,0.0,0.0,0.0,0.0,0.0,0.0,0.0,0.0,0.0,0.0,0.0,0.0,0.0,0.0,0.0,0.0,0.0,0.0,0.0,0.0,0.0,0.0,0.0,0.0,0.0,0.0,0.0,0.0,0.0,0.0,0.0,0.0,0.0,0.0,0.0,0.0,0.0,0.0,0.0,0.0,0.0,0.0,0.0,0.0,0.0,0.0,0.0,0.0,0.0,0.0,0.0,0.0,0.0,0.0,0.0,0.0,0.0,0.0,0.0,0.0,0.0,0.0,0.0,0.0,0.0,0.0,0.0,0.0,0.0,0.0,0.0,0.0,0.0,0.0,0.0,0.0,0.0,0.0,0.0,0.0,0.0,0.0,0.0,0.0,0.0,0.0,0.0,0.0,1.0485,1.1728,1.2113,1.1529,1.0065,0.9414,0.0,0.0,0.0,0.0,0.0,0.0,0.0,0.0,0.0,0.0,0.0,0.0,0.0,0.0,0.0,0.0,0.0,0.0,0.0,0.0,0.0,0.0,0.0,0.0,0.0,0.0,0.0,0.0,0.0,0.0,0.0,0.0,0.0,0.0,0.0,0.0,0.0,0.0,0.0,0.0,0.0,0.0,0.0,0.0,0.0,0.0,0.0,0.0,0.0,0.0,0.0,0.0,0.0,0.0,0.0,0.0,0.0,0.0,0.0,0.0,0.0,0.0,0.0,0.0,0.0,0.0,0.0,0.0,0.0,0.0,0.0,0.0,0.0,0.0,0.0,0.0,0.0,0.0,0.0,0.0,0.0,0.0,0.0,0.0,0.0,0.0,0.0,0.0,0.0,0.0,0.0,0.0,0.0,0.0,0.0,0.0,0.0,0.0,0.0,0.0,0.0,0.0,0.0,0.0,0.0,0.0,0.0,0.0,1.048,1.1431,1.2909,1.3566,1.3757,1.1561,1.0427,0.0,0.0,0.0,0.0,0.0,0.0,0.0,0.0,0.0,0.0,0.0,0.0,0.0,0.0,0.0,0.0,0.0,0.0,0.0,0.0,0.0,0.0,0.0,0.0,0.0,0.0,0.0,0.0,0.0,0.0,0.0,0.0,0.0,0.0,0.0,0.0,0.0,0.0,0.0,0.0,0.0,0.0,0.0,0.0,0.0,0.0,0.0,0.0,0.0,0.0,0.0,0.0,0.0,0.0,0.0,0.0,0.0,0.0,0.0,0.0,0.0,0.0,0.0,0.0,0.0,0.0,0.0,0.0,0.0,0.0,0.0,0.0,0.0,0.0,0.0,0.0,0.0,0.0,0.0,0.0,0.0,0.0,0.0,0.0,0.0,0.0,0.0,0.0,0.0,0.0,0.0,0.0,0.0,0.0,0.0,0.0,0.0,0.0,0.0,0.0,0.0,0.0,0.0,0.0,0.0,0.0,0.0,0.0,1.1338,1.2426,1.3792,1.4911,1.5932,1.3365,1.152,0.0,0.0,0.0,0.0,0.0,0.0,0.0,0.0,0.0,0.0,0.0,0.0,0.0,0.0,0.0,0.0,0.0,0.0,0.0,0.0,0.0,0.0,0.0,0.0,0.0,0.0,0.0,0.0,0.0,0.0,0.0,0.0,0.0,0.0,0.0,0.0,0.0,0.0,0.0,0.0,0.0,0.0,0.0,0.0,0.0,0.0,0.0,0.0,0.0,0.0,0.0,0.0,0.0,0.0,0.0,0.0,0.0,0.0,0.0,0.0,0.0,0.0,0.0,0.0,0.0,0.0,0.0,0.0,0.0,0.0,0.0,0.0,0.0,0.0,0.0,0.0,0.0,0.0,0.0,0.0,0.0,0.0,0.0,0.0,0.0,0.0,0.0,0.0,0.0,0.0,0.0,0.0,0.0,0.0,0.0,0.0,0.0,0.0,0.0,0.0,0.0,0.0,0.0,0.0,0.0,0.0,0.0,0.0,1.1876,1.3058,1.5028,1.6223,1.6601,1.3567,1.1793,0.0,0.0,0.0,0.0,0.0,0.0,0.0,0.0,0.0,0.0,0.0,0.0,0.0,0.0,0.0,0.0,0.0,0.0,0.0,0.0,0.0,0.0,0.0,0.0,0.0,0.0,0.0,0.0,0.0,0.0,0.0,0.0,0.0,0.0,0.0,0.0,0.0,0.0,0.0,0.0,0.0,0.0,0.0,0.0,0.0,0.0,0.0,0.0,0.6595,0.0,0.0,0.0,0.0,0.0,0.0,0.0,0.0,0.0,0.0,0.0,0.0,0.0,0.0,0.0,0.0,0.0,0.0,0.0,0.0,0.0,0.0,0.0,0.0,0.0,0.0,0.0,0.0,0.0,0.0,0.0,0.0,0.0,0.0,0.0,0.0,0.0,0.0,0.0,0.0,0.0,0.0,0.0,0.0,0.0,0.0,0.0,0.0,0.0,0.0,0.0,0.0,0.0,0.0,0.0,0.0,0.0,0.0,0.0,1.2119,1.3468,1.5261,1.6416,1.6875,1.4373,1.2805,0.0,0.0,0.0,0.0,0.0,0.0,0.0,0.0,0.0,0.0,0.0,0.0,0.0,0.0,0.0,0.0,0.0,0.0,0.0,0.0,0.0,0.0,0.0,0.0,0.0,0.0,0.0,0.0,0.0,0.0,0.0,0.0,0.0,0.0,0.0,0.0,0.0,0.0,0.0,0.0,0.0,0.0,0.0,0.0,0.0,0.0,0.0,0.0,0.0,0.0,0.0,0.0,0.0,0.0,0.0,0.0,0.0,0.0,0.0,0.0,0.0,0.0,0.0,0.0,0.0,0.0,0.0,0.0,0.0,0.0,0.0,0.0,0.0,0.0,0.0,0.0,0.0,0.0,0.0,0.0,0.0,0.0,0.0,0.0,0.0,0.0,0.0,0.0,0.0,0.0,0.0,0.0,0.0,0.0,0.0,0.0,0.0,0.0,0.0,0.0,0.0,0.0,0.0,0.0,0.0,0.0,0.0,1.0673,1.2155,1.3721,1.5285,1.6369,1.6875,1.5492,1.4058,1.265,0.0,0.0,0.0,0.0,0.0,0.0,0.0,0.0,0.0,0.0,0.0,0.0,0.0,0.0,0.0,0.0,0.0,0.0,0.0,0.0,0.0,0.0,0.0,0.0,0.0,0.0,0.0,0.0,0.0,0.0,0.0,0.0,0.0,0.0,0.0,0.0,0.0,0.0,0.3569,0.4296,0.0,0.0,0.0,0.0,0.0,0.0,0.0,0.0,0.7328,0.0,0.0,0.0,0.0,0.0,0.0,0.0,0.0,0.0,0.0,0.0,0.0,0.0,0.0,0.0,0.0,0.0,0.0,0.0,0.0,0.0,0.0,0.0,0.0,0.0,0.0,0.0,0.0,0.0,0.0,0.0,0.0,0.0,0.0,0.0,0.0,0.0,0.0,0.0,0.0,0.0,0.0,0.0,0.0,0.0,0.0,0.0,0.0,0.0,0.0,0.0,0.0,0.0,0.0,0.0,0.0,0.9659,1.1086,1.2584,1.4253,1.6064,1.6903,1.6669,1.6095,1.476,1.2951,0.0,0.0,0.0,0.0,0.0,0.0,0.0,0.0,0.0,0.0,0.0,0.0,0.0,0.0,0.0,0.0,0.0,0.0,0.0,0.0,0.0,0.0,0.0,0.0,0.0,0.0,0.0,0.0,0.0,0.0,0.0,0.0,0.0,0.0,0.0,0.0,0.0,0.0,0.0,0.4388,0.4819,0.0,0.0,0.0,0.0,0.0,0.0,0.0,0.0,0.8178,0.0,0.0,0.0,0.0,0.0,0.0,0.0,0.0,0.0,0.0,0.0,0.0,0.0,0.0,0.0,0.0,0.0,0.0,0.0,0.0,0.0,0.0,0.0,0.0,0.0,0.0,0.0,0.0,0.0,0.0,0.0,0.0,0.0,0.0,0.0,0.0,0.0,0.0,0.0,0.0,0.0,0.0,0.0,0.0,0.0,0.0,0.0,0.0,0.0,0.0,0.0,0.0,0.0,0.0,0.0,0.9305,1.1073,1.2997,1.4821,1.6089,1.693,1.6874,1.5569,1.4199,0.0,0.0,0.0,0.0,0.0,0.0,0.0,0.0,0.0,0.0,0.0,0.0,0.0,0.0,0.0,0.0,0.0,0.0,0.0,0.0,0.0,0.0,0.0,0.0,0.0,0.0,0.0,0.0,0.0,0.0,0.0,0.0,0.0,0.0,0.0,0.0,0.0,0.0,0.0,0.0,0.4593,0.5075,0.5726,0.0,0.0,0.0,0.0,0.0,0.0,0.7935,0.8271,0.0,0.0,0.0,0.0,0.0,0.0,0.0,0.0,0.0,0.0,0.0,0.0,0.0,0.0,0.0,0.0,0.0,0.0,0.0,0.0,0.0,0.0,0.0,0.0,0.0,0.0,0.0,0.0,0.0,0.0,0.0,0.0,0.0,0.0,0.0,0.0,0.0,0.0,0.0,0.0,0.0,0.0,0.0,0.0,0.0,0.0,0.0,0.0,0.0,0.0,0.0,0.0,0.0,0.0,0.0,0.8689,1.0966,1.3095,1.5202,1.6025,1.6625,1.6997,1.4986,1.3485,0.0,0.0,0.0,0.0,0.0,0.0,0.0,0.0,0.0,0.0,0.0,0.0,0.0,0.0,0.0,0.0,0.0,0.0,0.0,0.0,0.0,0.0,0.0,0.0,0.0,0.0,0.0,0.0,0.0,0.0,0.0,0.0,0.0,0.0,0.0,0.0,0.0,0.0,0.0,0.0,0.0,0.5359,0.6089,0.6432,0.0,0.0,0.0,0.0,0.7838,0.8406,0.0,0.0,0.0,0.0,0.0,0.0,0.0,0.0,0.0,0.0,0.0,0.0,0.0,0.0,0.0,0.0,0.0,0.0,0.0,0.0,0.0,0.0,0.0,0.0,0.0,0.0,0.0,0.0,0.0,0.0,0.0,0.0,0.0,0.0,0.0,0.0,0.0,0.0,0.0,0.0,0.0,0.0,0.0,0.0,0.0,0.0,0.0,0.0,0.0,0.0,0.0,0.0,0.0,0.0,0.0,0.0,0.8336,1.0639,1.2917,1.4982,1.5951,1.649,1.6712,1.5003,1.3627,0.0,0.0,0.0,0.0,0.0,0.0,0.0,0.0,0.0,0.0,0.0,0.0,0.0,0.0,0.0,0.0,0.0,0.0,0.0,0.0,0.0,0.0,0.0,0.0,0.0,0.0,0.0,0.0,0.0,0.0,0.0,0.0,0.0,0.0,0.0,0.0,0.0,0.0,0.0,0.0,0.0,0.5503,0.5634,0.6171,0.6467,0.0,0.0,0.8581,0.851,1.044,0.0,0.0,0.0,0.0,0.0,0.0,0.0,0.0,0.0,0.0,0.0,0.0,0.0,0.0,0.0,0.0,0.0,0.0,0.0,0.0,0.0,0.0,0.0,0.0,0.0,0.0,0.0,0.0,0.0,0.0,0.0,0.0,0.0,0.0,0.0,0.0,0.0,0.0,0.0,0.0,0.0,0.0,0.0,0.0,0.0,0.0,0.0,0.0,0.0,0.0,0.0,0.0,0.0,0.0,0.0,0.7875,0.8128,1.0801,1.3189,1.522,1.5631,1.6118,1.6791,1.4137,1.2405,0.0,0.0,0.0,0.0,0.0,0.0,0.0,0.0,0.0,0.0,0.0,0.0,0.0,0.0,0.0,0.0,0.0,0.0,0.0,0.0,0.0,0.0,0.0,0.0,0.0,0.0,0.0,0.0,0.0,0.0,0.0,0.0,0.0,0.0,0.0,0.0,0.0,0.0,0.0,0.0,0.0,0.0,0.5827,0.6777,0.0,0.0,0.0,0.9196,0.9379,0.0,0.0,0.0,0.0,0.0,0.0,0.0,0.0,0.0,0.0,0.0,0.0,0.0,0.0,0.0,0.0,0.0,0.0,0.0,0.0,0.0,0.0,0.0,0.0,0.0,0.0,0.0,0.0,0.0,0.0,0.0,0.0,0.0,0.0,0.0,0.0,0.0,0.0,0.0,0.0,0.0,0.0,0.0,0.0,0.0,0.0,0.0,0.0,0.0,0.0,0.0,0.0,0.0,0.0,0.0,0.0,0.0,0.7939,1.0891,1.3387,1.5386,1.5503,1.5914,1.6674,1.3693,0.0,0.0,0.0,0.0,0.0,0.0,0.0,0.0,0.0,0.0,0.0,0.0,0.0,0.0,0.0,0.0,0.0,0.0,0.0,0.0,0.0,0.0,0.0,0.0,0.0,0.0,0.0,0.2824,0.0,0.0,0.0,0.0,0.0,0.0,0.0,0.0,0.0,0.0,0.0,0.0,0.0,0.0,0.6176,0.6007,0.7176,0.8089,0.0,0.0,0.9868,1.0315,1.1217,1.1456,0.0,0.0,0.0,0.0,0.0,0.0,0.0,0.0,0.0,0.0,0.0,0.0,0.0,0.0,0.0,0.0,0.0,0.0,0.0,0.0,0.0,0.0,0.0,0.0,0.0,0.0,0.0,0.0,0.0,0.0,0.0,0.0,0.0,0.0,0.0,0.0,0.0,0.0,0.0,0.0,0.0,0.0,0.0,0.0,0.0,0.0,0.0,0.0,0.0,0.0,0.0,0.0,0.0,0.0,0.0,0.7936,1.0669,1.3131,1.5367,1.5356,1.5623,1.6236,1.441,1.2687,0.0,0.0,0.0,0.0,0.0,0.0,0.0,0.0,0.0,0.0,0.0,0.0,0.0,0.0,0.0,0.0,0.0,0.0,0.0,0.0,0.0,0.0,0.0,0.0,0.0,0.0,0.0,0.0,0.0,0.0,0.0,0.0,0.0,0.0,0.0,0.0,0.0,0.0,0.0,0.0,0.0,0.6491,0.6074,0.7138,0.8217,0.0,0.0,1.1002,1.1377,1.3212,1.3629,1.0829,0.0,0.0,0.0,0.0,0.0,0.0,0.0,0.0,0.0,0.0,0.0,0.0,0.0,0.0,0.0,0.0,0.0,0.0,0.0,0.0,0.0,0.0,0.0,0.0,0.0,0.0,0.0,0.0,0.0,0.0,0.0,0.0,0.0,0.0,0.0,0.0,0.0,0.0,0.0,0.0,0.0,0.0,0.0,0.0,0.0,0.0,0.0,0.0,0.0,0.0,0.0,0.0,0.0,0.7268,0.7799,1.1012,1.3429,1.4936,1.5284,1.564,1.6102,1.398,1.2229,0.0,0.0,0.0,0.0,0.0,0.0,0.0,0.0,0.0,0.0,0.0,0.0,0.0,0.0,0.0,0.0,0.0,0.0,0.0,0.0,0.0,0.0,0.0,0.0,0.0,0.0,0.0,0.0,0.2636,0.2453,0.2284,0.0,0.0,0.0,0.0,0.0,0.0,0.0,0.0,0.0,0.0,0.7568,0.8004,0.899,0.0,0.0,1.1102,1.1785,1.1853,1.2692,1.257,1.0402,1.006,0.0,0.0,0.0,0.0,0.0,0.0,0.0,0.0,0.0,0.0,0.0,0.0,0.0,0.0,0.0,0.0,0.0,0.0,0.0,0.0,0.0,0.0,0.0,0.0,0.0,0.0,0.0,0.0,0.0,0.0,0.0,0.0,0.0,0.0,0.0,0.0,0.0,0.0,0.0,0.0,0.0,0.0,0.0,0.0,0.0,0.0,0.0,0.0,0.0,0.0,0.0,0.0,0.6927,0.7741,1.0958,1.33,1.4515,1.4838,1.5221,1.5709,1.3907,1.2204,0.0,0.0,0.0,0.0,0.0,0.0,0.0,0.0,0.0,0.0,0.0,0.0,0.0,0.0,0.0,0.0,0.0,0.0,0.0,0.0,0.0,0.0,0.0,0.0,0.0,0.0,0.0,0.0,0.2368,0.2241,0.2503,0.0,0.0,0.0,0.0,0.0,0.0,0.0,0.0,0.0,0.0,0.8393,0.892,0.9852,1.0507,1.0694,1.1312,1.182,1.1915,1.2109,1.1682,1.0132,0.0,0.0,0.0,0.0,0.0,0.0,0.0,0.0,0.0,0.0,0.0,0.0,0.0,0.0,0.0,0.0,0.0,0.0,0.0,0.0,0.0,0.0,0.0,0.0,0.0,0.0,0.0,0.0,0.0,0.0,0.0,0.0,0.0,0.0,0.0,0.0,0.0,0.0,0.0,0.0,0.0,0.0,0.0,0.0,0.0,0.0,0.0,0.0,0.0,0.0,0.0,0.0,0.0,0.6924,0.7741,1.0284,1.2496,1.4288,1.4109,1.441,1.5157,1.4304,1.3025,1.1442,0.0,0.0,0.0,0.0,0.0,0.0,0.0,0.0,0.0,0.0,0.0,0.0,0.0,0.0,0.0,0.0,0.0,0.0,0.0,0.0,0.0,0.0,0.0,0.0,0.0,0.0,0.2146,0.2314,0.2728,0.0,0.0,0.0,0.0,0.0,0.0,0.0,0.0,0.0,0.0,0.7936,0.888,0.8254,0.9113,0.9904,1.0176,1.0428,1.0846,1.1506,1.1822,1.1625,0.0,0.0,0.0,0.0,0.0,0.0,0.0,0.0,0.0,0.0,0.0,0.0,0.0,0.0,0.0,0.0,0.0,0.0,0.0,0.0,0.0,0.0,0.0,0.0,0.0,0.0,0.0,0.0,0.893,0.0,0.0,0.0,0.0,0.0,0.0,0.0,0.0,0.0,0.0,0.0,0.8897,0.8787,0.0,0.0,0.0,0.0,0.0,0.0,0.0,0.0,0.0,0.0,0.0,0.0,0.7273,0.7935,1.1102,1.3251,1.4071,1.4746,1.509,1.5135,1.432,1.2902,1.1021,0.0,0.0,0.0,0.0,0.0,0.0,0.0,0.0,0.0,0.0,0.0,0.0,0.0,0.0,0.0,0.0,0.0,0.0,0.0,0.0,0.0,0.0,0.0,0.0,0.0,0.3078,0.0,0.0,0.0,0.0,0.0,0.0,0.0,0.0,0.0,0.0,0.0,0.6299,0.7773,0.8215,0.8644,0.9172,0.963,1.0192,0.0,0.0,0.0,0.0,0.0,0.0,0.0,0.0,0.0,0.0,0.0,0.0,0.0,0.0,0.8437,0.847,0.8715,0.8802,0.8462,0.0,0.0,0.0,0.0,0.0,0.0,0.0,0.0,0.0,0.0,0.0,0.0,0.0,0.0,0.0,0.0,0.9103,0.0,0.0,0.0,0.0,0.0,0.0,0.0,0.0,0.8885,0.9108,0.9263,0.9149,0.9157,0.0,0.9027,0.8524,0.0,0.0,0.0,0.0,0.0,0.0,0.0,0.0,0.7465,0.8382,1.1533,1.3589,1.4212,1.4878,1.5131,1.5112,1.4035,1.2694,1.1223,0.9766,0.8765,0.0,0.0,0.0,0.0,0.0,0.0,0.0,0.0,0.0,0.0,0.0,0.0,0.0,0.0,0.0,0.0,0.0,0.0,0.0,0.0,0.0,0.0,0.0,0.3299,0.0,0.0,0.0,0.0,0.0,0.0,0.0,0.0,0.0,0.4531,0.5494,0.6716,0.8243,0.8609,0.8899,0.9328,0.0,0.0,0.0,0.0,0.0,0.0,0.0,0.9369,0.8658,0.918,0.9721,0.9838,0.9813,0.9765,1.0053,0.0,0.0,0.9349,0.9624,0.9877,0.9697,0.9603,0.9749,1.0353,1.0466,1.0547,0.0,0.0,0.0,0.0,0.0,0.0,0.0,0.0,0.9161,0.9254,0.0,0.921,0.0,0.0,0.0,0.0,0.0,0.0,0.0,0.0,0.949,0.9624,0.9169,0.9169,0.9157,0.9149,0.9153,0.9047,0.8836,0.8333,0.0,0.0,0.0,0.0,0.0,0.0,0.7591,0.9127,1.148,1.3268,1.4475,1.4402,1.4525,1.4837,1.3518,1.2565,1.2054,1.0974,1.0115,0.9402,0.8684,0.0,0.0,0.0,0.0,0.0,0.0,0.0,0.0,0.0,0.0,0.0,0.0,0.0,0.0,0.0,0.0,0.0,0.0,0.0,0.0,0.3321,0.0,0.0,0.0,0.0,0.0,0.0,0.0,0.0,0.0,0.0,0.4339,0.5923,0.725,0.7762,0.0,0.0,0.0,0.0,0.9315,0.7958,0.8211,0.8574,0.8336,0.9163,0.9891,0.9748,0.0,0.0,1.1458,1.0629,1.0144,1.0356,1.0898,1.1001,1.0086,1.043,1.084,1.0795,1.1027,1.1234,1.1268,1.1154,1.0731,1.3217,0.0,0.0,0.0,0.0,0.9616,0.988,1.0229,1.0107,1.0006,0.9912,0.9608,0.0,0.0,0.0,0.0,0.0,0.0,0.9505,0.9522,0.9904,1.0046,0.9985,1.0156,1.0233,1.0225,0.9977,0.9827,0.9762,0.9364,0.8754,0.8042,0.0,0.0,0.0,0.0,0.8133,0.9214,1.1533,1.3041,1.3678,1.4142,1.4399,1.4396,1.3497,1.2786,1.2318,1.1476,1.0517,0.9428,0.92,0.0,0.0,0.0,0.0,0.0,0.0,0.0,0.0,0.0,0.0,0.0,0.0,0.0,0.0,0.0,0.0,0.0,0.0,0.0,0.3982,0.3634,0.3381,0.0,0.0,0.0,0.0,0.0,0.0,0.0,0.0,0.0,0.5146,0.5918,0.7031,0.0,0.0,0.7882,0.8063,0.8413,0.882,0.9246,0.0,0.0,0.0,1.0071,0.9836,0.9624,1.0749,1.1689,1.1868,1.2201,1.2337,1.1977,1.243,1.2595,1.1928,1.2212,1.257,1.2619,1.2759,1.2955,1.3124,1.3129,1.3093,1.3994,1.2134,1.1235,1.0597,1.0006,1.0144,1.0387,1.0684,1.0582,1.0473,1.0355,1.0075,0.9689,0.9234,0.9064,0.0,0.0,0.0,0.9717,0.9998,1.0188,1.0343,1.0485,1.0627,1.0692,1.068,1.0477,1.0375,1.0363,0.9937,0.9462,0.8922,0.0,0.0,0.7755,0.8236,0.9014,1.0149,1.2068,1.337,1.3919,1.4275,1.4379,1.4051,1.3529,1.299,1.2431,1.1727,1.0914,0.9897,0.9408,0.8591,0.0,0.0,0.0,0.0,0.0,0.0,0.0,0.0,0.0,0.0,0.0,0.3222,0.2625,0.0,0.0,0.0,0.3614,0.4035,0.411,0.3683,0.0,0.0,0.0,0.0,0.0,0.0,0.0,0.4188,0.4875,0.5551,0.5871,0.6489,0.7365,0.8622,0.8562,0.8423,0.8551,0.0,0.9313,0.9656,0.9778,1.003,1.0647,1.0602,1.0539,1.0664,1.1269,1.1875,1.2212,1.2731,1.302,1.2961,1.3243,1.3451,1.3385,1.3766,1.3957,1.3735,1.3865,1.4066,1.4276,1.4249,1.4345,1.5079,1.259,1.1625,1.0949,1.0322,1.0655,1.0789,1.0777,1.0781,1.0753,1.07,1.0517,1.0225,0.9855,0.9713,0.0,0.0,0.9847,1.0026,1.0209,1.0375,1.0538,1.0692,1.0692,1.0692,1.0692,1.0692,1.0692,1.0664,1.0188,0.9937,0.9896,0.9371,0.8913,0.8843,0.9076,0.994,1.1423,1.2734,1.3816,1.4821,1.46,1.4261,1.3803,1.355,1.3082,1.2393,1.1657,1.1123,1.0502,0.9354,0.8552,0.823,0.0,0.0,0.0,0.0,0.0,0.0,0.0,0.0,0.0,0.0,0.0,0.0,0.0,0.0,0.0,0.3266,0.0,0.4036,0.3503,0.0,0.0,0.0,0.376,0.4174,0.4925,0.5489,0.5649,0.0,0.0,0.0,0.0,0.8056,0.8775,0.9838,1.0334,0.9711,1.0142,1.0314,0.9644,0.9869,1.0232,1.0502,1.0955,1.1509,1.2108,1.2233,1.2102,1.2378,1.2541,1.2796,1.3247,1.3521,1.3721,1.4515,1.4781,1.4916,1.4339,1.4515,1.4721,1.4731,1.474,1.4611,1.3427,1.266,1.2258,1.1758,1.1415,1.1622,1.1638,1.152,1.152,1.1289,1.0883,1.0574,1.016,0.9693,0.9782,0.99,1.0042,1.0221,1.04,1.0566,1.0611,1.0655,1.0692,1.0692,1.0692,1.0692,1.0692,1.0692,1.0688,1.0566,1.0363,1.0095,0.9669,0.9143,0.873,0.8831,0.9547,1.0914,1.184,1.2976,1.4331,1.4116,1.3852,1.3566,1.2851,1.2219,1.1898,1.1191,1.0549,0.993,0.9118,0.817,0.6911,0.5973,0.0,0.0,0.0,0.0,0.0,0.0,0.0,0.0,0.0,0.3302,0.366,0.0,0.3641,0.0,0.3251,0.3407,0.4059,0.3443,0.0,0.0,0.3497,0.4007,0.4069,0.5044,0.5697,0.5586,0.5828,0.6175,0.6459,0.7349,0.8287,0.9427,0.9828,0.998,1.0108,1.0562,1.0821,1.0718,1.1246,1.1717,1.1525,1.1531,1.1667,1.2029,1.2022,1.2087,1.2467,1.2526,1.2639,1.304,1.3557,1.3987,1.4257,1.4698,1.4907,1.4662,1.4777,1.5007,1.5017,1.5007,1.5065,1.3506,1.282,1.2621,1.2381,1.213,1.2146,1.2097,1.2008,1.1922,1.1675,1.1301,1.0867,1.0461,1.0111,1.0201,1.0302,1.0404,1.0501,1.0603,1.0696,1.0777,1.0769,1.0696,1.0777,1.0773,1.0692,1.0692,1.0692,1.0692,1.0692,1.059,1.04,1.0192,0.9705,0.9182,0.9212,0.9624,1.0416,1.1625,1.2875,1.4164,1.3949,1.3501,1.2762,1.2109,1.1273,1.0413,0.9751,0.9143,0.8633,0.7841,0.7057,0.6237,0.5474,0.4779,0.0,0.0,0.0,0.0,0.0,0.0,0.0,0.0,0.0,0.0,0.0,0.3911,0.0,0.3216,0.0,0.3433,0.2994,0.2722,0.2704,0.3629,0.4298,0.4345,0.5499,0.6244,0.6171,0.6467,0.6698,0.6945,0.7698,0.8646,0.9788,1.017,1.056,1.1051,1.1442,1.1611,1.1702,1.2063,1.2315,1.2169,1.1971,1.1831,1.1977,1.1911,1.1889,1.2065,1.2094,1.2345,1.2987,1.3447,1.3821,1.4327,1.435,1.4359,1.4198,1.403,1.418,1.4705,1.4983,1.5221,1.4379,1.2873,1.2848,1.2731,1.2552,1.2426,1.2337,1.2259,1.2097,1.1922,1.1711,1.1216,1.0911,1.0761,1.0761,1.0761,1.0761,1.0761,1.0761,1.0769,1.0928,1.0923,1.0794,1.0911,1.0907,1.0785,1.072,1.0704,1.0729,1.0704,1.0668,1.0623,1.0627,1.0341,0.9788,0.9807,0.9945,1.031,1.1914,1.3164,1.3976,1.3556,1.2754,1.1626,1.1154,1.0163,0.87,0.7999,0.759,0.7182,0.6313,0.578,0.5811,0.5075,0.4452,0.0,0.3424,0.0,0.0,0.0,0.0,0.0,0.0,0.0,0.0,0.3968,0.4035,0.3635,0.3203,0.2853,0.274,0.2604,0.2633,0.2959,0.3823,0.4522,0.4831,0.592,0.6712,0.6968,0.7127,0.7289,0.7516,0.8165,0.8998,0.9814,1.0536,1.1292,1.2071,1.2231,1.2318,1.2558,1.2393,1.2241,1.2258,1.2102,1.1948,1.1926,1.1765,1.163,1.1652,1.1597,1.1941,1.285,1.3103,1.339,1.4291,1.3983,1.3563,1.3381,1.2964,1.2997,1.4022,1.4628,1.5096,1.3514,1.3035,1.2897,1.2731,1.2576,1.2686,1.2483,1.2081,1.2044,1.1849,1.1541,1.1285,1.1155,1.1122,1.1122,1.1122,1.1122,1.1122,1.1122,1.1122,1.1159,1.1097,1.1141,1.1062,1.1074,1.1121,1.0879,1.0769,1.0915,1.0765,1.0546,1.027,1.0055,0.9776,0.0,0.0,0.0,0.0,1.2223,1.2905,1.3065,1.1722,1.0827,1.0464,0.9358,0.0,0.8143,0.7553,0.7211,0.7132,0.5907,0.0,0.0,0.0,0.0,0.0,0.0,0.0,0.0,0.0,0.0,0.0,0.425,0.4237,0.4117,0.3769,0.3487,0.3211,0.3057,0.3029,0.3235,0.3149,0.3099,0.3197,0.3806,0.4486,0.4986,0.5667,0.6399,0.7078,0.7208,0.7289,0.7524,0.8169,0.8998,0.9793,1.0576,1.1316,1.1906,1.229,1.243,1.2257,1.2067,1.1969,1.1948,1.1803,1.1684,1.1633,1.1611,1.1622,1.156,1.1435,1.1615,1.2397,1.232,1.2451,1.307,1.307,1.2887,1.2696,1.2573,1.2661,1.3271,1.3819,1.4519,1.321,0.0,1.2873,1.2731,0.0,1.2666,1.2446,1.2032,1.2125,1.1918,1.1496,1.1403,1.1309,1.122,1.122,1.1175,1.1098,1.1098,1.1049,1.0968,1.1053,1.1028,1.0985,1.0936,1.1001,1.0928,1.0806,1.0745,1.0822,1.0737,1.0603,1.0428,1.0317,1.0122,1.006,1.1076,1.186,1.2374,1.27,1.2915,1.32,1.2159,1.1267,1.0631,0.0,0.0,0.0,0.0,0.0,0.0,0.0,0.0,0.0,0.0,0.0,0.3295,0.3225,0.3381,0.3708,0.3613,0.373,0.3994,0.4073,0.4101,0.4072,0.3754,0.3564,0.3346,0.327,0.3291,0.336,0.3281,0.3226,0.323,0.3787,0.4407,0.5041,0.5704,0.6456,0.7064,0.7301,0.7362,0.7354,0.8116,0.89,0.9458,1.0317,1.1112,1.1596,1.1975,1.2152,1.1854,1.1885,1.1855,1.1696,1.1621,1.1622,1.156,1.149,1.1435,1.1428,1.131,1.1428,1.1911,1.1973,1.2089,1.2512,1.2397,1.2158,1.2027,1.1779,1.1645,1.1899,1.279,1.3716,1.3206,1.2885,1.2881,1.2759,1.2568,1.2596,1.2406,1.2085,0.0,0.0,0.0,1.1549,1.1464,1.1321,1.1321,1.1244,1.1114,1.111,1.1013,1.0842,1.0992,1.0952,1.0838,1.0888,1.0903,1.0785,1.0757,1.0741,1.0741,1.0741,1.0724,1.0696,1.0692,1.0692,1.0911,1.1896,1.268,1.335,1.2951,1.2987,1.3471,1.2735,1.1765,1.0778,0.9989,0.8926,0.7621,0.7488,0.671,0.5182,0.5316,0.4781,0.3455,0.3752,0.3837,0.336,0.3417,0.3563,0.371,0.3499,0.3533,0.3754,0.3841,0.3853,0.3847,0.3817,0.3699,0.3609,0.3524,0.3438,0.3348,0.3273,0.3226,0.3228,0.3721,0.4274,0.4929,0.5607,0.6289,0.6966,0.7287,0.7403,0.7301,0.8191,0.8901,0.9317,1.0201,1.091,1.125,1.1612,1.1737,1.1661,1.1739,1.1781,1.1648,1.1567,1.156,1.1498,1.1365,1.124,1.1247,1.1122,1.1247,1.174,1.1747,1.1794,1.2151,1.1787,1.1358,1.1358,1.0989,1.0618,1.0701,1.1694,1.2654,1.3388,1.3055,1.3055,1.2869,1.2576,1.2731,1.2596,1.2251,1.1971,1.1809,1.174,1.174,1.1723,1.1699,1.1695,1.1683,1.1667,1.1663,1.1561,0.0,1.1411,1.1346,1.1077,1.1041,1.1033,1.1126,1.1001,1.0932,1.0928,1.0928,1.0854,1.0708,1.0692,1.0911,1.1459,1.2114,1.2644,1.3254,1.2771,1.247,1.2586,1.1243,1.0168,0.9443,0.8804,0.7985,0.7119,0.6408,0.5877,0.5547,0.472,0.4272,0.413,0.3921,0.3839,0.3739,0.3757,0.377,0.378,0.372,0.3736,0.3761,0.3841,0.3828,0.3805,0.3675,0.3609,0.3524,0.3442,0.3346,0.3258,0.3236,0.3226,0.3232,0.3378,0.3811,0.4454,0.5081,0.5785,0.6612,0.7028,0.7317,0.7438,0.85,0.9358,0.9614,1.0329,1.124,1.1076,1.1215,1.1414,1.1631,1.1539,1.1508,1.138,1.1435,1.1303,1.1303,1.1185,1.1115,1.1122,1.0989,1.1052,1.1677,1.124,1.1115,1.1476,1.1108,1.0863,1.0807,1.0688,1.0618,1.0618,1.0925,1.134,1.3746,1.3092,1.2994,1.286,1.2706,1.2596,1.2462,1.2276,1.1931,1.1776,1.1776,1.1776,1.1776,1.1776,1.1776,1.1723,1.1626,1.1626,1.1529,1.1354,1.1346,1.1301,1.122,1.1143,1.1147,1.1212,1.1049,1.0968,1.096,1.0867,1.0826,1.0842,1.0842,1.1126,1.1577,1.1787,1.2436,1.331,1.3205,1.3125,1.2999,1.1873,1.1017,1.0419,0.9837,0.9119,0.8338,0.7645,0.6917,0.623,0.5509,0.4929,0.4491,0.4224,0.4008,0.3921,0.3843,0.3841,0.3841,0.3841,0.3841,0.3841,0.3841,0.3841,0.3841,0.3726,0.3644,0.3516,0.346,0.3381,0.3244,0.3226,0.3226,0.3226,0.3376,0.3792,0.4406,0.5042,0.5633,0.6356,0.6919,0.7179,0.7058,0.851,0.9285,0.9209,1.0074,1.0895,1.0782,1.049,1.0419,1.067,1.0621,1.0478,1.0275,1.0471,1.0598,1.0598,1.08,1.0926,1.0926,1.0807,1.087,1.1059,1.0807,1.0751,1.0989,1.0807,1.0624,1.0618,1.0618,1.0618,1.0618,1.0618,1.0798,1.3998,1.3141,1.297,1.3005,1.3066,1.2706,1.2557,1.2519,1.2167,1.1893,1.1776,1.1893,1.1897,1.1776,1.1893,1.1815,1.1573,1.1561,1.1443,1.1236,1.122,1.1204,1.1167,1.1167,1.1187,1.12,1.109,1.1025,1.1009,1.0883,1.0883,1.1013,1.1025,1.116,1.1418,1.1634,1.2051,1.2871,1.3254,1.3341,1.327,1.2475,1.1747,1.1287,1.0533,0.9793,0.9047,0.8197,0.7336,0.6449,0.5917,0.528,0.4561,0.4326,0.4205,0.4016,0.3843,0.3841,0.3841,0.3841,0.3841,0.3841,0.3841,0.3841,0.3841,0.3841,0.3776,0.3554,0.3489,0.3413,0.3316,0.3271,0.3264,0.3287,0.3483,0.3827,0.4343,0.5012,0.5656,0.6168,0.6764,0.7058,0.7124,0.8203,0.8985,0.9002,0.9843,1.0555,1.0555,0.9977,0.9582,0.9512,0.964,0.957,0.9116,0.957,0.9958,0.9958,1.0415,1.0681,1.0744,1.0681,1.0751,1.0807,1.0751,1.0751,1.0744,1.0688,1.0624,1.0618,1.0618,1.0561,1.0301,1.0491,1.0624,1.4194,1.3464,1.3137,1.3373,1.3709,1.3343,1.3182,1.3126,1.2756,1.2234,1.1893,1.2363,1.2251,1.1897,1.2367,1.2234,1.174,1.1752,1.1565,1.1261,1.122,1.1147,1.1037,1.1013,1.1078,1.1216,1.1208,1.12,1.12,1.1171,1.1175,1.1196,1.12,1.1106,1.1072,1.1496,1.1748,1.1782,1.1943,1.225,1.2628,1.1834,1.0914,1.0218,0.9228,0.8376,0.775,0.621,0.5453,0.5366,0.5078,0.4679,0.4274,0.4305,0.4186,0.3857,0.3841,0.3841,0.3841,0.3841,0.3845,0.3841,0.3845,0.3845,0.3843,0.3999,0.3958,0.3693,0.3473,0.3489,0.3458,0.3397,0.3451,0.344,0.3674,0.373,0.3838,0.4679,0.5396,0.5628,0.6471,0.7017,0.7146,0.7794,0.8531,0.9279,1.004,1.0618,1.0555,0.9907,0.9198,0.8807,0.8737,0.8796,0.8865,0.9448,0.964,0.9773,1.0231,1.0561,1.0618,1.0618,1.0744,1.0933,1.087,1.0744,1.0996,1.0996,1.0624,1.0428,1.0364,1.0301,0.9913,1.004,1.0364,1.4534,1.3344,1.3059,1.3298,1.3844,1.3589,1.3409,1.3277,1.3036,1.2738,1.238,1.2625,1.2388,1.1776,1.201,1.201,1.1776,1.1776,1.1699,1.1553,1.1549,1.1512,1.1451,1.1447,1.1488,1.1533,1.1439,1.1386,1.1366,1.1277,1.122,1.122,1.122,1.1135,1.0984,1.1193,1.1432,1.1568,1.1198,1.1265,1.1722,1.1472,1.056,0.9393,0.8813,0.7969,0.6742,0.5725,0.524,0.5375,0.4777,0.4465,0.449,0.4264,0.4117,0.3942,0.3841,0.3841,0.3841,0.3812,0.3822,0.3847,0.3814,0.3824,0.3847,0.3999,0.4059,0.3934,0.3894,0.3887,0.3867,0.375,0.3672,0.37,0.3663,0.3646,0.3672,0.4678,0.5393,0.5538,0.6331,0.6932,0.7033,0.7706,0.8578,0.942,1.0104,1.0555,1.0555,0.9646,0.8877,0.8484,0.7907,0.7386,0.7582,0.842,0.8871,0.9198,0.9913,1.0561,1.0618,1.0618,1.0681,1.0933,1.0681,1.0618,1.087,1.0807,1.0491,1.0174,0.9524,0.9198,0.8941,0.9134,0.9326,1.4728,1.3452,1.2986,1.3358,1.4119,1.3744,1.3558,1.3524,1.319,1.276,1.2496,1.2496,1.2259,1.1897,1.2014,1.2014,1.1776,1.1776,1.1748,1.1707,1.1703,1.1699,1.1699,1.1699,1.1727,1.174,1.1581,1.15,1.1496,1.1435,1.135,1.1309,1.1297,1.1187,1.0992,1.0968,1.1102,1.1244,1.0741,1.0424,1.0567,1.0497,0.9834,0.877,0.7933,0.6982,0.5907,0.5065,0.4773,0.5023,0.4472,0.4343,0.4509,0.4216,0.4039,0.4027,0.3921,0.3841,0.3841,0.3826,0.3834,0.3779,0.3828,0.3846,0.3891,0.4117,0.4196,0.4191,0.4443,0.4505,0.418,0.4061,0.3981,0.3925,0.3867,0.3822,0.3801,0.4711,0.5503,0.5499,0.6414,0.696,0.699,0.7788,0.87,0.9139,0.997,1.0618,1.0428,0.9454,0.8554,0.8425,0.7326,0.6552,0.6482,0.7456,0.8166,0.8748,0.9524,1.0301,1.0491,1.0618,1.0358,1.0421,1.0358,1.0104,0.9907,0.9843,0.9907,0.939,0.8812,0.8425,0.8296,0.8361,0.8226,1.4728,1.3452,1.2982,1.3621,1.4772,1.3752,1.369,1.4265,1.326,1.2483,1.2005,1.1956,1.184,1.1897,1.2367,1.2367,1.1897,1.1776,1.1691,1.1557,1.1537,1.152,1.1512,1.1512,1.161,1.1756,1.1614,1.152,1.152,1.1654,1.1658,1.1488,1.1459,1.1297,1.1017,1.0968,1.0879,1.0806,1.0534,0.99,0.9001,0.8646,0.8474,0.8037,0.6183,0.5027,0.4812,0.4049,0.3686,0.3906,0.4007,0.407,0.4177,0.4075,0.3944,0.3872,0.3843,0.3845,0.3851,0.3789,0.3785,0.3853,0.3797,0.3812,0.3887,0.4288,0.4442,0.4449,0.4831,0.4859,0.4513,0.4346,0.4263,0.4332,0.4346,0.4137,0.3913,0.4921,0.5551,0.568,0.65,0.7017,0.7007,0.7837,0.8419,0.8823,0.9779,1.0618,1.0428,0.939,0.8619,0.8231,0.7391,0.642,0.6486,0.7199,0.7847,0.849,0.9134,0.9843,1.0295,1.0491,1.0168,0.9773,0.9646,0.9326,0.8812,0.8619,0.8683,0.8484,0.8361,0.8102,0.7451,0.8037,0.7772,1.4576,1.3023,1.2893,1.3621,1.4786,1.3985,1.4166,1.4918,1.4128,1.3662,1.3583,1.3181,1.3066,1.2973,1.2844,1.2367,1.1897,1.1776,1.174,1.1679,1.1675,1.1675,1.1675,1.1675,1.1703,1.1756,1.1707,1.1675,1.1663,1.1634,1.1569,1.1488,1.1374,1.12,1.1009,1.0968,1.0879,1.0704,1.0627,1.005,0.8815,0.7962,0.7188,0.6305,0.5373,0.4483,0.3835,0.3569,0.3599,0.3818,0.3923,0.4057,0.4016,0.3942,0.3865,0.3846,0.3795,0.3814,0.3918,0.3938,0.3936,0.3938,0.3938,0.3942,0.4051,0.4183,0.4387,0.4546,0.4789,0.4818,0.4807,0.4665,0.4501,0.4368,0.4173,0.3973,0.4013,0.475,0.5573,0.5644,0.647,0.7114,0.714,0.7885,0.8602,0.8652,0.9716,1.0428,1.0364,0.939,0.849,0.8296,0.7391,0.6482,0.6749,0.7138,0.7717,0.8425,0.9069,0.9716,1.0238,1.004,0.9716,0.939,0.9134,0.8748,0.8296,0.7972,0.7907,0.7712,0.7647,0.712,0.6408,0.6789,0.633,1.4303,1.3244,1.2902,1.3439,1.4511,1.3936,1.4125,1.4913,1.4404,1.4178,1.4187,1.3899,1.3545,1.332,1.284,1.2367,1.1897,1.1776,1.1776,1.1776,1.1776,1.1776,1.1776,1.1776,1.1776,1.1776,1.1776,1.1776,1.1752,1.1589,1.1472,1.1399,1.1228,1.1053,1.0907,1.0879,1.081,1.0708,1.0359,0.9581,0.8336,0.7058,0.5873,0.4776,0.4492,0.4003,0.3233,0.329,0.3523,0.3728,0.3571,0.3437,0.3551,0.3781,0.3893,0.3895,0.3871,0.3901,0.4012,0.4034,0.4022,0.3995,0.402,0.4034,0.4032,0.4172,0.4307,0.4444,0.4676,0.4791,0.4823,0.4701,0.4543,0.4457,0.4169,0.3888,0.3785,0.4785,0.5635,0.6156,0.6741,0.6953,0.6958,0.7758,0.8139,0.8177,0.9396,1.0174,1.0104,0.9326,0.8554,0.849,0.7326,0.6811,0.6881,0.7204,0.7606,0.8187,0.8753,0.946,0.9779,0.9524,0.9262,0.8941,0.8554,0.8166,0.7782,0.7456,0.7195,0.6999,0.6666,0.6207,0.5745,0.5411,0.508,1.4055,1.3735,1.303,1.3185,1.3774,1.3334,1.3531,1.4337,1.4042,1.3894,1.3923,1.3737,1.3393,1.2831,1.2719,1.2367,1.1897,1.1776,1.1776,1.1776,1.1776,1.1776,1.1776,1.1776,1.1776,1.1776,1.1776,1.1776,1.1764,1.1606,1.1439,1.1236,1.1098,1.0928,1.0704,1.0716,1.0704,1.0363,0.9588,0.8364,0.7124,0.6034,0.4863,0.3731,0.3458,0.3394,0.3234,0.3228,0.3368,0.3547,0.2855,0.2473,0.274,0.3489,0.3994,0.3874,0.39,0.4028,0.4046,0.405,0.4018,0.3981,0.3997,0.396,0.4077,0.4272,0.435,0.4365,0.4511,0.4695,0.4671,0.4543,0.4465,0.4621,0.4295,0.4026,0.4132,0.4934,0.6083,0.7042,0.7224,0.706,0.7095,0.7459,0.7707,0.7882,0.8748,0.9588,0.9536,0.891,0.8711,0.8501,0.763,0.688,0.7047,0.7279,0.755,0.7882,0.8447,0.9011,0.9005,0.8871,0.8554,0.8231,0.7782,0.7391,0.6868,0.6539,0.6408,0.6145,0.5749,0.5418,0.5087,0.4752,0.442,1.4327,1.3857,1.3419,1.3371,1.3646,1.3343,1.3803,1.4725,1.4602,1.446,1.4316,1.4286,1.3688,1.284,1.2719,1.2367,1.1776,1.1776,1.1776,1.1776,1.1776,1.1776,1.1776,1.1776,1.1776,1.1776,1.1776,1.1776,1.1764,1.1711,1.1541,1.1265,1.1171,1.098,1.0724,1.0692,1.0359,0.9475,0.9144,0.7922,0.6137,0.5501,0.4656,0.3519,0.3354,0.3293,0.3234,0.323,0.3071,0.277,0.2476,0.2125,0.2006,0.2556,0.3056,0.3145,0.371,0.4099,0.4193,0.4163,0.4144,0.4144,0.4093,0.4106,0.4181,0.4214,0.4244,0.4285,0.436,0.4449,0.4439,0.4309,0.4311,0.4465,0.4233,0.4224,0.4496,0.552,0.6553,0.7246,0.7382,0.7224,0.7153,0.742,0.7686,0.7579,0.8635,0.9344,0.8899,0.8805,0.852,0.8289,0.7442,0.7033,0.7359,0.7559,0.7645,0.7888,0.8306,0.8385,0.8359,0.8291,0.7972,0.7451,0.7003,0.6544,0.6083,0.5818,0.5683,0.5484,0.5286,0.4888,0.4425,0.4092,0.3825,1.4931,1.425,1.3806,1.3465,1.3178,1.3191,1.3624,1.4255,1.4401,1.4397,1.4316,1.4221,1.3731,1.2848,1.2715,1.2367,1.1897,1.1776,1.1776,1.1776,1.1776,1.1776,1.1776,1.1776,1.1776,1.1776,1.1776,1.1776,1.1772,1.1699,1.1553,1.135,1.1196,1.1066,1.0875,1.0757,1.0158,0.9095,0.8504,0.7257,0.5686,0.4843,0.4224,0.3519,0.3353,0.3086,0.2831,0.2725,0.2587,0.2317,0.209,0.156,0.0961,0.1985,0.2674,0.2851,0.3549,0.4187,0.4281,0.4244,0.4222,0.423,0.4177,0.4159,0.4314,0.4327,0.4547,0.4543,0.478,0.4856,0.4668,0.4465,0.4311,0.4309,0.4077,0.4233,0.4701,0.5553,0.6405,0.693,0.7263,0.7277,0.7269,0.7321,0.7539,0.7453,0.8427,0.9079,0.8625,0.8745,0.8516,0.8168,0.747,0.7421,0.7812,0.7918,0.7815,0.8044,0.8255,0.7999,0.776,0.7766,0.7587,0.6728,0.6075,0.5745,0.5282,0.5282,0.5213,0.5017,0.4758,0.4389,0.3931,0.377,0.3435,1.5448,1.4777,1.3936,1.3212,1.2776,1.2966,1.3053,1.3101,1.3615,1.378,1.3693,1.3639,1.3273,1.2733,1.2599,1.2251,1.1893,1.1776,1.1776,1.1776,1.1776,1.1784,1.1817,1.1821,1.1821,1.1813,1.1809,1.1797,1.1768,1.1523,1.1508,1.1451,1.1093,1.1074,1.1098,1.0875,1.0132,0.8858,0.7753,0.6478,0.5256,0.4197,0.3587,0.3424,0.3365,0.2995,0.2236,0.192,0.19,0.1957,0.1417,0.0638,0.0353,0.1686,0.2478,0.2357,0.3546,0.392,0.4117,0.42,0.4176,0.4039,0.4148,0.4267,0.4299,0.4752,0.5135,0.4969,0.5449,0.5595,0.5069,0.4776,0.4465,0.4155,0.4077,0.4233,0.4621,0.5318,0.6089,0.6615,0.6969,0.7232,0.7212,0.7146,0.6991,0.7103,0.803,0.845,0.8301,0.8417,0.8809,0.8315,0.7541,0.7573,0.7883,0.8009,0.7981,0.7838,0.8004,0.7784,0.7359,0.7234,0.6931,0.6045,0.5365,0.5027,0.4764,0.4776,0.4634,0.4425,0.4185,0.3823,0.3623,0.3466,0.2935,1.48,1.4124,1.3806,1.3212,1.266,1.3069,1.3146,1.3128,1.3537,1.3444,1.3102,1.3018,1.2656,1.2134,1.201,1.1893,1.1893,1.1776,1.1776,1.1776,1.1776,1.1857,1.1943,1.1959,1.1955,1.1832,1.1808,1.1898,1.1784,1.0989,1.0901,1.15,1.0571,1.0593,1.1089,1.1029,0.9803,0.7983,0.6875,0.5594,0.4365,0.3795,0.3534,0.3476,0.3418,0.2938,0.206,0.0915,0.03,0.0196,-0.0378,-0.0829,-0.091,0.018,0.0,0.107,0.2319,0.2955,0.2596,0.3491,0.3927,0.3377,0.3882,0.4224,0.4265,0.4922,0.5097,0.5142,0.5613,0.5679,0.4991,0.4701,0.4467,0.3999,0.416,0.4472,0.4776,0.5631,0.6405,0.663,0.7053,0.7287,0.7261,0.7192,0.7082,0.7128,0.7674,0.8285,0.8009,0.8317,0.8832,0.8275,0.7702,0.7742,0.7883,0.8082,0.8025,0.7716,0.7677,0.765,0.7127,0.6737,0.6212,0.5486,0.5012,0.4616,0.4357,0.4298,0.4071,0.3897,0.3572,0.3324,0.3363,0.3231,0.2502,1.4539,1.387,1.3761,1.3276,1.2685,1.2833,1.2935,1.2743,1.2986,1.2915,1.2457,1.2297,1.2151,1.1776,1.1776,1.1776,1.1776,1.1776,1.153,1.1039,1.0671,1.0719,1.1157,1.1298,1.1337,1.1395,1.1337,1.1291,1.113,1.0218,1.0006,1.0172,0.9741,0.9689,1.0026,1.0222,0.9208,0.7252,0.6238,0.5264,0.3698,0.3587,0.3553,0.3504,0.3459,0.2878,0.1557,-0.0,-0.089,-0.0972,-0.1242,-0.1513,-0.1404,-0.0551,0.0,0.0,0.1442,0.1969,0.179,0.2865,0.3405,0.3221,0.3717,0.4166,0.4457,0.5122,0.5648,0.5477,0.6331,0.6355,0.5641,0.505,0.4504,0.401,0.411,0.4356,0.4318,0.5162,0.586,0.6247,0.6707,0.7226,0.7266,0.733,0.724,0.7304,0.7892,0.7965,0.7777,0.8393,0.8617,0.8088,0.7776,0.7709,0.7689,0.7832,0.8075,0.7776,0.7326,0.7333,0.6985,0.638,0.5711,0.5136,0.4605,0.4191,0.3981,0.3827,0.3655,0.3426,0.3092,0.2845,0.2886,0.2687,0.1955,1.4272,1.3744,1.3744,1.3387,1.2738,1.2588,1.2603,1.2259,1.2246,1.215,1.2057,1.1833,1.1901,1.1776,1.1776,1.1776,1.1776,1.1776,1.1187,1.035,0.9513,0.9177,0.9811,1.0194,1.0369,1.0429,1.0292,1.0316,1.0088,0.9265,0.8842,0.8921,0.8717,0.8612,0.8948,0.8939,0.7904,0.6512,0.5684,0.4933,0.3811,0.3586,0.3563,0.3523,0.3043,0.2337,0.0927,-0.0601,-0.1468,-0.1433,-0.155,-0.154,-0.1423,-0.056,0.0,0.0,0.0632,0.1163,0.1253,0.2059,0.2867,0.2864,0.3669,0.4297,0.4563,0.5346,0.588,0.5591,0.7271,0.7199,0.6371,0.5391,0.4515,0.4004,0.3959,0.3865,0.3959,0.4316,0.4932,0.5544,0.617,0.6791,0.7253,0.7468,0.7419,0.7343,0.7888,0.7886,0.7836,0.8201,0.8211,0.7827,0.7659,0.7636,0.753,0.7484,0.779,0.7842,0.7187,0.6853,0.6649,0.6108,0.5441,0.4818,0.4325,0.3913,0.3492,0.3332,0.3167,0.2889,0.2485,0.2251,0.2146,0.1857,0.1314,1.3231,1.2968,1.2964,1.2943,1.2783,1.2775,1.2596,1.2304,1.2231,1.2048,1.187,1.1792,1.1776,1.1776,1.1776,1.1776,1.1776,1.1667,1.1229,1.0253,0.8612,0.8012,0.8394,0.889,0.9418,0.9434,0.9425,0.9365,0.9156,0.8421,0.8108,0.8584,0.7958,0.7955,0.8539,0.7864,0.714,0.6074,0.4898,0.4155,0.3811,0.3587,0.3578,0.3438,0.2281,0.1463,0.0704,-0.07,-0.1481,-0.1537,-0.1513,-0.1512,-0.1422,-0.1204,-0.1003,-0.0819,-0.0271,-0.0,-0.0179,0.1345,0.2508,0.2058,0.3312,0.4297,0.4389,0.5099,0.5481,0.5537,0.6554,0.6989,0.6141,0.4979,0.4314,0.4051,0.3981,0.3971,0.3964,0.436,0.4945,0.555,0.617,0.6872,0.7407,0.748,0.752,0.7471,0.7584,0.7806,0.7978,0.808,0.7948,0.7691,0.7671,0.7577,0.7505,0.7509,0.7585,0.758,0.6984,0.6479,0.6208,0.5648,0.4919,0.4382,0.4012,0.3566,0.3156,0.2778,0.2551,0.2216,0.1882,0.1565,0.1305,0.1026,0.0555,1.2836,1.2836,1.2836,1.2836,1.2836,1.2832,1.2678,1.2442,1.2337,1.2154,1.1918,1.1817,1.1776,1.1776,1.1776,1.1776,1.1554,1.076,1.0005,0.8872,0.7561,0.697,0.6999,0.7483,0.797,0.8345,0.8411,0.8349,0.8027,0.7318,0.6891,0.7378,0.6888,0.6886,0.7362,0.6853,0.6278,0.551,0.4598,0.3846,0.3705,0.3587,0.3346,0.2874,0.1727,0.0835,0.0203,-0.089,-0.1469,-0.1541,-0.1507,-0.1502,-0.1537,-0.1518,-0.15,-0.1403,-0.1101,-0.0911,-0.0727,0.0631,0.1969,0.1522,0.3221,0.4028,0.4478,0.5015,0.5227,0.5418,0.601,0.6529,0.5724,0.5111,0.4422,0.405,0.4077,0.4059,0.4055,0.4444,0.498,0.5572,0.617,0.6791,0.7253,0.748,0.7476,0.7512,0.7605,0.7763,0.7759,0.7888,0.7834,0.7664,0.7637,0.7589,0.7499,0.7532,0.7524,0.721,0.6667,0.6204,0.5871,0.5118,0.4227,0.3999,0.3822,0.325,0.2804,0.2367,0.1946,0.1544,0.1212,0.0815,0.0411,0.0069,-0.0564,1.2836,1.2836,1.2836,1.2836,1.2836,1.2832,1.271,1.2503,1.2373,1.2174,1.1987,1.1833,1.1651,1.153,1.1526,1.153,1.0845,0.9761,0.8509,0.7816,0.6875,0.6543,0.6439,0.6649,0.6839,0.7451,0.736,0.7303,0.7024,0.6458,0.6162,0.6039,0.5916,0.6162,0.6018,0.5827,0.561,0.494,0.4513,0.4099,0.3598,0.3361,0.2889,0.2068,0.1182,0.0421,-0.0204,-0.0994,-0.1554,-0.1567,-0.1526,-0.1531,-0.1554,-0.1565,-0.1564,-0.1558,-0.1415,-0.1398,-0.1206,0.0092,0.1179,0.1351,0.297,0.4053,0.4418,0.4761,0.4991,0.5144,0.5489,0.5769,0.5259,0.4887,0.4586,0.4205,0.4155,0.414,0.4151,0.4557,0.5041,0.5617,0.623,0.6861,0.7277,0.748,0.748,0.7536,0.763,0.7686,0.7686,0.7694,0.7633,0.765,0.7601,0.7563,0.754,0.7407,0.7484,0.6942,0.6398,0.5848,0.5463,0.466,0.4022,0.3898,0.3644,0.304,0.2528,0.2025,0.1545,0.1075,0.0337,-0.0271,-0.0689,-0.0983,-0.1571,1.2836,1.2836,1.2836,1.2836,1.2832,1.2832,1.2645,1.2381,1.2308,1.2117,1.1841,1.1792,1.1285,1.0793,1.055,1.0183,0.9381,0.8426,0.7795,0.7352,0.6679,0.6382,0.6362,0.6286,0.6362,0.643,0.6339,0.6415,0.627,0.5967,0.5923,0.5919,0.5919,0.5919,0.5772,0.5583,0.5258,0.4826,0.4404,0.3993,0.3602,0.2909,0.2096,0.1185,0.0427,-0.0105,-0.0511,-0.1107,-0.1594,-0.1576,-0.1586,-0.1582,-0.1571,-0.1552,-0.1545,-0.1541,-0.153,-0.1519,-0.1327,-0.0472,0.056,0.1385,0.2481,0.3492,0.4122,0.4447,0.4615,0.4624,0.4687,0.4853,0.5378,0.4846,0.445,0.4259,0.4244,0.4236,0.4251,0.4702,0.5199,0.5594,0.6271,0.6939,0.7348,0.7525,0.7512,0.7508,0.7596,0.7605,0.7601,0.7542,0.7563,0.758,0.7532,0.7544,0.748,0.7407,0.733,0.671,0.6153,0.5402,0.4906,0.4334,0.3875,0.3739,0.3426,0.2917,0.233,0.1687,0.0873,0.0067,-0.0741,-0.1487,-0.1645,-0.1807,-0.2318,1.2836,1.2836,1.2836,1.2779,1.2702,1.2694,1.2491,1.2194,1.2158,1.202,1.1712,1.1285,1.0793,1.0304,0.9694,0.8958,0.8158,0.7786,0.7243,0.6785,0.6504,0.6315,0.6308,0.6227,0.6166,0.6098,0.6029,0.5862,0.598,0.5943,0.5919,0.5919,0.5919,0.5919,0.5774,0.5462,0.5137,0.4826,0.4404,0.3991,0.3481,0.2575,0.1539,0.043,-0.0212,-0.0627,-0.1118,-0.1298,-0.1587,-0.1577,-0.1585,-0.1583,-0.1576,-0.1574,-0.1572,-0.1569,-0.1558,-0.1549,-0.1352,-0.0672,0.0095,0.0659,0.197,0.3,0.3652,0.4096,0.444,0.442,0.4412,0.4453,0.4806,0.4542,0.4349,0.4308,0.4297,0.4277,0.4414,0.4802,0.5111,0.5459,0.6109,0.6842,0.7501,0.7606,0.7565,0.7541,0.7525,0.7504,0.7403,0.7403,0.7403,0.748,0.748,0.7407,0.733,0.7176,0.6868,0.6325,0.5848,0.5177,0.4607,0.4094,0.3744,0.3555,0.3151,0.2608,0.164,0.0739,-0.0067,-0.0939,-0.1747,-0.2427,-0.2449,-0.2679,-0.3263,1.2763,1.2731,1.2465,1.2382,1.2262,1.225,1.2075,1.1821,1.1913,1.1816,1.1421,1.0671,1.0061,0.9572,0.8596,0.7744,0.7141,0.7127,0.6679,0.633,0.6153,0.619,0.5774,0.5718,0.5302,0.4794,0.485,0.5423,0.5806,0.5921,0.5919,0.5919,0.5919,0.5919,0.5776,0.5218,0.502,0.4707,0.3938,0.342,0.27,0.2007,0.0989,-0.0427,-0.0637,-0.1043,-0.1418,-0.16,-0.159,-0.1585,-0.1584,-0.1583,-0.1585,-0.1603,-0.1616,-0.1613,-0.1593,-0.1583,-0.1378,-0.0977,-0.0387,0.0096,0.1435,0.2295,0.3346,0.4007,0.4559,0.4485,0.4434,0.4408,0.446,0.4373,0.4361,0.4324,0.4297,0.4293,0.4366,0.4669,0.492,0.5307,0.6021,0.6418,0.6839,0.6972,0.6774,0.6809,0.6716,0.6957,0.6942,0.7099,0.7176,0.7403,0.748,0.7407,0.7176,0.6868,0.6483,0.5783,0.5389,0.482,0.4394,0.3989,0.3702,0.3395,0.2536,0.1883,0.0836,-0.0,-0.0738,-0.1609,-0.2681,-0.3175,-0.3014,-0.3628,-0.4526,1.2507,1.2242,1.1344,1.1068,1.1053,1.1053,1.0947,1.0911,1.1514,1.1432,1.0425,1.0183,0.9204,0.7986,0.6893,0.6283,0.6188,0.6241,0.616,0.6047,0.5986,0.5379,0.4616,0.4437,0.3772,0.3258,0.2849,0.3944,0.5051,0.5546,0.5919,0.5794,0.5919,0.5794,0.5536,0.4719,0.4422,0.4353,0.2777,0.1367,0.0449,0.0111,-0.0435,-0.1174,-0.1473,-0.1449,-0.1624,-0.1609,-0.1607,-0.1608,-0.1609,-0.1611,-0.1613,-0.1614,-0.1617,-0.1616,-0.1613,-0.1611,-0.1607,-0.1399,-0.0991,-0.0392,0.0293,0.1268,0.273,0.399,0.4638,0.4565,0.4491,0.4424,0.4385,0.4357,0.4322,0.4306,0.4297,0.4297,0.4378,0.433,0.4592,0.4763,0.5234,0.5493,0.5836,0.5904,0.5968,0.5931,0.6044,0.6288,0.6556,0.6714,0.671,0.6938,0.7173,0.7099,0.6633,0.6405,0.5941,0.5321,0.4849,0.4455,0.4199,0.3857,0.3677,0.3236,0.2256,0.1391,0.0697,-0.0135,-0.1143,-0.2278,-0.3282,-0.347,-0.333,-0.434,-0.5568,1.1511,1.1407,1.1024,1.0461,0.989,0.9886,0.98,0.9681,1.0026,0.9873,0.9332,0.8839,0.7867,0.6641,0.6037,0.5916,0.5925,0.5961,0.5976,0.5605,0.5263,0.4647,0.4007,0.3242,0.2487,0.2112,0.2102,0.2464,0.3694,0.4556,0.5049,0.5794,0.5794,0.5421,0.479,0.3968,0.3323,0.269,0.1724,0.0678,-0.0112,-0.0556,-0.0876,-0.16,-0.1692,-0.166,-0.1629,-0.1617,-0.1617,-0.1617,-0.1617,-0.1617,-0.1617,-0.1617,-0.1617,-0.1617,-0.1616,-0.1616,-0.1615,-0.1617,-0.1306,-0.09,-0.0299,0.0995,0.2781,0.4041,0.4673,0.4579,0.4538,0.4477,0.4406,0.4375,0.4344,0.4322,0.4306,0.4297,0.4285,0.4232,0.4344,0.4435,0.4525,0.4792,0.5038,0.5288,0.553,0.5633,0.565,0.5727,0.6093,0.6402,0.6325,0.6244,0.6475,0.671,0.6093,0.5628,0.5398,0.4854,0.4387,0.4073,0.3995,0.374,0.3478,0.2906,0.1965,0.1241,0.0556,-0.0821,-0.2254,-0.3111,-0.3882,-0.4201,-0.4515,-0.5161,-0.6477,1.0042,0.9893,0.9896,0.9459,0.8747,0.862,0.8567,0.848,0.872,0.8699,0.8063,0.7327,0.6483,0.6012,0.5902,0.5919,0.5919,0.5919,0.5919,0.5421,0.4679,0.382,0.3087,0.2218,0.1233,0.1108,0.0617,0.1109,0.1724,0.2462,0.3447,0.4803,0.4556,0.4309,0.3544,0.2645,0.1773,0.0582,0.0569,0.0,-0.0672,-0.0892,-0.1207,-0.1509,-0.1699,-0.1673,-0.1636,-0.1619,-0.1617,-0.1617,-0.1617,-0.1617,-0.1617,-0.1617,-0.1617,-0.1617,-0.1617,-0.1617,-0.1617,-0.1617,-0.1617,-0.1313,-0.0605,0.0603,0.1908,0.3474,0.4309,0.414,0.4516,0.4428,0.4424,0.4422,0.4389,0.4353,0.4318,0.4308,0.4291,0.4253,0.4202,0.4216,0.4225,0.4062,0.4394,0.4765,0.5075,0.5302,0.5342,0.5254,0.5547,0.5938,0.5967,0.5814,0.5941,0.6112,0.5605,0.5048,0.4724,0.4387,0.3997,0.3843,0.3763,0.3444,0.3113,0.2386,0.1446,0.0592,-0.0286,-0.1898,-0.3326,-0.3671,-0.4215,-0.5345,-0.6024,-0.6609,-0.7469,0.8366,0.7641,0.7646,0.7649,0.7513,0.7508,0.7505,0.7492,0.8343,0.7911,0.6863,0.6026,0.5555,0.5452,0.576,0.5919,0.5919,0.5919,0.5794,0.5298,0.4555,0.3199,0.2093,0.0739,-0.037,-0.1234,-0.1111,-0.0617,-0.0123,0.037,0.1231,0.2092,0.2708,0.2462,0.1835,0.1085,0.0,-0.0811,-0.0679,-0.0673,-0.1341,-0.1553,-0.1644,-0.1737,-0.1697,-0.1662,-0.1658,-0.1632,-0.1617,-0.1617,-0.1617,-0.1617,-0.1617,-0.1617,-0.1617,-0.1617,-0.1617,-0.1617,-0.1617,-0.1617,-0.1617,-0.1313,0.0,0.0,0.0,0.0,0.3082,0.3508,0.416,0.4614,0.4532,0.4489,0.4428,0.4391,0.4344,0.4306,0.4297,0.4295,0.424,0.4169,0.4087,0.3999,0.391,0.4293,0.4415,0.4629,0.4614,0.454,0.4929,0.5249,0.5535,0.5544,0.5575,0.5442,0.4965,0.4629,0.4406,0.4075,0.3684,0.3606,0.3606,0.3209,0.2186,0.1322,0.0308,-0.0451,-0.1393,-0.3218,-0.4325,-0.4004,-0.4544,-0.6083,-0.7418,-0.8159,-0.914,0.7742,0.7373,0.6768,0.6526,0.6526,0.6526,0.6523,0.6512,0.6577,0.6255,0.5578,0.5391,0.5296,0.5437,0.5748,0.5919,0.5919,0.5919,0.5418,0.4432,0.3323,0.2092,0.0739,-0.037,-0.1482,-0.1977,-0.1977,-0.1853,-0.1358,-0.1111,-0.0987,-0.0247,0.1109,0.1231,0.0734,-0.0361,-0.1294,-0.15,-0.1473,-0.157,-0.168,-0.1785,-0.1769,-0.1746,-0.1714,-0.168,-0.1661,-0.1633,-0.1621,-0.1617,-0.1617,-0.1617,-0.1617,-0.1617,-0.1617,-0.1617,-0.1617,-0.1618,-0.1619,-0.1618,-0.1617,-0.1414,0.0,0.0,0.0,0.0,0.2846,0.339,0.395,0.4405,0.441,0.4459,0.4428,0.441,0.4371,0.4318,0.4312,0.4318,0.431,0.4253,0.4122,0.4001,0.391,0.3899,0.3884,0.388,0.3857,0.3919,0.4309,0.4626,0.4826,0.5007,0.4964,0.4719,0.4307,0.4119,0.4077,0.3604,0.3214,0.2978,0.2662,0.1563,0.0624,-0.0156,-0.1319,-0.2652,-0.3845,-0.5048,-0.5401,-0.5164,-0.5903,-0.7236,-0.8485,-0.9758,-1.0797,0.7011,0.6888,0.616,0.5919,0.5919,0.5919,0.5653,0.5378,0.5324,0.4997,0.4681,0.4849,0.4749,0.477,0.5307,0.4976,0.4848,0.4729,0.426,0.3291,0.1953,0.0858,-0.0123,-0.1111,-0.1853,-0.1977,-0.1977,-0.1977,-0.1853,-0.1977,-0.1853,-0.1234,-0.037,-0.0123,-0.049,-0.1317,-0.187,-0.184,-0.1812,-0.1795,-0.1795,-0.1793,-0.1788,-0.1762,-0.1735,-0.1705,-0.1679,-0.1652,-0.1628,-0.1621,-0.1617,-0.1617,-0.1617,-0.1617,-0.1617,-0.1617,-0.1618,-0.162,-0.1628,-0.163,-0.1626,-0.1518,0.0,0.0,-0.0,0.1183,0.1753,0.2103,0.3141,0.4167,0.4109,0.4206,0.4382,0.4461,0.4355,0.4304,0.4346,0.4365,0.4361,0.4336,0.422,0.405,0.3722,0.3639,0.3396,0.3545,0.3775,0.3841,0.3919,0.4162,0.4263,0.4351,0.4342,0.3949,0.3563,0.3306,0.3056,0.2426,0.2035,0.1721,0.1173,-0.0,-0.1321,-0.2322,-0.3613,-0.5103,-0.6633,-0.8108,-0.744,-0.6317,-0.7692,-0.9492,-1.0622,-1.1906,-1.2599,0.5916,0.5919,0.5914,0.5912,0.5784,0.5914,0.5256,0.4347,0.4684,0.4606,0.3918,0.4035,0.3694,0.336,0.4123,0.3913,0.3082,0.3315,0.2973,0.1922,0.0967,0.0243,-0.0491,-0.1355,-0.1977,-0.1977,-0.1977,-0.1977,-0.1977,-0.1977,-0.1977,-0.1974,-0.1478,-0.1353,-0.1846,-0.1915,-0.1872,-0.184,-0.181,-0.1797,-0.1795,-0.1795,-0.1791,-0.1782,-0.1757,-0.1725,-0.1696,-0.1668,-0.1643,-0.1621,-0.1617,-0.1617,-0.1617,-0.1617,-0.1617,-0.1617,-0.162,-0.1633,-0.1656,-0.1659,-0.1645,-0.1616,-0.1313,-0.1308,-0.1186,-0.0488,0.0483,0.0945,0.2271,0.3154,0.3528,0.3978,0.4325,0.4465,0.4359,0.4308,0.4349,0.44,0.4395,0.4381,0.4387,0.425,0.3787,0.3378,0.302,0.3136,0.3606,0.3684,0.3448,0.3376,0.3308,0.3151,0.3071,0.2679,0.2286,0.228,0.2037,0.1409,0.0782,0.0234,-0.0855,-0.2402,-0.3554,-0.4538,-0.6407,-0.8481,-0.9896,-1.1307,-1.0678,-1.0302,-1.0725,-1.2086,-1.3138,-1.4158,-1.4968,0.5919,0.5912,0.5606,0.5218,0.4734,0.4613,0.4355,0.3843,0.319,0.2543,0.2156,0.2262,0.2277,0.2299,0.2559,0.2697,0.2228,0.2231,0.2009,0.0711,0.012,-0.0603,-0.1217,-0.1594,-0.1973,-0.1977,-0.1977,-0.1975,-0.1977,-0.1977,-0.1977,-0.1975,-0.1959,-0.1947,-0.1937,-0.1904,-0.187,-0.184,-0.1812,-0.1795,-0.1795,-0.1795,-0.1795,-0.1793,-0.1766,-0.1737,-0.1706,-0.1678,-0.1651,-0.1622,-0.1617,-0.1617,-0.1618,-0.1618,-0.1619,-0.1624,-0.163,-0.165,-0.1667,-0.1669,-0.1654,-0.1614,-0.1587,-0.1581,-0.1447,-0.057,-0.0094,0.0374,0.1773,0.272,0.3269,0.3914,0.4358,0.4438,0.4367,0.4318,0.4334,0.4398,0.4422,0.4398,0.4393,0.3615,0.2947,0.1876,0.1421,0.1015,0.1248,0.1876,0.1877,0.1957,0.1962,0.1726,0.149,0.1178,0.0942,0.0625,0.0156,-0.0545,-0.1246,-0.1792,-0.3105,-0.486,-0.6291,-0.7564,-0.9728,-1.188,-1.2989,-1.4074,-1.4723,-1.4872,-1.5033,-1.4853,-1.5357,-1.6581,-1.7803,0.5462,0.5452,0.4917,0.4298,0.3822,0.3822,0.3573,0.2951,0.1503,0.0795,0.1012,0.1234,0.1127,0.1139,0.1379,0.104,0.0925,0.1156,0.0698,-0.0467,-0.0589,-0.1193,-0.1688,-0.1941,-0.1945,-0.1956,-0.1961,-0.196,-0.196,-0.1971,-0.1976,-0.1969,-0.1945,-0.1929,-0.1911,-0.1883,-0.1853,-0.1825,-0.1801,-0.1795,-0.1795,-0.1795,-0.1795,-0.179,-0.1774,-0.1748,-0.1712,-0.1682,-0.1658,-0.1631,-0.1617,-0.1617,-0.1618,-0.1626,-0.163,-0.1641,-0.1658,-0.167,-0.1671,-0.1658,-0.1626,-0.1566,-0.156,-0.1556,-0.1438,-0.0947,-0.0744,-0.0,0.1466,0.2114,0.2583,0.3406,0.4124,0.4201,0.4186,0.4137,0.4172,0.4233,0.3966,0.4038,0.3535,0.2775,0.1654,0.0482,-0.0547,-0.0935,-0.1324,-0.0546,0.0156,0.0312,0.0313,0.0234,-0.0078,-0.0469,-0.0937,-0.1479,-0.2019,-0.256,-0.3411,-0.4339,-0.593,-0.7744,-0.917,-1.0586,-1.2487,-1.4206,-1.5713,-1.6797,-1.7576,-1.8343,-1.889,-1.8552,-1.8009,-1.8944,-2.0396,0.4828,0.4589,0.376,0.3406,0.3289,0.2931,0.2326,0.1262,0.0113,0.0,0.0673,0.0561,0.0225,-0.0112,0.0449,-0.0113,-0.1015,-0.0563,-0.0909,-0.1376,-0.1504,-0.1764,-0.1781,-0.1904,-0.1915,-0.1925,-0.1934,-0.1942,-0.1937,-0.1954,-0.1968,-0.1959,-0.1927,-0.1905,-0.188,-0.1854,-0.1827,-0.1807,-0.2136,-0.213,-0.2241,-0.2235,-0.2342,-0.2226,-0.2108,-0.1968,-0.1826,-0.1696,-0.1668,-0.1641,-0.1619,-0.1618,-0.1626,-0.1646,-0.1656,-0.1671,-0.169,-0.1682,-0.1665,-0.1646,-0.1605,-0.1565,-0.1601,-0.1589,-0.1447,-0.1312,-0.12,-0.0636,0.0451,0.1002,0.1649,0.273,0.3801,0.3798,0.3796,0.3895,0.3932,0.3774,0.3498,0.3115,0.2542,0.1578,-0.0166,-0.1446,-0.235,-0.3039,-0.3348,-0.3343,-0.2565,-0.171,-0.1633,-0.1402,-0.1713,-0.2023,-0.2719,-0.3722,-0.4786,-0.5549,-0.6471,-0.7471,-0.913,-1.0381,-1.17,-1.3158,-1.4852,-1.6459,-1.7878,-1.934,-2.0557,-2.1296,-2.1543,-2.1222,-2.0315,-2.1452,-2.2635,0.4353,0.3758,0.3253,0.2196,0.1038,0.0114,-0.0566,-0.0903,-0.1235,-0.1234,-0.1009,-0.1009,-0.1009,-0.1346,-0.1121,-0.1346,-0.1458,-0.1571,-0.1575,-0.1699,-0.1828,-0.1849,-0.1864,-0.1877,-0.1889,-0.1902,-0.1915,-0.1924,-0.193,-0.1943,-0.193,-0.1909,-0.189,-0.1868,-0.185,-0.1824,-0.1921,-0.2134,-0.2689,-0.2911,-0.3234,-0.355,-0.3429,-0.3203,-0.2986,-0.2614,-0.2037,-0.1811,-0.1784,-0.1656,-0.1628,-0.1618,-0.1619,-0.1645,-0.1667,-0.169,-0.1698,-0.1692,-0.1667,-0.1654,-0.162,-0.1569,-0.1589,-0.1539,-0.1493,-0.1468,-0.1461,-0.0903,0.0,0.0,0.0,0.1804,0.2607,0.2785,0.2785,0.2796,0.2819,0.2558,0.2191,0.1168,0.0624,-0.0519,-0.2227,-0.315,-0.4032,-0.4862,-0.5309,-0.5384,-0.5214,-0.4276,-0.3878,-0.3651,-0.3958,-0.4498,-0.5425,-0.643,-0.7559,-0.8618,-0.9376,-1.0267,-1.1432,-1.2746,-1.4063,-1.5556,-1.7163,-1.8619,-2.0041,-2.1269,-2.2352,-2.2984,-2.3251,-2.3007,-2.3026,-2.3756,-2.4436,0.3809,0.288,0.2285,0.1024,-0.0568,-0.1464,-0.1795,-0.1795,-0.1795,-0.1795,-0.1795,-0.1795,-0.1795,-0.1795,-0.1683,-0.1795,-0.1795,-0.1795,-0.1797,-0.1802,-0.1814,-0.183,-0.1844,-0.1848,-0.1854,-0.187,-0.1883,-0.1887,-0.19,-0.1909,-0.1901,-0.1889,-0.1855,-0.2188,-0.2404,-0.272,-0.2919,-0.3248,-0.358,-0.3914,-0.445,-0.4977,-0.4632,-0.4397,-0.4181,-0.348,-0.2565,-0.2451,-0.2217,-0.1767,-0.1633,-0.1633,-0.1646,-0.1681,-0.17,-0.172,-0.1707,-0.1691,-0.1666,-0.1647,-0.1616,-0.1588,-0.1571,-0.154,-0.1502,-0.1476,-0.1457,0.0,0.0,0.0,0.0,0.0806,0.1164,0.1521,0.1521,0.1521,0.135,0.1176,0.0268,-0.0966,-0.198,-0.3025,-0.4102,-0.4929,-0.5698,-0.643,-0.6874,-0.6973,-0.685,-0.6409,-0.6224,-0.621,-0.6597,-0.7138,-0.8067,-0.8737,-0.9761,-1.0718,-1.1611,-1.257,-1.3742,-1.4727,-1.5791,-1.7504,-1.9346,-2.0504,-2.1365,-2.264,-2.3638,-2.4168,-2.4592,-2.4463,-2.4422,-2.4733,-2.5388,0.2912,0.2019,0.1121,-0.0225,-0.1683,-0.1795,-0.1795,-0.1795,-0.1795,-0.1795,-0.1795,-0.1795,-0.1795,-0.1795,-0.1795,-0.1795,-0.1795,-0.1795,-0.1795,-0.1795,-0.1799,-0.1812,-0.1818,-0.1814,-0.1823,-0.1833,-0.1845,-0.1975,-0.2086,-0.2214,-0.2347,-0.2113,-0.2424,-0.2856,-0.3639,-0.3717,-0.4139,-0.5029,-0.4806,-0.4804,-0.5357,-0.5575,-0.5571,-0.556,-0.5316,-0.4945,-0.3978,-0.3403,-0.2963,-0.2188,-0.1649,-0.1653,-0.1695,-0.1716,-0.1733,-0.1728,-0.1708,-0.168,-0.1655,-0.1635,-0.1607,-0.1584,-0.157,-0.1549,-0.1517,-0.1494,-0.1476,-0.1376,0.0,0.0,0.0,-0.0,0.0271,0.045,0.0448,0.0179,-0.0179,-0.0805,-0.2026,-0.312,-0.4004,-0.5007,-0.5485,-0.6153,-0.6218,-0.733,-0.7635,-0.7697,-0.8168,-0.7922,-0.806,-0.8174,-0.8817,-0.919,-0.9718,-1.0456,-1.163,-1.2663,-1.3476,-1.4482,-1.5413,-1.6392,-1.7444,-1.8905,-2.0364,-2.1432,-2.2457,-2.3551,-2.4483,-2.512,-2.5476,-2.5716,-2.5814,-2.5843,-2.5952,0.1995,0.1121,-0.0448,-0.1458,-0.1795,-0.1795,-0.1795,-0.1795,-0.1795,-0.1795,-0.1795,-0.1795,-0.1795,-0.1795,-0.1795,-0.1795,-0.1795,-0.1795,-0.1795,-0.1795,-0.1795,-0.1798,-0.1806,-0.1802,-0.1802,-0.181,-0.1937,-0.2408,-0.2982,-0.3335,-0.3668,-0.4423,-0.4281,-0.4511,-0.4847,-0.4918,-0.5477,-0.6591,-0.648,-0.6144,-0.6589,-0.7391,-0.7666,-0.7021,-0.6572,-0.603,-0.5072,-0.3958,-0.3542,-0.2999,-0.2092,-0.1794,-0.1734,-0.1724,-0.1716,-0.171,-0.169,-0.1664,-0.164,-0.1622,-0.1605,-0.1585,-0.157,-0.1551,-0.1534,-0.1521,-0.1417,-0.1412,-0.1309,-0.1114,-0.1013,-0.0733,-0.0638,-0.0632,-0.0717,-0.1164,-0.1611,-0.2915,-0.4181,-0.5074,-0.5933,-0.6408,-0.6899,-0.7047,-0.7022,-0.7015,-0.7008,-0.7282,-0.8586,-0.8965,-0.9068,-0.9377,-1.0479,-1.1057,-1.1434,-1.2091,-1.3186,-1.4132,-1.4942,-1.5939,-1.701,-1.7745,-1.8469,-1.9705,-2.1014,-2.2015,-2.3002,-2.415,-2.5063,-2.5645,-2.5973,-2.6083,-2.6379,-2.6444,-2.6456,0.1751,0.0659,-0.0995,-0.1782,-0.1793,-0.1795,-0.1795,-0.1795,-0.1795,-0.1795,-0.1795,-0.1795,-0.1795,-0.1795,-0.1795,-0.1795,-0.1795,-0.1795,-0.1795,-0.1795,-0.1795,-0.1795,-0.1795,-0.1907,-0.2355,-0.2475,-0.3274,-0.3855,-0.4313,-0.4418,-0.4841,-0.5477,-0.5472,-0.5695,-0.6031,-0.6255,-0.6702,-0.7823,-0.7823,-0.7823,-0.782,-0.8301,-0.8593,-0.7935,-0.7707,-0.7141,-0.629,-0.5264,-0.4843,-0.4131,-0.3234,-0.2243,-0.1948,-0.1727,-0.171,-0.1691,-0.1669,-0.165,-0.1627,-0.1614,-0.1609,-0.1594,-0.159,-0.158,-0.1581,-0.1568,-0.1545,-0.144,-0.1423,-0.1318,-0.1298,-0.1105,-0.1093,-0.1082,-0.1795,-0.2417,-0.3395,-0.4617,-0.5733,-0.6589,-0.7228,-0.7476,-0.7726,-0.7729,-0.7703,-0.7421,-0.7222,-0.7632,-0.8795,-0.9948,-1.0121,-1.0707,-1.1834,-1.2659,-1.2976,-1.378,-1.4736,-1.5534,-1.6114,-1.7139,-1.8027,-1.87,-1.9562,-2.0579,-2.1467,-2.22,-2.3301,-2.4496,-2.5245,-2.5783,-2.6079,-2.6258,-2.6627,-2.6827,-2.6644,0.1403,0.0321,-0.1192,-0.1761,-0.1787,-0.1789,-0.1788,-0.1789,-0.1793,-0.1795,-0.1795,-0.1795,-0.1795,-0.1795,-0.1795,-0.1795,-0.1795,-0.1795,-0.1795,-0.1795,-0.1795,-0.1795,-0.1906,-0.2018,-0.2912,-0.3804,-0.4596,-0.5154,-0.5603,-0.5601,-0.5712,-0.5808,-0.6031,-0.6366,-0.7038,-0.7374,-0.782,-0.838,-0.8605,-0.8826,-0.8826,-0.8937,-0.8813,-0.8816,-0.8816,-0.831,-0.7536,-0.6915,-0.6363,-0.5327,-0.4179,-0.3051,-0.2264,-0.1934,-0.1698,-0.1675,-0.1656,-0.1639,-0.1623,-0.1616,-0.1615,-0.1614,-0.1617,-0.1615,-0.1613,-0.1601,-0.1577,-0.1564,-0.1546,-0.1529,-0.1508,-0.1584,-0.1566,-0.2002,-0.2899,-0.3694,-0.4942,-0.6008,-0.6897,-0.7786,-0.8025,-0.8277,-0.8372,-0.8288,-0.8097,-0.7903,-0.8115,-0.8627,-0.9344,-1.0468,-1.113,-1.2125,-1.3457,-1.4052,-1.4385,-1.5054,-1.5867,-1.6184,-1.6742,-1.7959,-1.8977,-1.9562,-2.0215,-2.1037,-2.1916,-2.264,-2.3644,-2.4838,-2.5398,-2.5906,-2.6208,-2.6476,-2.644,-2.6615,-2.6503,0.0106,-0.1304,-0.1614,-0.1731,-0.1757,-0.1759,-0.1759,-0.1763,-0.1786,-0.1795,-0.1793,-0.1794,-0.1795,-0.1795,-0.1795,-0.1795,-0.1795,-0.1795,-0.1795,-0.1795,-0.1795,-0.1795,-0.213,-0.28,-0.3914,-0.4804,-0.5586,-0.5919,-0.6591,-0.6813,-0.726,-0.7928,-0.8042,-0.8266,-0.8377,-0.8491,-0.8491,-0.8937,-0.8937,-0.8937,-0.8937,-0.8937,-0.8937,-0.8937,-0.8937,-0.8809,-0.8417,-0.7545,-0.7138,-0.6179,-0.4956,-0.3822,-0.3129,-0.2552,-0.22,-0.2178,-0.205,-0.1833,-0.182,-0.1718,-0.1617,-0.1617,-0.1617,-0.1617,-0.1615,-0.1615,-0.16,-0.16,-0.1585,-0.1574,-0.1556,-0.174,-0.1819,-0.32,-0.42,-0.4899,-0.588,-0.6766,-0.7566,-0.7968,-0.8174,-0.8351,-0.8537,-0.8436,-0.8236,-0.8212,-0.8448,-0.9057,-1.0128,-1.1095,-1.1992,-1.3434,-1.4836,-1.5299,-1.5551,-1.5998,-1.6641,-1.6936,-1.7295,-1.8307,-1.9299,-2.0279,-2.0985,-2.1553,-2.2347,-2.3135,-2.4182,-2.5021,-2.5577,-2.6082,-2.6404,-2.662,-2.6556,-2.6572,-2.6572]}]]